     2              OBSERVATION DATA    GPS                 RINEX VERSION / TYPE
teqc 1998Mar9 19981223 22:51:01UTC                          PGM / RUN BY / DATE
                                                            COMMENT
Original Marker Name: SD03                                  COMMENT
Campaign Name: HPGN 1998                                    COMMENT
4-Character Station Name: SD03                              COMMENT
6-Character Antenna Code: ASHGD3                            COMMENT
Vertical Measurement Point: BPA                             COMMENT
Vertical Offset to Rinex Ref. Point: 0.0000                 COMMENT
Radial Measurement Point: RRP                               COMMENT
Radial Offset to Rinex Ref. Point: 0.0000                   COMMENT
Antenna Height from Field Measurement: 2.0000 m             COMMENT
Original XYZ: -2434946.3100 -4746214.3100 3484816.5800      COMMENT
New XYZ position is based on association with SCEC monument COMMENT
E1D0C5P7+0011. Position of that monument is believed to be  COMMENT
valid to within 1 m horizontally; vertical accuracy         COMMENT
should be no worse than 3-times this value.                 COMMENT
                                                            COMMENT
Revised Rinex header created by UCSD GPS archive for        COMMENT
GSAC on 02-Jun-1999 (1999:153) 01:21:21 GMT                 COMMENT
For assistance contact dagnew@ucsd.edu or hjohnson@ucsd.edu COMMENT
                                                            COMMENT
SD GPS 03                                                   MARKER NAME
S_F MANITOU ENG.                                            OBSERVER / AGENCY
132 ASHTECH Z12-XII3 3J00                                   REC # / TYPE / VERS
361 ASHTECH GEODETIC III                                    ANT # / TYPE
 -2434930.0000 -4746251.0000  3484792.0000                  APPROX POSITION XYZ
        2.0000        0.0000        0.0000                  ANTENNA: DELTA H/E/N
     1     1     0                                          WAVELENGTH FACT L1/2
     7    C1    L1    L2    P1    P2    S1    S2            # / TYPES OF OBSERV
     0                                                      INTERVAL
  1998     6    12    15    28    0.000000                  TIME OF FIRST OBS
  1998     6    12    21    33   30.000000                  TIME OF LAST OBS
                                                            END OF HEADER
 98  6 12 15 28  0.0000000  0  6G 2G26G 4G 5G24G 7
  17992080.547       18838.46159      8057.73956

  17992079.637    17992085.899
       229.000         186.000
  20051582.853         215.000
        74.000
  16119252.850         238.000                                    19104138.167
       215.000          74.000
  17383241.400         235.000
        74.000
  17092024.253       22885.90059      9787.62557  17092024.185    17092030.177
       236.000         203.000
 98  6 12 15 28 19.9990000  0  7G 2G26G 4G 5G24G 7G 9
  17695352.050       34942.92159     20606.62746  17695351.051    17695357.461
       227.000         185.000
  19756913.874     -299792.458     -299792.458
       215.000         135.000
  15810284.940     -299792.458     -299792.458
       239.000
  18789892.270     -299792.458     -299792.458
       216.000         152.000
  17067679.738     -131545.42059    -70681.58557  17067679.326    17067686.299
       232.000         189.000
  16795936.669       42352.46459     24956.33847  16795936.039    16795942.181
       236.000         203.000
  16605038.686      -57444.49659    -31093.90057  16605042.885    16605048.194
       236.000         203.000
 98  6 12 15 28 29.9990000  0  8G 2G26G 4G 5G24G 7G 8G 9
  17696891.468       43038.38949     26914.76646  17696891.130    17696897.975
       226.000         184.000
  19759477.463     -299792.458     -299792.458
       215.000         155.000
  15805711.131     -299792.458     -299792.458
       238.000          74.000
  18782662.446     -299792.458     -299792.458
       215.000         160.000
  17059803.646     -172935.27849   -102933.41147  17059803.640    17059810.193
       232.000         190.000
  16797790.980       52098.03749     32550.27647  16797790.779    16797796.454
       236.000         203.000
  18865528.143     -299792.458     -299792.458
       219.000          74.000
  16600274.339      -82505.03249    -50621.60147  16600274.369    16600279.458
       237.000         202.000
 98  6 12 15 28 45.0000000  0  6G 2G26G 4G 5G24G 7
  22795681.853       55223.48949     36409.60646  22795681.656    22795688.149
       225.000         183.000
  24859785.429       71226.67349     49158.61445  24859786.484    24859792.997
       217.000         153.000
  20895350.130
       239.000          74.000
  23868300.915     -156520.70145                                  23868308.867
       217.000         162.000
  22144483.385     -234898.57349   -151216.47247  22144483.997    22144491.039
       231.000         190.000
  21897045.014       66718.77649     43943.03447  21897044.645    21897050.618
       236.000         203.000
 98  6 12 15 29  0.0000000  0  6G 2G26G 4G 5G24G 7
  22798014.972       67479.75749     45959.89746  22798014.624    22798022.402
       227.000         185.000
  24863624.343       91395.93049     64874.88745  24863624.692    24863632.325
       217.000         153.000
  20888533.038
       239.000          74.000
  23857453.952     -281129.44649   -200939.60246  23857453.598    23857460.998
       219.000         164.000
  22132691.473     -296868.39349   -199504.62247  22132691.025    22132698.433
       233.000         190.000
  21899833.662       81373.00149     55361.89147  21899833.230    21899839.092
       236.000         202.000
 98  6 12 15 29 15.0000000  0  8G 2G26G 4G 5G24G 7G 8G 9
  22800359.155       79796.19449     55557.08646  22800358.608    22800365.331
       226.000         186.000
  24867460.943      111557.12849     80584.86645  24867460.075    24867468.068
       217.000         154.000
  20881741.415
       239.000          74.000
  23846605.590     -338141.33249   -245364.43246  23846605.002    23846611.617
       220.000         164.000
  22120911.147     -358774.82649   -247743.37947  22120910.980    22120917.623
       231.000         188.000
  21902626.481       96048.72349     66797.49147  21902625.805    21902632.133
       236.000         203.000
  23924094.687     -242818.46349   -161636.32145  23924094.898    23924102.744
       212.000         150.000
  21675417.043     -194591.35649   -137961.61047  21675416.861    21675421.468
       238.000         202.000
 98  6 12 15 29 30.0000000  0  8G 2G26G 4G 5G24G 7G 8G 9
  22802713.357       92168.04249     65197.45546  22802712.719    22802719.211
       226.000         183.000
  24871296.589      131714.44949     96291.79945  24871296.105    24871304.796
       216.000         156.000
  20874975.630      -14456.76647                                  20874981.578
       239.000         205.000
  23835754.963     -395160.75949   -289795.13546  23835753.995    23835760.762
       217.000         163.000
  22109141.308     -420622.94549   -295936.69547  22109141.356    22109148.712
       231.000         188.000
  21905423.284      110745.58649     78249.56347  21905422.902    21905428.525
       236.000         202.000
  23911474.067     -309140.02149   -213315.46055  23911476.599    23911482.548
       216.000         153.000
  21668349.649     -231730.20649   -166900.97847  21668349.741    21668354.617
       238.000         202.000
 98  6 12 15 29 45.0000000  0  8G 2G26G 4G 5G24G 7G 8G 9
  22805078.009      104596.55849     74881.97446  22805078.402    22805083.529
       224.000         181.000
  24875133.697      151872.93649    111999.62645  24875131.778    24875141.538
       218.000         157.000
  20868237.777     -284571.42449    -42047.88147  20868237.962    20868243.546
       239.000         204.000
  23824904.204     -452181.01549   -334226.47445  23824902.684    23824909.333
       219.000         159.000
  22097384.115     -482408.55149   -344081.30146  22097383.450    22097390.765
       232.000         187.000
  21908224.625      125467.36249     89721.05147  21908224.364    21908230.029
       237.000         202.000
  23898867.436     -375404.10359   -264949.80745  23898866.652    23898873.565
       220.000         157.000
  21661305.998     -268742.23749   -195741.52547  21661306.135    21661311.174
       238.000         202.000
 98  6 12 15 30  0.0000000  0  8G 2G26G 4G 5G24G 7G 8G 9
  22807453.641      117080.21849     84609.46246  22807453.637    22807459.677
       225.000         183.000
  24878968.017      172032.88849    127708.59345  24878968.542    24878978.552
       214.000         156.000
  20861528.187     -319831.61949    -69523.36647  20861528.393    20861533.420
       240.000         204.000
  23814052.182     -509199.72449   -378656.61845  23814052.270    23814059.051
       217.000         158.000
  22085639.343     -544127.96149   -392174.34747  22085639.219    22085646.246
       234.000         190.000
  21911030.904      140214.16749    101212.04647  21911030.371    21911036.325
       236.000         203.000
  23886268.497     -441608.83049   -316537.89745  23886267.765    23886274.455
       215.000         157.000
  21654287.893     -305625.97949   -224482.11747  21654287.800    21654292.955
       238.000         204.000
 98  6 12 15 30 15.0000000  0  8G 2G26G 4G 5G24G 7G 8G 9
  22809840.887      129619.26249     94380.10146  22809839.804    22809846.043
       226.000         182.000
  24882806.489      192196.01649    143420.04345  24882805.560    24882816.131
       218.000         158.000
  20854846.997     -354942.97649    -96882.85847  20854847.152    20854852.405
       240.000         205.000
  23803203.320     -566212.39649   -423082.08345  23803202.654    23803210.060
       215.000         158.000
  22073907.075     -605778.27849   -440213.53446  22073907.042    22073914.451
       231.000         187.000
  21913841.915      154987.13749    112723.42447  21913841.443    21913847.531
       237.000         202.000
  23873680.328     -507756.00049   -368081.08845  23873680.580    23873688.213
       214.000         156.000
  21647293.611     -342382.73849   -253123.74147  21647292.862    21647297.981
       238.000         202.000
 98  6 12 15 30 30.0000000  0  8G 2G26G 4G 5G24G 7G 8G 9
  22812239.048      142223.12649    104201.25446  22812237.935    22812244.761
       226.000         183.000
  24886644.486      212370.22949    159140.15945  24886645.341    24886654.172
       216.000         158.000
  20848195.036     -389897.44849   -124120.11447  20848195.320    20848201.005
       240.000         205.000
  23792357.757     -623207.86349   -467494.12045  23792358.215    23792364.281
       219.000         161.000
  22062190.768     -667348.84049   -488190.57947  22062190.825    22062197.483
       233.000         188.000
  21916660.302      169796.56649    124263.20947  21916660.087    21916665.808
       237.000         202.000
  23861104.832     -573837.01749   -419572.74445  23861104.596    23861112.250
       215.000         155.000
  21640323.540     -379005.78349   -281661.17747  21640323.594    21640329.209
       237.000         203.000
 98  6 12 15 30 45.0000000  0  8G 2G26G 4G 5G24G 7G 8G 9
  22814648.742      154896.22049    114076.34646  22814648.904    22814655.853
       223.000         181.000
  24890486.113      232557.32449    174870.31345  24890487.123    24890495.678
       217.000         152.000
  20841574.481     -424687.63949   -151229.35047  20841574.651    20841580.754
       239.000         205.000
  23781517.402     -680178.81649   -511887.06746  23781517.152    23781524.033
       219.000         166.000
  22050490.880     -728829.97949   -536097.94447  22050491.448    22050497.979
       233.000         190.000
  21919486.716      184649.84849    135837.17047  21919486.424    21919492.588
       237.000         203.000
  23848545.133     -639842.36449   -471005.43845  23848545.261    23848552.502
       213.000         154.000
  21633382.256     -415488.19049   -310089.04347  21633381.775    21633387.230
       239.000         204.000
 98  6 12 15 31  0.0000000  0  8G 2G26G 4G 5G24G 7G 8G 9
  22817072.185      167628.51149    123997.58546  22817072.261    22817078.569
       223.000         182.000
  24894328.421      252748.33649    190603.49045  24894328.470    24894337.121
       214.000         152.000
  20834983.666     -459323.13049   -178218.04147  20834984.096    20834989.672
       240.000         206.000
  23770678.374     -737134.65849   -556268.22146  23770678.937    23770685.952
       217.000         166.000
  22038808.278     -790227.91149   -583940.47347  22038808.082    22038814.863
       235.000         191.000
  21922319.315      199535.28849    147436.19047  21922318.881    21922325.056
       237.000         201.000
  23835997.387     -705778.41249   -522384.19045  23835998.371    23836004.037
       215.000         153.000
  21626464.698     -451839.07249   -338414.40347  21626464.379    21626469.700
       239.000         204.000
 98  6 12 15 31 15.0000000  0  8G 2G26G 4G 5G24G 7G 8G 9
  22819507.204      180420.32249    133965.19446  22819506.833    22819513.546
       226.000         182.000
  24898172.243      272943.13149    206339.66445  24898171.119    24898179.249
       215.000         149.000
  20828423.276     -493802.48949   -205085.07947  20828423.204    20828428.300
       240.000         206.000
  23759842.880     -794078.25949   -600639.80946  23759841.940    23759851.137
       215.000         163.000
  22027140.060     -851542.69449   -631718.21147  22027140.102    22027147.174
       234.000         191.000
  21925157.649      214452.48949    159059.95647  21925157.744    21925163.687
       236.000         201.000
  23823464.490     -771641.44349   -573706.04845  23823465.293    23823469.933
       216.000         155.000
  21619572.433     -488058.17349   -366637.08547  21619572.152    21619577.330
       238.000         204.000
 98  6 12 15 31 30.0000000  0  8G 2G26G 4G 5G24G 7G 8G 9
  22821954.013      193277.44949    143983.69946  22821953.430    22821959.301
       225.000         181.000
  24902016.191      293144.79449    222081.16545  24902014.806    24902024.865
       215.000         154.000
  20821892.054     -528122.81349   -231828.18347  20821892.079    20821897.323
       240.000         206.000
  23749008.666     -851008.15749   -645000.72945  23749007.780    23749016.757
       215.000         161.000
  22015489.489     -912768.73549   -679426.80147  22015489.064    22015495.475
       236.000         191.000
  21928004.029      229406.85349    170712.68447  21928003.475    21928008.947
       236.000         201.000
  23810947.311     -837421.12749   -624962.94745  23810946.452    23810954.040
       215.000         156.000
  21612705.556     -524138.79849   -394751.85847  21612706.077    21612711.561
       238.000         204.000
 98  6 12 15 31 45.0000000  0  8G 2G26G 4G 5G24G 7G 8G 9
  22824415.309      206213.78349    154063.93246  22824415.388    22824422.390
       225.000         182.000
  24905864.209      313364.59449    237836.78445  24905864.432    24905872.952
       215.000         157.000
  20815393.146     -562273.07849   -258438.78147  20815393.634    20815399.215
       240.000         206.000
  23738181.173     -907911.00349   -689340.60445  23738180.085    23738187.617
       218.000         159.000
  22003858.897     -973889.46049   -727053.33547  22003858.892    22003865.072
       235.000         191.000
  21930859.616      244413.02149    182405.77147  21930859.243    21930864.791
       237.000         200.000
  23798448.664     -903101.14449   -676142.12545  23798447.626    23798456.928
       210.000         157.000
  21605869.932     -560068.01649   -422748.65647  21605869.157    21605874.517
       238.000         204.000
 98  6 12 15 32  0.0000000  0  8G 2G26G 4G 5G24G 7G 8G 9
  22826890.968      219227.77249    164204.66946  22826890.871    22826898.226
       224.000         180.000
  24909713.382      333593.97749    253599.86445  24909713.306    24909721.928
       216.000         155.000
  20808925.786     -596263.13349   -284924.54047  20808925.709    20808930.500
       241.000         207.000
  23727357.872     -964791.05649   -733662.72945  23727356.612    23727362.853
       220.000         161.000
  21992247.459    -1034904.50449   -774597.50647  21992247.939    21992253.855
       233.000         189.000
  21933724.282      259465.82049    194135.20347  21933723.616    21933729.253
       237.000         200.000
  23785966.613     -968689.09749   -727249.53845  23785966.391    23785974.775
       214.000         157.000
  21599061.117     -595851.00849   -450631.50747  21599059.862    21599064.984
       239.000         203.000
 98  6 12 15 32 15.0000000  0  8G 2G26G 4G 5G24G 7G 8G 9
  22829383.612      232317.15049    174404.15046  22829383.079    22829389.677
       226.000         183.000
  24913563.640      353828.79649    269367.20845  24913564.407    24913572.279
       217.000         157.000
  20802486.362     -630100.67349   -311291.45247  20802486.527    20802491.272
       240.000         206.000
  23716535.840    -1021656.83449   -777973.72146  23716535.884    23716542.293
       220.000         163.000
  21980655.780    -1095821.86349   -822065.55647  21980655.472    21980662.093
       232.000         189.000
  21936596.597      274560.42749    205897.21447  21936596.227    21936601.961
       236.000         199.000
  23773503.044    -1034194.31549   -778292.53545  23773502.598    23773509.240
       219.000         159.000
  21592277.194     -631495.05649   -478406.10347  21592277.454    21592281.739
       239.000         204.000
 98  6 12 15 32 30.0000000  0  8G 2G26G 4G 5G24G 7G 8G 9
  22831891.049      245495.88549    184673.25246  22831890.060    22831897.219
       225.000         182.000
  24917417.242      374076.04049    285144.20245  24917417.607    24917427.388
       215.000         158.000
  20796077.604     -663778.14949   -337533.63747  20796077.660    20796082.872
       240.000         205.000
  23705720.080    -1078502.87349   -822269.32746  23705718.670    23705725.953
       221.000         165.000
  21969083.499    -1156634.09149   -869451.69847  21969082.997    21969089.931
       232.000         188.000
  21939479.352      289706.44249    217699.27547  21939478.986    21939484.362
       237.000         199.000
  23761056.306    -1099606.99749   -829263.47745  23761055.301    23761060.807
       221.000         156.000
  21585522.066     -666989.81749   -506064.36747  21585522.620    21585527.426
       238.000         203.000
 98  6 12 15 32 45.0000000  0  8G 2G26G 4G 5G24G 7G 8G 9
  22834416.154      258763.53649    195011.64446  22834415.087    22834421.863
       226.000         183.000
  24921271.327      394333.04449    300928.78445  24921271.634    24921280.296
       214.000         156.000
  20789699.639     -697295.41049   -363650.97747  20789699.850    20789704.678
       240.000         206.000
  23694905.529    -1135333.59049   -866552.97546  23694903.126    23694911.666
       218.000         165.000
  21957530.332    -1217343.12349   -916757.41046  21957529.861    21957537.374
       230.000         187.000
  21942370.268      304899.49549    229538.00047  21942369.590    21942374.752
       236.000         199.000
  23748624.414    -1164928.05949   -880163.03845  23748623.947    23748629.865
       216.000         151.000
  21578796.222     -702334.87849   -533605.97447  21578796.366    21578801.571
       239.000         204.000
 98  6 12 15 33  0.0000000  0  8G 2G26G 4G 5G24G 7G 8G 9
  22836958.978      272123.57749    205422.02346  22836957.058    22836964.405
       226.000         182.000
  24925129.167      414606.95349    316726.54945  24925129.629    24925137.931
       215.000         153.000
  20783352.524     -730648.31449   -389640.25547  20783353.257    20783358.135
       241.000         206.000
  23684092.168    -1192147.36249   -910823.41446  23684092.696    23684099.092
       215.000         163.000
  21945997.846    -1277947.00949   -963981.20347  21945997.756    21946004.556
       232.000         188.000
  21945271.269      320141.46149    241414.83347  21945270.247    21945275.290
       236.000         198.000
  23736213.326    -1230153.72749   -930988.20845  23736212.506    23736219.095
       216.000         153.000
  21572100.038     -737524.77649   -561026.68147  21572100.013    21572105.263
       238.000         204.000
 98  6 12 15 33 15.0000000  0  8G 2G26G 4G 5G24G 7G 8G 9
  22839518.355      285577.19449    215905.33946  22839517.560    22839524.262
       226.000         180.000
  24928991.415      434899.24949    332538.68845  24928990.912    24929000.348
       215.000         152.000
  20777036.804     -763838.58949   -415502.80547  20777037.041    20777042.365
       241.000         206.000
  23673282.366    -1248946.99349   -955082.82545  23673282.058    23673290.812
       213.000         162.000
  21934484.936    -1338448.31949  -1011125.06746  21934484.706    21934491.664
       232.000         187.000
  21948180.656      335431.40449    253329.05547  21948179.800    21948185.389
       236.000         198.000
  23723817.699    -1295287.15249   -981741.48745  23723816.308    23723825.685
       213.000         154.000
  21565433.956     -772558.68849   -588325.84047  21565433.669    21565438.281
       239.000         204.000
 98  6 12 15 33 30.0000000  0  8G 2G26G 4G 5G24G 7G 8G 9
  22842098.250      299130.32449    226466.17246  22842097.389    22842103.328
       226.000         182.000
  24932857.346      455212.13449    348366.84845  24932857.263    24932863.993
       218.000         152.000
  20770752.723     -796863.40349   -441236.42147  20770752.598    20770758.101
       240.000         206.000
  23662479.847    -1305727.06349   -999327.02446  23662479.136    23662485.585
       217.000         164.000
  21922992.204    -1398844.25349  -1058186.81347  21922992.085    21922998.668
       233.000         189.000
  21951099.876      350775.54449    265285.50647  21951099.447    21951105.547
       235.000         198.000
  23711441.825    -1360325.40449  -1032420.58445  23711441.774    23711449.991
       216.000         161.000
  21558798.338     -807432.06149   -615499.90347  21558798.011    21558802.491
       240.000         204.000
 98  6 12 15 33 45.0000000  0  8G 2G26G 4G 5G24G 7G 8G 9
  22844696.552      312786.53849    237107.34746  22844695.285    22844702.258
       226.000         182.000
  24936727.960      475548.17749    364213.08945  24936727.275    24936735.586
       220.000         156.000
  20764499.404     -829722.28249   -466840.74347  20764499.810    20764505.247
       240.000         207.000
  23651680.701    -1362482.99749  -1043552.42646  23651678.982    23651684.824
       221.000         164.000
  21911519.676    -1459130.19349  -1105162.85547  21911519.774    21911526.981
       232.000         189.000
  21954030.965      366173.73949    277284.06747  21954030.051    21954035.576
       235.000         198.000
  23699084.055    -1425269.03349  -1083025.97645  23699084.631    23699090.521
       218.000         162.000
  21552192.780     -842142.84749   -642547.27847  21552192.608    21552197.142
       239.000         205.000
 98  6 12 15 34  0.0000000  0  8G 2G26G 4G 5G24G 7G 8G 9
  22847316.313      326550.35749    247832.36946  22847314.915    22847321.149
       226.000         181.000
  24940602.085      495909.24949    380078.79545  24940601.180    24940610.485
       218.000         158.000
  20758279.268     -862410.17649   -492311.82847  20758279.618    20758285.260
       240.000         207.000
  23640885.613    -1419207.78049  -1087753.55745  23640883.761    23640889.970
       219.000         161.000
  21900068.707    -1519304.42049  -1152051.83947  21900068.790    21900076.711
       231.000         188.000
  21956969.986      381625.98749    289324.75947  21956969.652    21956976.032
       234.000         197.000
  23686744.244    -1490117.60249  -1133557.31345  23686743.827    23686750.814
       218.000         161.000
  21545618.587     -876689.05349   -669466.40747  21545618.672    21545623.720
       239.000         205.000
 98  6 12 15 34 15.0000000  0  8G 2G26G 4G 5G24G 7G 8G 9
  22849955.008      340423.03249    258642.20846  22849954.654    22849961.413
       225.000         182.000
  24944481.368      516296.59149    395964.95445  24944481.170    24944491.034
       214.000         157.000
  20752092.191     -894923.63149   -517646.99047  20752092.402    20752097.925
       240.000         206.000
  23630095.994    -1475902.38749  -1131931.16545  23630095.409    23630101.669
       216.000         160.000
  21888637.866    -1579371.09149  -1198857.01346  21888638.751    21888645.450
       230.000         187.000
  21959920.506      397129.31249    301405.24447  21959920.220    21959926.507
       234.000         198.000
  23674422.379    -1554872.08349  -1184015.33545  23674421.244    23674427.005
       215.000         154.000
  21539075.585     -911073.68449   -696259.62947  21539075.109    21539080.674
       239.000         205.000
 98  6 12 15 34 30.0000000  0  8G 2G26G 4G 5G24G 7G 8G 9
  22852616.966      354412.15349    269542.78146  22852616.218    22852623.644
       225.000         181.000
  24948367.076      536715.21249    411875.47545  24948367.569    24948376.400
       215.000         156.000
  20745940.445     -927251.04049   -542837.18247  20745940.967    20745946.211
       240.000         206.000
  23619314.436    -1532560.00949  -1176079.95446  23619313.548    23619320.112
       216.000         163.000
  21877230.746    -1639322.57349  -1245572.43347  21877230.246    21877237.528
       232.000         190.000
  21962882.438      412690.98549    313531.18747  21962881.280    21962887.539
       234.000         197.000
  23662118.913    -1619521.63249  -1234391.60745  23662117.950    23662122.168
       214.000         150.000
  21532564.114     -945289.50749   -722921.31847  21532564.234    21532569.666
       239.000         205.000
 98  6 12 15 34 45.0000000  0  8G 2G26G 4G 5G24G 7G 8G 9
  22855301.259      368516.80749    280533.37346  22855301.410    22855307.408
       225.000         181.000
  24952259.317      557166.91549    427811.80045  24952258.780    24952268.675
       214.000         154.000
  20739824.919     -959388.65049   -567879.47847  20739825.426    20739830.516
       240.000         206.000
  23608541.070    -1589176.65749  -1220196.78646  23608541.312    23608547.161
       218.000         165.000
  21865844.627    -1699156.67749  -1292196.38747  21865844.397    21865851.741
       233.000         191.000
  21965853.443      428307.73849    325700.06147  21965852.731    21965859.536
       234.000         197.000
  23649835.919    -1684064.92349  -1284685.06445  23649835.447    23649842.532
       214.000         153.000
  21526085.949     -979333.14649   -749448.83347  21526085.937    21526091.111
       239.000         205.000
 98  6 12 15 35  0.0000000  0  8G 2G26G 4G 5G24G 7G 8G 9
  22858007.119      382731.77149    291609.93446  22858006.021    22858012.625
       226.000         182.000
  24956157.317      577654.68549    443776.22645  24956157.740    24956168.152
       214.000         154.000
  20733745.543     -991337.95249   -592775.04147  20733745.814    20733750.348
       240.000         205.000
  23597775.529    -1645752.04149  -1264281.46646  23597773.954    23597782.303
       218.000         166.000
  21854480.493    -1758874.60249  -1338729.82347  21854480.843    21854487.999
       233.000         191.000
  21968835.905      443979.97949    337912.16347  21968835.683    21968841.957
       234.000         197.000
  23637575.806    -1748500.20149  -1334894.33845  23637574.730    23637581.943
       218.000         161.000
  21519640.325    -1013204.19249   -775841.85347  21519639.976    21519645.673
       239.000         205.000
 98  6 12 15 35 15.0000000  0  8G 2G26G 4G 5G24G 7G 8G 9
  22860731.117      397055.09949    302770.91746  22860731.527    22860737.586
       224.000         180.000
  24960062.171      598177.41649    459767.88245  24960062.379    24960073.236
       214.000         153.000
  20727701.178    -1023099.97649   -617524.66947  20727701.278    20727706.267
       239.000         205.000
  23587016.817    -1702284.09849  -1308332.37646  23587016.434    23587024.494
       218.000         166.000
  21843138.735    -1818475.63149  -1385172.16347  21843138.408    21843146.564
       233.000         191.000
  21971829.062      459709.00249    350168.51547  21971828.662    21971835.200
       233.000         196.000
  23625334.276    -1812828.13649  -1385019.97346  23625334.238    23625340.266
       219.000         165.000
  21513227.488    -1046905.17749   -802102.37147  21513227.232    21513232.666
       239.000         205.000
 98  6 12 15 35 30.0000000  0  8G 2G26G 4G 5G24G 7G 8G 9
  22863479.441      411487.92849    314017.23946  22863478.742    22863484.710
       225.000         181.000
  24963974.882      618732.48649    475784.78945  24963974.755    24963984.385
       215.000         152.000
  20721692.437    -1054672.84249   -642126.89447  20721693.052    20721698.138
       239.000         204.000
  23576268.633    -1758769.02749  -1352346.60546  23576268.756    23576274.697
       220.000         165.000
  21831819.295    -1877958.67749  -1431522.56747  21831819.448    21831826.541
       235.000         192.000
  21974833.943      475496.56349    362470.48247  21974833.117    21974839.150
       234.000         196.000
  23613113.737    -1877046.84249  -1435060.49546  23613112.697    23613120.421
       217.000         164.000
  21506847.115    -1080439.87349   -828233.31347  21506846.433    21506851.068
       239.000         205.000
 98  6 12 15 35 45.0000000  0  8G 2G26G 4G 5G24G 7G 8G 9
  22866246.606      426033.52749    325351.43646  22866246.271    22866252.860
       224.000         167.000
  24967893.797      639322.73349    491829.07045  24967889.950    24967903.201
       214.000         146.000
  20715722.399    -1086049.38949   -666576.14947  20715722.149    20715727.202
       239.000         192.000
  23565530.183    -1815199.92949  -1396318.73345  23565528.518    23565535.021
       218.000         154.000
  21820524.008    -1937316.31449  -1477775.26146  21820524.008    21820531.166
       235.000         181.000
  21977849.440      491347.27749    374821.66546  21977849.255    21977855.232
       233.000         185.000
  23600913.974    -1941148.56749  -1485009.81645  23600913.402    23600923.227
       213.000         152.000
  21500497.550    -1113805.36349   -854232.39847  21500497.091    21500502.107
       240.000         193.000
 98  6 12 15 36  0.0000000  0  7G 2G 4G 5G24G 7G 8G 9
  22869036.376      440691.69249    336773.33346  22869035.225    22869042.597
       223.000         179.000
  20709790.324    -1117224.69149   -690868.59547  20709790.068    20709794.738
       239.000         204.000
  23554803.242    -1871576.06249  -1440248.16645  23554801.552    23554806.611
       220.000         161.000
  21809253.580    -1996545.73649  -1523928.04147  21809253.257    21809260.254
       236.000         194.000
  21980879.066      507263.62749    387223.98847  21980878.453    21980884.553
       233.000         197.000
  23588737.939    -2005129.91149  -1534865.39245  23588738.258    23588745.531
       212.000         155.000
  21494180.352    -1147000.71449   -880098.92047  21494180.159    21494184.935
       239.000         205.000
 98  6 12 15 36 15.0000000  0  7G 2G 4G 5G24G 7G 8G 9
  22871846.300      455460.48249    348281.43946  22871845.981    22871852.822
       224.000         179.000
  20703895.772    -1148198.26049   -715003.84247  20703895.529    20703901.255
       238.000         203.000
  23544082.954    -1927900.57249  -1484137.40645  23544082.650    23544089.115
       218.000         162.000
  21798006.313    -2055649.94849  -1569983.25347  21798006.354    21798013.316
       236.000         194.000
  21983921.543      523247.09649    399678.61847  21983919.916    21983926.285
       235.000         197.000
  23576587.115    -2068991.47649  -1584627.65645  23576587.102    23576593.558
       218.000         156.000
  21487894.615    -1180030.16549   -905836.15847  21487894.635    21487899.862
       239.000         205.000
 98  6 12 15 36 30.0000000  0  7G 2G 4G 5G24G 7G 8G 9
  22874679.646      470348.56349    359882.49546  22874679.341    22874685.792
       223.000         178.000
  20698041.227    -1178963.24549   -738976.55447  20698041.374    20698046.896
       239.000         204.000
  23533375.956    -1984167.06249  -1527981.38346  23533374.890    23533382.772
       219.000         165.000
  21786785.671    -2114617.42249  -1615931.91347  21786784.961    21786791.933
       235.000         193.000
  21986977.012      539309.03549    412194.38847  21986976.340    21986982.459
       232.000         197.000
  23564460.398    -2132723.97749  -1634289.35145  23564460.500    23564464.427
       221.000         160.000
  21481643.524    -1212882.01149   -931435.00647  21481643.521    21481648.033
       240.000         205.000
 98  6 12 15 36 45.0000000  0  7G 2G 4G 5G24G 7G 8G 9
  22877533.554      485345.78449    371568.59946  22877532.466    22877539.553
       222.000         177.000
  20692224.338    -1209531.13249   -762795.68947  20692224.408    20692229.825
       239.000         204.000
  23522678.684    -2040382.93449  -1571785.95246  23522678.325    23522685.776
       219.000         168.000
  21775588.743    -2173456.12449  -1661780.23347  21775588.647    21775594.797
       236.000         192.000
  21990047.075      555442.16249    424765.63347  21990046.706    21990052.688
       234.000         198.000
  23552355.809    -2196336.49249  -1683857.53345  23552355.109    23552360.384
       219.000         161.000
  21475425.747    -1245561.28149   -956899.37447  21475424.872    21475429.642
       241.000         205.000
 98  6 12 15 37  0.0000000  0  7G 2G 4G 5G24G 7G 8G 9
  22880408.252      500452.15849    383339.76646  22880407.374    22880414.567
       224.000         178.000
  20686444.709    -1239902.27149   -786461.51347  20686444.605    20686450.188
       237.000         203.000
  23511992.167    -2096546.40849  -1615549.68446  23511991.815    23511998.637
       220.000         169.000
  21764416.789    -2232164.89749  -1707527.31047  21764416.468    21764422.909
       235.000         191.000
  21993131.174      571651.04949    437395.90647  21993130.756    21993137.304
       233.000         198.000
  23540272.658    -2259824.73949  -1733328.84145  23540271.428    23540279.335
       215.000         162.000
  21469238.863    -1278066.84549   -982228.39147  21469238.695    21469244.013
       239.000         205.000
 98  6 12 15 37 15.0000000  0  7G 2G 4G 5G24G 7G 8G 9
  22883305.440      515677.29949    395203.45046  22883305.243    22883312.039
       223.000         179.000
  20680703.688    -1270069.50849   -809968.44847  20680703.978    20680709.743
       236.000         203.000
  23501316.570    -2152647.16749  -1659264.52146  23501315.371    23501322.724
       220.000         168.000
  21753271.921    -2290732.84749  -1753164.66047  21753271.391    21753277.276
       236.000         192.000
  21996233.194      587948.22549    450094.97747  21996232.620    21996238.715
       234.000         198.000
  23528215.613    -2323177.89249  -1782694.90745  23528216.573    23528223.770
       213.000         159.000
  21463087.035    -1310393.21449  -1007417.78047  21463087.182    21463092.507
       239.000         205.000
 98  6 12 15 37 30.0000000  0  7G 2G 4G 5G24G 7G 8G 9
  22886225.960      531025.39749    407162.97046  22886225.493    22886232.764
       224.000         179.000
  20675002.243    -1300030.37049   -833314.56947  20675002.939    20675008.212
       236.000         203.000
  23490651.966    -2208684.76849  -1702930.17346  23490652.175    23490659.533
       217.000         165.000
  21742153.958    -2349156.61349  -1798689.66847  21742153.742    21742159.645
       237.000         193.000
  21999351.167      604334.99649    462863.86347  21999350.651    21999356.712
       234.000         198.000
  23516186.649    -2386395.16649  -1831955.06545  23516185.723    23516194.113
       214.000         158.000
  21456970.960    -1342538.36549  -1032465.95647  21456970.604    21456975.381
       240.000         205.000
 98  6 12 15 37 45.0000000  0  7G 2G 4G 5G24G 7G 8G 9
  22889169.043      546491.65349    419214.54546  22889168.647    22889175.184
       221.000         176.000
  20669339.713    -1329789.73149   -856503.68747  20669340.157    20669345.068
       237.000         203.000
  23479998.406    -2264665.42949  -1746551.44045  23479998.056    23480004.651
       217.000         162.000
  21731063.042    -2407440.41549  -1844105.60747  21731062.587    21731069.226
       238.000         194.000
  22002485.382      620807.95749    475699.91347  22002485.370    22002491.406
       233.000         198.000
  23504182.345    -2449479.19349  -1881111.44045  23504182.422    23504188.867
       216.000         159.000
  21450888.191    -1374501.19649  -1057372.06247  21450887.848    21450893.168
       240.000         205.000
 98  6 12 15 38  0.0000000  0  7G 2G 4G 5G24G 7G 8G 9
  22892135.480      562076.33049    431358.40846  22892133.879    22892141.454
       223.000         176.000
  20663715.701    -1359345.88149   -879534.45747  20663715.557    20663720.814
       236.000         203.000
  23469356.446    -2320591.51349  -1790130.20545  23469355.597    23469362.150
       219.000         161.000
  21719998.973    -2465581.85649  -1889410.61547  21719998.707    21720005.546
       237.000         196.000
  22005636.806      637366.70549    488602.79947  22005636.049    22005642.511
       233.000         198.000
  23492203.331    -2512431.85949  -1930165.45945  23492202.387    23492208.772
       219.000         160.000
  21444841.197    -1406277.17649  -1082132.57047  21444841.219    21444846.407
       239.000         205.000
 98  6 12 15 38 15.0000000  0  7G 2G 4G 5G24G 7G 8G 9
  22895123.899      577786.51449    443600.05846  22895123.815    22895130.986
       221.000         176.000
  20658130.339    -1388696.47049   -902405.04147  20658130.344    20658135.648
       236.000         202.000
  23458725.962    -2376460.44449  -1833664.43446  23458725.556    23458730.961
       222.000         164.000
  21708962.377    -2523578.55749  -1934602.82847  21708962.201    21708968.853
       237.000         196.000
  22008803.779      654012.83949    501573.78547  22008803.910    22008810.355
       233.000         198.000
  23480249.979    -2575252.50049  -1979116.63646  23480249.826    23480255.372
       221.000         163.000
  21438831.250    -1437861.03249  -1106743.37447  21438831.292    21438836.140
       239.000         206.000
 98  6 12 15 38 30.0000000  0  7G 2G 4G 5G24G 7G 8G 9
  22898137.693      593618.50249    455936.62846  22898137.336    22898144.142
       223.000         179.000
  20652581.627    -1417850.87549   -925122.74747  20652582.377    20652587.523
       236.000         202.000
  23448104.756    -2432276.80349  -1877157.69046  23448103.061    23448110.619
       222.000         166.000
  21697953.839    -2581432.39049  -1979683.72247  21697953.127    21697959.592
       239.000         196.000
  22011986.640      670738.25449    514606.55647  22011986.769    22011993.317
       233.000         198.000
  23468317.118    -2637947.09049  -2027969.52045  23468317.194    23468324.652
       215.000         161.000
  21432858.020    -1469254.02249  -1131205.44947  21432857.534    21432862.430
       240.000         206.000
 98  6 12 15 38 45.0000000  0  7G 2G 4G 5G24G 7G 8G 9
  22901174.732      609574.98149    468370.20346  22901174.268    22901180.453
       224.000         179.000
  20647072.162    -1446807.51049   -947686.36047  20647072.293    20647077.061
       236.000         201.000
  23437493.950    -2488037.10349  -1920607.25046  23437493.204    23437500.034
       220.000         167.000
  21686972.279    -2639138.24749  -2024649.31347  21686971.891    21686978.374
       237.000         195.000
  22015186.402      687547.03749    527704.27247  22015185.610    22015191.566
       234.000         198.000
  23456411.424    -2700509.69549  -2076719.56745  23456411.841    23456419.834
       212.000         160.000
  21426920.674    -1500449.91849  -1155513.94847  21426921.035    21426926.428
       239.000         206.000
 98  6 12 15 39  0.0000000  0  7G 2G 4G 5G24G 7G 8G 9
  22904234.407      625656.73249    480901.39346  22904234.184    22904241.188
       225.000         179.000
  20641599.493    -1475564.55949   -970094.45547  20641599.850    20641604.891
       236.000         201.000
  23426894.375    -2543739.55249  -1964011.72146  23426892.757    23426899.993
       221.000         169.000
  21676019.145    -2696695.41349  -2069499.04247  21676019.437    21676025.669
       236.000         193.000
  22018401.058      704439.46849    540867.17747  22018400.332    22018406.280
       234.000         198.000
  23444532.124    -2762938.05549  -2125365.00346  23444532.916    23444541.011
       214.000         163.000
  21421022.011    -1531449.69449  -1179669.63047  21421022.087    21421027.239
       240.000         206.000
 98  6 12 15 39 15.0000000  0  7G 2G 4G 5G24G 7G 8G 9
  22907318.137      641862.98549    493529.59446  22907317.770    22907324.821
       223.000         178.000
  20636164.871    -1504122.35249   -992347.28147  20636165.252    20636170.675
       236.000         201.000
  23416304.560    -2599384.09849  -2007371.08646  23416302.938    23416310.574
       220.000         168.000
  21665095.208    -2754102.50349  -2114231.82147  21665095.038    21665101.315
       236.000         193.000
  22021630.421      721414.51549    554094.45847  22021630.076    22021636.775
       233.000         198.000
  23432680.768    -2825234.77249  -2173907.85846  23432679.332    23432686.482
       220.000         166.000
  21415161.054    -1562254.64849  -1203673.49147  21415160.146    21415165.007
       241.000         206.000
 98  6 12 15 39 30.0000000  0  7G 2G 4G 5G24G 7G 8G 9
  22910426.695      658196.45149    506256.91446  22910425.381    22910433.516
       221.000         177.000
  20630769.004    -1532478.92849  -1014443.31147  20630769.273    20630774.714
       236.000         202.000
  23405725.857    -2654970.00049  -2050684.75346  23405725.356    23405732.860
       218.000         164.000
  21654200.558    -2811355.95149  -2158844.89147  21654199.985    21654206.517
       237.000         194.000
  22024876.957      738472.08049    567386.04547  22024876.001    22024881.895
       234.000         198.000
  23420850.240    -2887402.96549  -2222350.60746  23420849.791    23420854.719
       221.000         165.000
  21409335.367    -1592863.71149  -1227524.71547  21409335.134    21409340.389
       240.000         206.000
 98  6 12 15 39 45.0000000  0  7G 2G 4G 5G24G 7G 8G 9
  22913559.918      674662.37649    519087.48046  22913558.640    22913566.663
       223.000         177.000
  20625412.664    -1560628.44749  -1036377.99947  20625412.527    20625417.683
       236.000         201.000
  23395161.109    -2710491.76349  -2093948.45746  23395160.110    23395166.749
       221.000         164.000
  21643336.049    -2868450.26849  -2203333.94647  21643335.340    21643342.534
       237.000         196.000
  22028138.338      755614.05949    580743.40947  22028138.355    22028144.505
       233.000         198.000
  23409045.147    -2949438.90049  -2270690.28446  23409043.976    23409049.390
       220.000         163.000
  21403548.823    -1623270.37349  -1251218.22647  21403549.024    21403554.467
       239.000         206.000
 98  6 12 15 40  0.0000000  0  7G 2G 4G 5G24G 7G 8G 9
  22916719.311      691259.43649    532020.19546  22916718.597    22916724.902
       225.000         179.000
  20620094.582    -1588571.04149  -1058151.44747  20620095.172    20620100.445
       236.000         201.000
  23384609.372    -2765947.15849  -2137160.43946  23384607.810    23384613.881
       222.000         166.000
  21632500.980    -2925387.26149  -2247700.42147  21632500.744    21632507.807
       237.000         197.000
  22031417.067      772837.20449    594164.01147  22031415.901    22031422.011
       236.000         199.000
  23397262.795    -3011344.31249  -2318928.26145  23397261.878    23397269.216
       215.000         159.000
  21397801.958    -1653478.25649  -1274756.84547  21397801.080    21397805.705
       241.000         206.000
 98  6 12 15 40 15.0000000  0  7G 2G 4G 5G24G 7G 8G 9
  22919901.675      707986.22249    545054.00346  22919900.957    22919908.647
       224.000         178.000
  20614816.725    -1616310.71249  -1079766.77447  20614816.676    20614821.954
       237.000         202.000
  23374069.743    -2821336.17149  -2180320.70946  23374069.307    23374073.503
       223.000         167.000
  21621695.154    -2982168.18249  -2291945.28347  21621695.549    21621702.729
       236.000         197.000
  22034708.850      790137.03649    607644.37847  22034707.923    22034714.249
       236.000         199.000
  23385508.220    -3073120.30449  -2367065.39145  23385507.773    23385513.015
       218.000         160.000
  21392089.398    -1683492.03049  -1298144.20547  21392089.266    21392094.354
       240.000         206.000
 98  6 12 15 40 30.0000000  0  7G 2G 4G 5G24G 7G 8G 9
  22923109.194      724845.49149    558191.06946  22923108.748    22923116.461
       222.000         177.000
  20609576.753    -1643846.07349  -1101222.90047  20609576.966    20609582.255
       236.000         201.000
  23363542.529    -2876654.00149  -2223425.50546  23363541.646    23363548.870
       221.000         167.000
  21610920.110    -3038791.41849  -2336067.26247  21610920.769    21610928.033
       235.000         197.000
  22038016.267      807518.35449    621188.23347  22038015.566    22038021.581
       235.000         198.000
  23373778.457    -3134758.77049  -2415095.33746  23373776.492    23373786.369
       217.000         165.000
  21386414.952    -1713308.94749  -1321378.17147  21386415.255    21386420.230
       240.000         207.000
 98  6 12 15 40 45.0000000  0  7G 2G 4G 5G24G 7G 8G 9
  22926342.328      741839.64349    571433.22046  22926342.557    22926350.319
       221.000         175.000
  20604377.075    -1671169.45249  -1122513.84247  20604377.263    20604382.634
       236.000         201.000
  23353030.599    -2931893.91949  -2266469.58246  23353030.202    23353036.749
       221.000         168.000
  21600175.386    -3095252.66049  -2380063.01947  21600175.956    21600183.491
       235.000         197.000
  22041341.084      824989.64149    634802.19847  22041340.605    22041346.434
       235.000         198.000
  23362076.292    -3196251.08749  -2463011.39546  23362076.550    23362082.786
       218.000         166.000
  21380779.202    -1742926.15249  -1344456.51547  21380779.379    21380784.303
       239.000         206.000
 98  6 12 15 41  0.0000000  0  7G 2G 4G 5G24G 7G 8G 9
  22929602.255      758967.75049    584779.74446  22929601.527    22929609.899
       220.000         175.000
  20599219.311    -1698275.41649  -1143635.37247  20599219.608    20599224.705
       236.000         201.000
  23342533.309    -2987055.31849  -2309452.45946  23342532.446    23342539.845
       222.000         169.000
  21589461.441    -3151556.54649  -2423936.15847  21589461.893    21589469.412
       235.000         198.000
  22044682.418      842549.21149    648484.95247  22044681.840    22044687.815
       234.000         197.000
  23350402.950    -3257596.42649  -2510812.94146  23350402.563    23350409.132
       219.000         164.000
  21375180.962    -1772347.69949  -1367382.40747  21375180.572    21375185.626
       240.000         206.000
 98  6 12 15 41 15.0000000  0  7G 2G 4G 5G24G 7G 8G 9
  22932889.396      776237.11049    598236.35246  22932888.116    22932895.212
       221.000         175.000
  20594104.318    -1725154.22349  -1164579.90247  20594104.806    20594109.884
       236.000         202.000
  23332052.159    -3042128.90149  -2352366.91946  23332052.295    23332060.354
       221.000         169.000
  21578779.272    -3207694.39749  -2467679.91647  21578779.016    21578787.029
       235.000         198.000
  22048041.164      860202.01449    662240.35547  22048040.940    22048047.481
       234.000         197.000
  23338757.953    -3318788.82349  -2558495.29445  23338757.634    23338765.673
       216.000         162.000
  21369621.018    -1801566.12149  -1390150.01347  21369620.441    21369625.391
       240.000         206.000
 98  6 12 15 41 30.0000000  0  7G 2G 4G 5G24G 7G 8G 9
  22936200.472      793643.92949    611800.04946  22936200.509    22936208.213
       219.000         176.000
  20589032.372    -1751807.70849  -1185348.84247  20589032.161    20589038.101
       236.000         202.000
  23321588.790    -3097119.70649  -2395216.86546  23321587.932    23321595.004
       222.000         168.000
  21568127.782    -3263669.31049  -2511296.70947  21568127.084    21568135.438
       235.000         198.000
  22051416.690      877942.21549    676063.85847  22051416.345    22051423.383
       233.000         197.000
  23327141.849    -3379830.11149  -2606059.93245  23327141.619    23327147.836
       215.000         158.000
  21364098.142    -1830585.31349  -1412762.37247  21364098.333    21364103.158
       240.000         206.000
 98  6 12 15 41 45.0000000  0  7G 2G 4G 5G24G 7G 8G 9
  22939538.926      811187.22149    625470.10046  22939538.621    22939547.048
       219.000         177.000
  20584003.472    -1778235.06349  -1205941.58647  20584003.432    20584008.847
       236.000         201.000
  23311140.441    -3152029.08949  -2438003.41046  23311139.365    23311145.281
       223.000         167.000
  21557506.157    -3319485.75049  -2554790.02147  21557506.322    21557513.427
       237.000         199.000
  22054809.250      895767.68149    689953.79647  22054808.306    22054814.831
       234.000         196.000
  23315557.219    -3440716.63949  -2653503.98045  23315555.597    23315561.962
       217.000         160.000
  21358614.245    -1859403.31949  -1435217.97447  21358614.580    21358619.495
       240.000         206.000
 98  6 12 15 42  0.0000000  0  7G 2G 4G 5G24G 7G 8G 9
  22942903.335      828863.47949    639243.75746  22942902.619    22942910.457
       220.000         175.000
  20579017.330    -1804438.96349  -1226360.21147  20579017.161    20579022.203
       236.000         201.000
  23300705.836    -3206860.92449  -2480729.50946  23300705.107    23300712.312
       221.000         166.000
  21546913.652    -3375149.38349  -2598164.26047  21546913.575    21546920.927
       237.000         198.000
  22058217.462      913674.69849    703907.29147  22058216.263    22058222.198
       234.000         195.000
  23304000.724    -3501446.62949  -2700826.03146  23303999.981    23304005.782
       221.000         164.000
  21353169.612    -1888020.45449  -1457517.04747  21353168.969    21353174.190
       240.000         207.000
 98  6 12 15 42 14.9990000  0  7G 2G 4G 5G24G 7G 8G 9
  22946294.020      846678.83249    653125.81646  22946293.311    22946300.354
       221.000         174.000
  20574074.381    -1830410.26349  -1246597.58847  20574075.266    20574080.104
       236.000         201.000
  23290286.792    -3261606.84949  -2523388.65546  23290286.706    23290292.692
       221.000         166.000
  21536351.687    -3430650.42649  -2641411.80547  21536351.906    21536358.836
       237.000         199.000
  22061641.711      931670.26649    717929.78847  22061641.116    22061646.904
       234.000         196.000
  23292476.383    -3562006.36949  -2748015.42446  23292475.371    23292482.528
       220.000         165.000
  21347763.196    -1916427.19949  -1479652.18247  21347763.205    21347768.629
       240.000         207.000
 98  6 12 15 42 29.9990000  0  7G 2G 4G 5G24G 7G 8G 9
  22949711.725      864638.25649    667120.12146  22949711.031    22949718.461
       218.000         173.000
  20569176.735    -1856149.27449  -1266653.96047  20569176.905    20569182.382
       236.000         201.000
  23279883.486    -3316273.94949  -2565986.38446  23279883.234    23279891.349
       220.000         168.000
  21525820.383    -3485994.11149  -2684536.73847  21525820.085    21525827.441
       237.000         198.000
  22065084.218      949761.68249    732026.96547  22065083.670    22065089.687
       233.000         194.000
  23280982.871    -3622401.69249  -2795076.69946  23280982.907    23280990.222
       217.000         167.000
  21342398.125    -1944624.71049  -1501624.27647  21342397.339    21342402.768
       241.000         207.000
 98  6 12 15 42 44.9990000  0  7G 2G 4G 5G24G 7G 8G 9
  22953156.216      882736.69749    681222.74846  22953154.425    22953162.362
       220.000         172.000
  20564323.266    -1881656.15849  -1286529.45247  20564323.536    20564328.595
       237.000         202.000
  23269495.655    -3370864.32249  -2608524.31746  23269495.584    23269503.128
       222.000         172.000
  21515318.839    -3541181.31049  -2727539.72947  21515318.885    21515325.752
       237.000         199.000
  22068544.940      967944.62549    746195.46547  22068543.973    22068549.721
       233.000         194.000
  23269520.003    -3682635.80549  -2842012.33046  23269519.579    23269527.969
       215.000         166.000
  21337071.182    -1972614.99749  -1523434.89647  21337070.945    21337076.070
       240.000         207.000
 98  6 12 15 42 59.9990000  0  7G 2G 4G 5G24G 7G 8G 9
  22956624.127      900968.72549    695429.49246  22956624.089    22956631.563
       222.000         174.000
  20559512.944    -1906934.91349  -1306227.18447  20559513.219    20559518.058
       237.000         202.000
  23259121.260    -3425381.88549  -2651005.50546  23259122.064    23259129.118
       222.000         173.000
  21504846.611    -3596213.89249  -2770422.24747  21504846.562    21504852.959
       237.000         198.000
  22072020.615      986211.79149    760429.59147  22072019.624    22072026.036
       234.000         194.000
  23258086.967    -3742715.87049  -2888827.93846  23258087.365    23258095.165
       217.000         163.000
  21331783.422    -2000400.06849  -1545085.60247  21331783.374    21331788.935
       239.000         207.000
 98  6 12 15 43 14.9990000  0  7G 2G 4G 5G24G 7G 8G 9
  22960121.194      919338.34949    709743.42046  22960120.580    22960127.733
       221.000         175.000
  20554745.131    -1931987.53549  -1325748.70947  20554745.789    20554750.909
       237.000         203.000
  23248761.677    -3479824.28049  -2693428.12946  23248761.189    23248768.429
       223.000         173.000
  21494404.056    -3651086.74349  -2813180.28547  21494404.472    21494411.066
       237.000         198.000
  22075511.976     1004563.80049    774729.84547  22075512.081    22075518.212
       232.000         193.000
  23246684.827    -3802641.70849  -2935523.38146  23246683.799    23246689.911
       219.000         163.000
  21326536.705    -2027975.09749  -1566572.65147  21326536.143    21326541.360
       240.000         206.000
 98  6 12 15 43 29.9990000  0  7G 2G 4G 5G24G 7G 8G 9
  22963644.308      937849.31949    724167.51346  22963643.224    22963650.541
       222.000         174.000
  20550021.233    -1956812.83349  -1345093.09147  20550021.411    20550026.881
       236.000         202.000
  23238417.175    -3534187.38549  -2735788.97846  23238416.737    23238422.809
       223.000         170.000
  21483993.949    -3705794.09949  -2855809.37347  21483994.094    21484000.233
       237.000         197.000
  22079021.916     1023006.92249    789101.08347  22079021.056    22079027.749
       232.000         191.000
  23235311.438    -3862409.97249  -2982096.04445  23235310.878    23235315.829
       220.000         162.000
  21321330.206    -2055334.08449  -1587891.35347  21321329.949    21321335.375
       240.000         206.000
 98  6 12 15 43 44.9990000  0  7G 2G 4G 5G24G 7G 8G 9
  22967190.972      956496.71949    738697.90846  22967190.236    22967197.767
       217.000         172.000
  20545339.201    -1981417.82049  -1364265.80547  20545339.329    20545344.471
       235.000         202.000
  23228086.500    -3588477.81849  -2778093.20846  23228086.093    23228091.513
       221.000         167.000
  21473614.116    -3760341.84949  -2898314.09047  21473614.216    21473620.307
       238.000         199.000
  22082548.125     1041537.90049    803540.77747  22082547.504    22082553.918
       232.000         192.000
  23223967.425    -3922024.99149  -3028549.32546  23223966.425    23223972.049
       222.000         165.000
  21316164.134    -2082482.98849  -1609046.35547  21316163.814    21316168.835
       241.000         206.000
 98  6 12 15 43 59.9990000  0  7G 2G 4G 5G24G 7G 8G 9
  22970765.186      975281.14249    753335.05946  22970765.494    22970772.902
       217.000         172.000
  20540699.377    -2005803.13249  -1383267.34747  20540699.532    20540704.450
       237.000         203.000
  23217770.247    -3642691.59049  -2820337.70346  23217768.576    23217773.648
       225.000         167.000
  21463265.585    -3814727.02749  -2940692.13247  21463265.154    21463271.592
       239.000         199.000
  22086092.188     1060160.68449    818052.00447  22086091.795    22086098.011
       232.000         191.000
  23212652.554    -3981486.33049  -3074882.82946  23212652.266    23212658.518
       220.000         168.000
  21311038.269    -2109420.34449  -1630036.50547  21311037.875    21311043.439
       241.000         207.000
 98  6 12 15 44 14.9990000  0  7G 2G 4G 5G24G 7G 8G 9
  22974366.566      994204.04549    768080.14246  22974366.068    22974375.024
       218.000         172.000
  20536100.477    -2029968.52849  -1402097.52747  20536100.927    20536105.586
       238.000         203.000
  23207468.508    -3696826.14649  -2862520.46246  23207466.982    23207472.841
       225.000         169.000
  21452947.630    -3868944.17449  -2982939.24147  21452947.589    21452954.515
       239.000         199.000
  22089652.930     1078876.43649    832635.68347  22089652.753    22089659.265
       230.000         190.000
  23201365.606    -4040796.21149  -3121098.28146  23201364.664    23201373.027
       219.000         169.000
  21305952.000    -2136148.26049  -1650863.46347  21305951.796    21305956.913
       240.000         207.000
 98  6 12 15 44 29.9990000  0  7G 2G 4G 5G24G 7G 8G 9
  22977993.209     1013257.55549    782926.97646  22977992.458    22977999.472
       218.000         173.000
  20531542.306    -2053921.33449  -1420762.04747  20531542.573    20531547.670
       237.000         203.000
  23197180.838    -3750884.91249  -2904644.15946  23197181.148    23197187.044
       222.000         170.000
  21442662.080    -3922997.26149  -3025058.50747  21442661.666    21442668.634
       238.000         199.000
  22093231.442     1097680.70649    847288.33447  22093231.075    22093237.336
       230.000         190.000
  23190104.449    -4099964.25549  -3167203.21346  23190104.713    23190113.242
       216.000         167.000
  21300904.424    -2162672.55549  -1671531.75347  21300904.362    21300909.656
       240.000         207.000
 98  6 12 15 44 44.9990000  0  7G 2G 4G 5G24G 7G 8G 9
  22981644.204     1032441.04149    797875.10846  22981643.823    22981650.499
       220.000         174.000
  20527024.297    -2077661.35949  -1439260.76647  20527025.037    20527029.865
       237.000         203.000
  23186908.627    -3804867.08449  -2946708.16346  23186908.217    23186915.915
       223.000         173.000
  21432407.046    -3976886.44049  -3067050.05347  21432406.987    21432413.747
       238.000         199.000
  22096826.657     1116573.51749    862009.97047  22096826.308    22096832.988
       230.000         190.000
  23178872.497    -4158992.01749  -3213198.82846  23178871.906    23178879.760
       219.000         167.000
  21295895.763    -2188992.53449  -1692040.83447  21295895.866    21295901.124
       240.000         207.000
 98  6 12 15 44 59.9990000  0  7G 2G 4G 5G24G 7G 8G 9
  22985318.758     1051754.25449    812924.31346  22985317.913    22985325.834
       221.000         173.000
  20522548.264    -2101187.08249  -1457592.49747  20522548.575    20522553.249
       238.000         203.000
  23176652.849    -3858768.29549  -2988709.08346  23176651.710    23176658.309
       225.000         173.000
  21422184.425    -4030607.83449  -3108910.85947  21422183.899    21422190.983
       238.000         199.000
  22100438.993     1135554.77749    876800.53347  22100438.543    22100444.973
       228.000         190.000
  23167667.968    -4217873.37549  -3259080.38946  23167668.340    23167675.358
       220.000         169.000
  21290927.432    -2215104.92349  -1712388.16147  21290927.198    21290932.095
       241.000         207.000
 98  6 12 15 45 14.9990000  0  7G 2G 4G 5G24G 7G 8G 9
  22989019.836     1071199.17949    828076.15646  22989018.587    22989025.795
       221.000         174.000
  20518112.993    -2124496.93549  -1475756.01347  20518112.786    20518117.768
       238.000         203.000
  23166412.004    -3912586.90749  -3030645.64446  23166411.063    23166416.858
       223.000         172.000
  21411993.227    -4084160.07149  -3150639.85947  21411993.310    21412000.402
       238.000         199.000
  22104068.555     1154627.04149    891662.00947  22104068.083    22104074.593
       231.000         190.000
  23156493.564    -4276602.35449  -3304843.20746  23156492.400    23156499.011
       222.000         168.000
  21285998.475    -2241008.48249  -1732572.76247  21285997.854    21286003.075
       241.000         207.000
 98  6 12 15 45 29.9990000  0  7G 2G 4G 5G24G 7G 8G 9
  22992744.639     1090775.26049    843330.20846  22992744.319    22992751.655
       222.000         174.000
  20513717.910    -2147589.89449  -1493750.51947  20513718.203    20513723.429
       238.000         203.000
  23156184.087    -3966323.75549  -3072518.48346  23156183.578    23156192.099
       222.000         170.000
  21401834.745    -4137542.50549  -3192236.53747  21401834.931    21401842.111
       236.000         199.000
  22107716.981     1173791.90449    906595.64347  22107715.469    22107721.229
       232.000         190.000
  23145346.237    -4335177.80749  -3350486.43146  23145345.706    23145351.415
       219.000         166.000
  21281107.268    -2266706.94649  -1752597.54947  21281107.590    21281112.682
       241.000         207.000
 98  6 12 15 45 44.9990000  0  7G 2G 4G 5G24G 7G 8G 9
  22996495.308     1110482.01249    858686.08346  22996494.367    22996501.758
       221.000         174.000
  20509365.237    -2170463.50949  -1511574.11747  20509365.530    20509370.419
       237.000         203.000
  23145974.341    -4019980.97649  -3114329.29846  23145974.316    23145978.875
       223.000         168.000
  21391708.145    -4190757.05449  -3233702.39847  21391708.154    21391715.463
       236.000         198.000
  22111380.351     1193049.55949    921601.58547  22111379.789    22111386.024
       231.000         191.000
  23134227.735    -4393597.08549  -3396007.92646  23134228.630    23134235.979
       215.000         167.000
  21276255.950    -2292201.11849  -1772463.14647  21276255.910    21276261.437
       240.000         207.000
 98  6 12 15 45 59.9990000  0  7G 2G 4G 5G24G 7G 8G 9
  23000270.483     1130323.19849    874146.70646  23000269.137    23000277.007
       222.000         174.000
  20505054.501    -2193118.45749  -1529227.32447  20505054.348    20505059.186
       237.000         203.000
  23135778.477    -4073557.97549  -3156077.60046  23135777.758    23135783.562
       222.000         167.000
  21381614.054    -4243802.42849  -3275036.43847  21381613.932    21381621.683
       236.000         197.000
  22115063.449     1212400.82149    936680.45947  22115062.612    22115068.707
       231.000         191.000
  23123142.894    -4451858.02049  -3441406.02346  23123142.927    23123150.012
       219.000         169.000
  21271444.009    -2317489.10249  -1792168.07347  21271443.940    21271449.455
       240.000         207.000
 98  6 12 15 46 14.9990000  0  7G 2G 4G 5G24G 7G 8G 9
  23004070.712     1150294.24949    889708.50246  23004070.041    23004076.854
       219.000         172.000
  20500783.502    -2215560.42749  -1546714.56847  20500784.031    20500788.908
       237.000         203.000
  23125598.185    -4127060.18249  -3197767.62546  23125597.384    23125602.304
       224.000         169.000
  21371550.504    -4296686.79649  -3316245.01347  21371550.567    21371557.243
       237.000         197.000
  22118761.644     1231836.54949    951825.16047  22118761.048    22118766.815
       231.000         190.000
  23112084.269    -4509968.75649  -3486687.08046  23112084.520    23112091.403
       219.000         170.000
  21266670.220    -2342576.79649  -1811716.92547  21266669.775    21266675.211
       240.000         207.000
 98  6 12 15 46 29.9990000  0  7G 2G 4G 5G24G 7G 8G 9
  23007897.246     1170399.92649    905375.21746  23007896.136    23007902.482
       222.000         174.000
  20496554.637    -2237786.40449  -1564033.50547  20496554.772    20496559.835
       238.000         204.000
  23115430.430    -4180487.18849  -3239399.05546  23115430.892    23115436.239
       224.000         170.000
  21361517.876    -4349408.05249  -3357326.49947  21361517.636    21361524.806
       236.000         196.000
  22122477.208     1251357.32749    967036.13047  22122475.679    22122481.266
       233.000         191.000
  23101055.180    -4567925.79549  -3531848.38546  23101055.839    23101062.426
       220.000         170.000
  21261934.439    -2367461.46149  -1831107.58047  21261934.384    21261939.671
       239.000         207.000
 98  6 12 15 46 44.9990000  0  7G 2G 4G 5G24G 7G 8G 9
  23011749.085     1190640.67349    921147.18746  23011747.854    23011755.326
       223.000         175.000
  20492365.550    -2259798.27649  -1581185.61347  20492365.784    20492370.671
       238.000         204.000
  23105277.403    -4233842.42149  -3280974.53346  23105276.878    23105283.652
       224.000         173.000
  21351515.672    -4401969.82249  -3398283.70447  21351515.750    21351522.797
       237.000         198.000
  22126207.360     1270962.26149    982312.67347  22126206.561    22126212.563
       232.000         191.000
  23090056.599    -4625728.20549  -3576889.20846  23090055.614    23090061.979
       220.000         168.000
  21257237.557    -2392145.15049  -1850341.62847  21257237.209    21257242.413
       241.000         207.000
 98  6 12 15 46 59.9990000  0  7G 2G 4G 5G24G 7G 8G 9
  23015627.204     1211021.62849    937028.40346  23015626.933    23015633.656
       224.000         176.000
  20488217.830    -2281592.50049  -1598168.12247  20488218.385    20488223.342
       237.000         203.000
  23095137.616    -4287123.46949  -3322492.21746  23095137.797    23095145.016
       223.000         172.000
  21341544.960    -4454368.18749  -3439113.58147  21341544.714    21341551.616
       237.000         199.000
  22129953.764     1290651.29949    997654.76147  22129953.163    22129959.263
       233.000         191.000
  23079088.171    -4683367.54749  -3621802.96346  23079087.012    23079093.296
       220.000         166.000
  21252578.674    -2416625.48549  -1869417.22347  21252578.918    21252583.744
       240.000         207.000
 98  6 12 15 47 14.9990000  0  7G 2G 4G 5G24G 7G 8G 9
  23019530.902     1231536.32349    953013.82946  23019530.726    23019537.143
       222.000         175.000
  20484110.697    -2303177.93249  -1614987.93647  20484111.107    20484115.905
       237.000         204.000
  23085011.493    -4340338.02749  -3363958.08546  23085011.239    23085019.645
       221.000         172.000
  21331603.499    -4506609.26949  -3479820.89847  21331603.476    21331610.774
       237.000         199.000
  22133715.369     1310416.09949   1013055.87647  22133714.662    22133720.238
       232.000         192.000
  23068147.578    -4740852.09349  -3666596.10246  23068147.525    23068153.504
       218.000         164.000
  21247957.189    -2440909.93749  -1888340.17647  21247957.570    21247962.702
       240.000         207.000
 98  6 12 15 47 29.9990000  0  7G 2G 4G 5G24G 7G 8G 9
  23023460.519     1252185.87749    969104.34946  23023460.143    23023465.683
       224.000         175.000
  20480042.567    -2324557.25849  -1631647.14747  20480042.762    20480047.794
       238.000         204.000
  23074896.716    -4393489.48649  -3405374.78446  23074897.243    23074903.801
       222.000         171.000
  21321691.982    -4558695.03549  -3520407.19747  21321691.960    21321699.066
       237.000         199.000
  22137490.033     1330252.90749   1028513.10547  22137489.589    22137494.845
       233.000         191.000
  23057237.722    -4798186.91749  -3711272.57246  23057237.393    23057243.743
       220.000         166.000
  21243373.458    -2465002.94749  -1907113.96047  21243372.871    21243377.711
       241.000         207.000
 98  6 12 15 47 44.9990000  0  7G 2G 4G 5G24G 7G 8G 9
  23027414.999     1272969.06849    985299.00946  23027413.474    23027420.845
       222.000         171.000
  20476012.521    -2345734.29849  -1648148.73847  20476012.747    20476017.456
       238.000         204.000
  23064795.451    -4446578.29849  -3446742.67746  23064794.834    23064801.021
       224.000         171.000
  21311809.109    -4610627.23949  -3560873.82547  21311809.576    21311816.270
       236.000         198.000
  22141278.303     1350158.81349   1044024.18347  22141277.276    22141283.489
       232.000         191.000
  23046357.030    -4855374.87649  -3755834.60546  23046354.773    23046362.134
       221.000         168.000
  21238824.471    -2488905.27449  -1925739.15647  21238824.497    21238829.566
       240.000         208.000
 98  6 12 15 47 59.9990000  0  7G 2G 4G 5G24G 7G 8G 9
  23031396.542     1293891.90649   1001602.47446  23031396.297    23031403.312
       222.000         169.000
  20472022.493    -2366702.55349  -1664487.63847  20472022.788    20472027.495
       238.000         205.000
  23054705.292    -4499596.86049  -3488055.84146  23054704.497    23054710.871
       222.000         170.000
  21301957.828    -4662400.99949  -3601217.00447  21301957.440    21301963.745
       237.000         199.000
  22145080.230     1370140.11149   1059593.99847  22145079.709    22145084.843
       232.000         191.000
  23035503.413    -4912409.97449  -3800277.50546  23035502.410    23035508.953
       222.000         170.000
  21234313.802    -2512608.53949  -1944209.24647  21234314.113    21234319.518
       239.000         207.000
 98  6 12 15 48 14.9990000  0  7G 2G 4G 5G24G 7G 8G 9
  23035403.589     1314948.07049   1018009.84246  23035403.021    23035410.091
       222.000         169.000
  20468071.370    -2387463.37149  -1680664.89347  20468071.850    20468076.779
       237.000         204.000
  23044629.526    -4552546.68249  -3529315.43046  23044629.628    23044635.688
       222.000         169.000
  21292135.415    -4714018.28749  -3641438.24447  21292134.787    21292141.873
       237.000         198.000
  22148896.004     1390191.23949   1075218.22847  22148895.099    22148901.305
       232.000         192.000
  23024677.680    -4969295.26649  -3844603.68246  23024677.457    23024684.310
       221.000         171.000
  21229840.428    -2536117.33449  -1962527.79447  21229840.397    21229845.783
       240.000         207.000
 98  6 12 15 48 29.9990000  0  7G 2G 4G 5G24G 7G 8G 9
  23039435.247     1336137.00149   1034520.65646  23039435.599    23039442.111
       221.000         170.000
  20464161.763    -2408011.87749  -1696676.71647  20464161.778    20464166.796
       238.000         205.000
  23034567.420    -4605427.97649  -3570521.63146  23034566.352    23034572.742
       225.000         170.000
  21282343.345    -4765474.93949  -3681534.31247  21282343.060    21282350.075
       238.000         200.000
  22152725.411     1410314.26049   1090898.47647  22152724.950    22152730.896
       232.000         192.000
  23013881.745    -5026027.48249  -3888810.55946  23013881.918    23013888.588
       220.000         171.000
  21225404.647    -2559429.76749  -1980693.33447  21225404.157    21225409.282
       240.000         206.000
 98  6 12 15 48 44.9990000  0  7G 2G 4G 5G24G 7G 8G 9
  23043491.981     1357454.80649   1051131.90246  23043491.528    23043499.116
       221.000         171.000
  20460291.646    -2428349.59449  -1712524.28747  20460291.756    20460296.377
       237.000         204.000
  23024516.370    -4658243.69649  -3611676.71846  23024515.857    23024522.741
       223.000         172.000
  21272582.088    -4816771.44349  -3721505.59847  21272582.170    21272588.725
       240.000         202.000
  22156569.204     1430510.58949   1106635.85047  22156567.950    22156574.053
       233.000         193.000
  23003113.787    -5082606.64249  -3932898.19246  23003114.053    23003121.323
       218.000         167.000
  21221004.916    -2582547.92349  -1998707.49047  21221005.045    21221010.252
       240.000         206.000
 98  6 12 15 48 59.9990000  0  7G 2G 4G 5G24G 7G 8G 9
  23047571.755     1378891.93449   1067836.11546  23047572.517    23047578.443
       222.000         173.000
  20456460.887    -2448479.46849  -1728209.89847  20456461.086    20456466.308
       238.000         205.000
  23014477.661    -4710998.78149  -3652784.56346  23014476.424    23014484.265
       224.000         173.000
  21262851.103    -4867912.66149  -3761355.87647  21262850.614    21262856.748
       240.000         202.000
  22160425.380     1450776.63849   1122427.55347  22160424.166    22160430.654
       232.000         193.000
  22992375.245    -5139038.21549  -3976870.83146  22992374.909    22992382.184
       216.000         164.000
  21216642.534    -2605476.76949  -2016574.13147  21216642.136    21216647.203
       241.000         207.000
 98  6 12 15 49 14.9990000  0  7G 2G 4G 5G24G 7G 8G 9
  23051673.249     1400444.52649   1084630.27746  23051672.905    23051679.749
       221.000         173.000
  20452669.385    -2468403.80649  -1743735.35747  20452669.630    20452674.744
       238.000         205.000
  23004450.248    -4763693.73449  -3693845.55046  23004449.652    23004456.682
       223.000         174.000
  21253148.368    -4918898.81849  -3801085.32947  21253147.933    21253154.286
       240.000         203.000
  22164295.169     1471111.89249   1138273.18247  22164294.472    22164300.686
       233.000         194.000
  22981665.186    -5195325.45349  -4020731.01146  22981663.725    22981670.678
       219.000         165.000
  21212314.456    -2628216.45449  -2034293.37447  21212314.157    21212319.902
       240.000         206.000
 98  6 12 15 49 29.9990000  0  7G 2G 4G 5G24G 7G 8G 9
  23055797.710     1422119.89449   1101520.12546  23055796.866    23055805.061
       220.000         172.000
  20448918.835    -2488115.82949  -1759095.36647  20448918.979    20448923.353
       239.000         205.000
  22994435.236    -4816324.05649  -3734856.16846  22994434.507    22994441.046
       224.000         173.000
  21243476.495    -4969722.99449  -3840688.55747  21243476.508    21243482.602
       240.000         203.000
  22168180.067     1491526.46449   1154180.61147  22168179.456    22168185.393
       233.000         194.000
  22970982.607    -5251462.18249  -4064473.89446  22970982.937    22970988.427
       221.000         169.000
  21208024.860    -2650760.02349  -2051859.80147  21208024.466    21208029.914
       240.000         207.000
 98  6 12 15 49 44.9990000  0  7G 2G 4G 5G24G 7G 8G 9
  23059944.466     1443910.15049   1118499.48246  23059943.702    23059952.046
       221.000         173.000
  20445206.517    -2507623.34149  -1774296.02047  20445206.391    20445210.881
       238.000         205.000
  22984430.165    -4868897.04549  -3775822.13746  22984429.570    22984436.519
       223.000         171.000
  21233834.141    -5020393.24549  -3880171.85147  21233834.006    21233840.838
       240.000         203.000
  22172078.667     1512016.33749   1170146.72047  22172077.863    22172084.747
       232.000         193.000
  22960327.303    -5307454.94949  -4108104.60046  22960326.733    22960334.330
       221.000         172.000
  21203771.428    -2673114.00049  -2069278.49447  21203771.134    21203776.146
       241.000         207.000
 98  6 12 15 49 59.9990000  0  7G 2G 4G 5G24G 7G 8G 9
  23064111.970     1465810.99449   1135565.03146  23064112.293    23064117.998
       220.000         170.000
  20441533.112    -2526928.28949  -1789338.83447  20441533.202    20441537.858
       238.000         205.000
  22974434.476    -4921416.47049  -3816746.33446  22974435.591    22974442.483
       221.000         172.000
  21224220.127    -5070913.63049  -3919538.36647  21224220.056    21224226.660
       240.000         202.000
  22175991.992     1532579.36849   1186169.82947  22175990.892    22175997.236
       233.000         194.000
  22949699.429    -5363305.49949  -4151624.47146  22949698.958    22949706.370
       221.000         172.000
  21199554.085    -2695279.07349  -2086549.99047  21199553.139    21199558.425
       241.000         207.000
 98  6 12 15 50 14.9990000  0  7G 2G 4G 5G24G 7G 8G 9
  23068300.284     1487820.39949   1152715.17246  23068299.750    23068308.065
       220.000         172.000
  20437897.987    -2546028.42749  -1804222.05047  20437898.136    20437903.085
       238.000         205.000
  22964452.529    -4973882.99049  -3857629.32246  22964451.219    22964458.219
       224.000         172.000
  21214635.577    -5121283.99049  -3958787.98147  21214635.402    21214641.641
       240.000         202.000
  22179918.551     1553213.41649   1202248.28847  22179917.619    22179923.682
       233.000         194.000
  22939099.623    -5419013.61849  -4195033.37346  22939098.648    22939106.244
       221.000         172.000
  21195371.046    -2717256.18749  -2103675.02747  21195371.165    21195376.056
       240.000         207.000
 98  6 12 15 50 29.9990000  0  7G 2G 4G 5G24G 7G 8G 9
  23072509.787     1509940.95749   1169951.92346  23072509.218    23072517.491
       219.000         170.000
  20434301.211    -2564927.31249  -1818948.45447  20434301.521    20434306.933
       237.000         205.000
  22954478.505    -5026295.39949  -3898470.15746  22954477.406    22954485.136
       223.000         173.000
  21205078.674    -5171503.44249  -3997920.00547  21205078.642    21205085.376
       239.000         201.000
  22183858.627     1573918.17149   1218381.84147  22183857.835    22183863.576
       233.000         194.000
  22928523.151    -5474580.99049  -4238332.58046  22928523.884    22928532.477
       219.000         170.000
  21191224.868    -2739044.56349  -2120652.98747  21191224.747    21191230.108
       240.000         207.000
 98  6 12 15 50 44.9990000  0  7G 2G 4G 5G24G 7G 8G 9
  23076741.137     1532175.53849   1187277.52546  23076740.704    23076749.595
       219.000         170.000
  20430742.992    -2583626.54149  -1833519.28247  20430743.423    20430748.253
       237.000         205.000
  22944515.732    -5078652.05549  -3939267.53246  22944515.046    22944521.723
       225.000         175.000
  21195551.013    -5221571.43449  -4036934.00447  21195550.756    21195557.590
       239.000         200.000
  22187812.682     1594697.69949   1234573.65247  22187812.206    22187818.540
       233.000         194.000
  22917977.520    -5530009.46549  -4281523.57946  22917976.454    22917983.278
       223.000         170.000
  21187114.892    -2760642.64949  -2137482.67747  21187114.578    21187120.123
       240.000         207.000
 98  6 12 15 50 59.9990000  0  7G 2G 4G 5G24G 7G 8G 9
  23080992.106     1554516.07349   1204685.68646  23080991.666    23081000.609
       218.000         171.000
  20427221.623    -2602133.04549  -1847939.93247  20427221.691    20427226.550
       237.000         204.000
  22934561.991    -5130956.94049  -3980024.57146  22934561.635    22934567.807
       226.000         173.000
  21186050.503    -5271496.13049  -4075836.34147  21186050.455    21186056.906
       240.000         201.000
  22191779.389     1615542.93649   1250816.66747  22191778.555    22191785.295
       232.000         193.000
  22907454.777    -5585305.62549  -4324611.49146  22907453.717    22907459.643
       222.000         168.000
  21183040.528    -2782056.25849  -2154168.61047  21183039.825    21183045.144
       240.000         207.000
 98  6 12 15 51 14.9990000  0  7G 2G 4G 5G24G 7G 8G 9
  23085264.466     1576964.31649   1222177.76546  23085263.783    23085272.391
       218.000         171.000
  20423736.017    -2620448.63349  -1862211.81647  20423736.450    20423741.300
       238.000         205.000
  22924618.769    -5183207.60749  -4020739.36546  22924618.215    22924624.400
       223.000         170.000
  21176577.596    -5321278.44449  -4114627.74147  21176577.567    21176583.528
       240.000         201.000
  22195758.023     1636450.84549   1267108.52447  22195756.740    22195763.494
       232.000         192.000
  22896956.012    -5640469.24149  -4367596.12546  22896956.612    22896963.616
       222.000         169.000
  21179000.659    -2803283.58149  -2170709.38747  21179000.468    21179005.873
       240.000         207.000
 98  6 12 15 51 29.9990000  0  7G 2G 4G 5G24G 7G 8G 9
  23089554.968     1599517.77749   1239751.83246  23089554.943    23089563.297
       217.000         169.000
  20420286.683    -2638577.54349  -1876338.23447  20420286.586    20420291.631
       238.000         205.000
  22914686.438    -5235406.59749  -4061413.89346  22914685.228    22914691.698
       223.000         171.000
  21167129.566    -5370923.13749  -4153311.90447  21167129.915    21167136.471
       239.000         202.000
  22199746.212     1657412.21249   1283442.02447  22199745.991    22199752.630
       232.000         193.000
  22886484.780    -5695502.72149  -4410479.34746  22886484.113    22886490.935
       221.000         169.000
  21174995.484    -2824329.99849  -2187109.20047  21174995.499    21175000.905
       240.000         207.000
 98  6 12 15 51 44.9990000  0  7G 2G 4G 5G24G 7G 8G 9
  23093867.509     1622175.55349   1257407.18846  23093866.792    23093875.170
       216.000         169.000
  20416872.524    -2656519.32149  -1890318.83847  20416872.317    20416877.301
       238.000         205.000
  22904762.193    -5287553.65749  -4102047.94046  22904760.876    22904767.540
       222.000         170.000
  21157708.323    -5420433.89449  -4191891.70047  21157708.614    21157715.165
       239.000         202.000
  22203743.938     1678421.81549   1299813.11247  22203743.646    22203750.977
       231.000         192.000
  22876036.504    -5750407.54449  -4453262.29746  22876036.637    22876043.620
       221.000         172.000
  21171024.465    -2845199.25949  -2203370.97347  21171024.338    21171029.703
       240.000         207.000
 98  6 12 15 51 59.9990000  0  7G 2G 4G 5G24G 7G 8G 9
  23098197.485     1644935.38849   1275142.07546  23098198.263    23098206.429
       216.000         171.000
  20413493.739    -2674270.91549  -1904151.24547  20413493.952    20413499.119
       237.000         204.000
  22894849.507    -5339644.76549  -4142638.40846  22894849.225    22894855.617
       224.000         173.000
  21148313.173    -5469807.94249  -4230364.96647  21148313.228    21148319.897
       240.000         203.000
  22207750.877     1699476.86449   1316219.61247  22207750.659    22207757.264
       231.000         192.000
  22865614.228    -5805183.04349  -4495944.47246  22865613.453    22865619.450
       222.000         172.000
  21167086.665    -2865891.55249  -2219494.83847  21167086.576    21167092.281
       241.000         207.000
 98  6 12 15 52 14.9990000  0  7G 2G 4G 5G24G 7G 8G 9
  23102549.138     1667797.82249   1292956.91446  23102548.804    23102556.620
       218.000         171.000
  20410152.954    -2691829.90549  -1917833.57647  20410153.151    20410158.085
       238.000         205.000
  22884948.497    -5391675.43249  -4183181.76846  22884948.681    22884955.179
       225.000         175.000
  21138943.871    -5519043.36249  -4268730.19947  21138943.582    21138950.673
       238.000         201.000
  22211766.694     1720576.68149   1332660.99647  22211765.776    22211772.273
       232.000         193.000
  22855213.327    -5859827.70449  -4538524.69846  22855213.655    22855221.373
       220.000         172.000
  21163183.081    -2886406.35649  -2235480.40847  21163182.666    21163188.059
       240.000         207.000
 98  6 12 15 52 29.9990000  0  7G 2G 4G 5G24G 7G 8G 9
  23106920.068     1690763.64849   1310852.29546  23106919.358    23106927.616
       219.000         173.000
  20406848.033    -2709196.87149  -1931366.27747  20406848.297    20406852.910
       238.000         205.000
  22875059.247    -5443644.67649  -4223677.26246  22875059.558    22875065.523
       224.000         175.000
  21129601.410    -5568138.95149  -4306986.47447  21129600.985    21129608.014
       239.000         201.000
  22215789.817     1741723.69549   1349139.16147  22215789.628    22215796.473
       231.000         193.000
  22844841.189    -5914340.99949  -4581002.56046  22844840.808    22844848.440
       222.000         173.000
  21159312.549    -2906743.23749  -2251327.33447  21159313.171    21159317.773
       239.000         207.000
 98  6 12 15 52 44.9990000  0  7G 2G 4G 5G24G 7G 8G 9
  23111309.584     1713828.76649   1328825.05846  23111308.511    23111315.609
       220.000         172.000
  20403578.697    -2726378.72349  -1944754.72747  20403578.632    20403583.676
       238.000         205.000
  22865180.624    -5495560.22949  -4264130.92646  22865179.466    22865186.603
       224.000         175.000
  21120284.232    -5617101.04549  -4345138.73647  21120284.362    21120290.960
       239.000         199.000
  22219821.843     1762912.06749   1365649.56047  22219821.383    22219828.398
       231.000         193.000
  22834492.172    -5968727.81949  -4623381.88046  22834491.782    22834497.495
       223.000         171.000
  21155475.492    -2926910.00849  -2267041.70547  21155475.173    21155480.644
       241.000         207.000
 98  6 12 15 52 59.9990000  0  7G 2G 4G 5G24G 7G 8G 9
  23115717.345     1736989.91149   1346872.66146  23115715.979    23115723.318
       220.000         172.000
  20400344.003    -2743374.62649  -1957998.28147  20400344.197    20400349.360
       237.000         205.000
  22855311.571    -5547424.55649  -4304544.66646  22855310.234    22855317.501
       225.000         174.000
  21110992.516    -5665930.59249  -4383187.72747  21110992.536    21110998.659
       240.000         199.000
  22223861.527     1784138.43249   1382189.55347  22223861.028    22223868.198
       231.000         192.000
  22824165.777    -6022983.93349  -4665659.37346  22824166.891    22824172.413
       221.000         167.000
  21151668.992    -2946910.26849  -2282626.33447  21151669.077    21151674.745
       240.000         207.000
 98  6 12 15 53 14.9990000  0  7G 2G 4G 5G24G 7G 8G 9
  23120141.749     1760245.96949   1364994.20646  23120141.083    23120149.361
       218.000         172.000
  20397144.642    -2760185.60649  -1971097.74347  20397145.062    20397150.463
       237.000         205.000
  22845450.690    -5599237.57649  -4344918.41846  22845449.379    22845456.468
       223.000         172.000
  21101726.044    -5714627.52749  -4421133.38747  21101725.816    21101731.792
       240.000         199.000
  22227906.996     1805397.92949   1398755.36347  22227906.860    22227914.083
       232.000         193.000
  22813868.168    -6077108.58749  -4707834.43546  22813867.126    22813873.208
       222.000         168.000
  21147895.014    -2966746.75649  -2298083.34347  21147894.368    21147899.713
       240.000         207.000
 98  6 12 15 53 29.9990000  0  7G 2G 4G 5G24G 7G 8G 9
  23124583.885     1783591.74949   1383185.66846  23124584.154    23124592.058
       218.000         172.000
  20393980.039    -2776819.85649  -1984059.49447  20393980.094    20393984.900
       238.000         205.000
  22835599.021    -5651007.98349  -4385259.00546  22835597.536    22835603.980
       224.000         170.000
  21092482.425    -5763198.84349  -4458981.15447  21092482.491    21092489.147
       239.000         200.000
  22231958.465     1826685.96149   1415343.41147  22231957.948    22231964.801
       231.000         192.000
  22803591.078    -6131108.65349  -4749912.38946  22803590.543    22803597.756
       221.000         170.000
  21144149.070    -2986430.48349  -2313421.31647  21144148.744    21144153.869
       241.000         207.000
 98  6 12 15 53 44.9990000  0  7G 2G 4G 5G24G 7G 8G 9
  23129045.376     1807030.04849   1401449.22946  23129044.552    23129052.213
       221.000         173.000
  20390848.621    -2793274.75549  -1996881.49147  20390848.667    20390853.562
       237.000         205.000
  22825755.694    -5702736.47349  -4425566.90446  22825754.929    22825761.176
       224.000         171.000
  21083264.756    -5811640.05949  -4496727.53147  21083263.960    21083271.448
       239.000         201.000
  22236016.348     1848005.49149   1431956.00747  22236014.947    22236021.853
       232.000         192.000
  22793339.810    -6184983.40449  -4791892.70046  22793339.123    22793345.451
       221.000         169.000
  21140432.490    -3005959.89349  -2328639.04747  21140432.508    21140437.817
       240.000         207.000
 98  6 12 15 53 59.9990000  0  7G 2G 4G 5G24G 7G 8G 9
  23133523.421     1830563.18849   1419786.69446  23133522.643    23133529.969
       222.000         173.000
  20387751.251    -2809550.43549  -2009563.83547  20387751.464    20387756.594
       237.000         205.000
  22815920.057    -5754422.78749  -4465841.93846  22815919.505    22815925.511
       225.000         174.000
  21074071.127    -5859948.55749  -4534370.49347  21074071.336    21074078.287
       239.000         200.000
  22240079.488     1869363.15849   1448598.31247  22240078.898    22240085.599
       232.000         191.000
  22783111.470    -6238733.64749  -4833775.98446  22783111.130    22783117.748
       224.000         171.000
  21136747.194    -3025330.10349  -2343732.72547  21136746.662    21136751.929
       240.000         207.000
 98  6 12 15 54 14.9990000  0  7G 2G 4G 5G24G 7G 8G 9
  23138019.210     1854190.40849   1438197.47546  23138018.816    23138026.052
       221.000         174.000
  20384687.641    -2825650.54549  -2022109.36847  20384688.187    20384692.727
       238.000         205.000
  22806091.436    -5806069.45349  -4506086.08146  22806092.088    22806098.349
       224.000         175.000
  21064903.517    -5908124.78849  -4571910.39047  21064903.255    21064910.338
       239.000         200.000
  22244152.009     1890759.53049   1465270.78447  22244150.824    22244156.870
       232.000         191.000
  22772905.642    -6292360.48349  -4875563.10946  22772905.434    22772912.374
       222.000         172.000
  21133090.921    -3044540.63349  -2358701.97247  21133090.876    21133096.279
       240.000         207.000
 98  6 12 15 54 29.9990000  0  7G 2G 4G 5G24G 7G 8G 9
  23142531.967     1877912.69149   1456682.32446  23142532.449    23142540.271
       217.000         172.000
  20381656.762    -2841577.86849  -2034520.26747  20381656.723    20381662.137
       237.000         205.000
  22796270.159    -5857679.67449  -4546301.81346  22796270.025    22796277.388
       223.000         176.000
  21055761.032    -5956172.41949  -4609350.08847  21055760.705    21055767.199
       240.000         200.000
  22248231.100     1912194.14249   1481973.04847  22248229.668    22248236.354
       231.000         190.000
  22762725.597    -6345865.15249  -4917255.04246  22762724.182    22762731.033
       223.000         171.000
  21129465.685    -3063591.34149  -2373546.68947  21129465.786    21129471.039
       240.000         207.000
 98  6 12 15 54 44.9990000  0  7G 2G 4G 5G24G 7G 8G 9
  23147065.468     1901730.56549   1475241.65546  23147064.627    23147072.327
       218.000         172.000
  20378658.674    -2857331.63549  -2046795.92247  20378659.065    20378664.080
       237.000         205.000
  22786456.155    -5909256.35649  -4586491.41346  22786455.416    22786463.424
       223.000         175.000
  21046642.748    -6004087.94549  -4646686.85547  21046642.850    21046648.783
       240.000         200.000
  22252316.237     1933665.36249   1498703.84147  22252315.591    22252321.671
       231.000         190.000
  22752567.671    -6399246.44449  -4958850.84746  22752566.503    22752572.212
       224.000         171.000
  21125871.465    -3082482.96149  -2388267.43747  21125870.593    21125876.117
       240.000         207.000
 98  6 12 15 54 59.9990000  0  7G 2G 4G 5G24G 7G 8G 9
  23151615.626     1925641.66149   1493873.63246  23151614.214    23151623.764
       219.000         173.000
  20375694.036    -2872912.37549  -2058936.75347  20375694.355    20375699.326
       237.000         205.000
  22776646.494    -5960798.85949  -4626654.37746  22776647.171    22776654.898
       222.000         174.000
  21037549.550    -6051871.33749  -4683920.64847  21037549.863    21037555.876
       240.000         200.000
  22256409.168     1955173.52949   1515463.42447  22256408.025    22256414.767
       231.000         190.000
  22742431.125    -6452503.97949  -5000350.21846  22742431.363    22742438.922
       222.000         170.000
  21122306.064    -3101214.95149  -2402863.79847  21122306.127    21122311.564
       240.000         207.000
 98  6 12 15 55 14.9990000  0  7G 2G 4G 5G24G 7G 8G 9
  23156183.010     1949640.07349   1512573.63546  23156181.663    23156190.119
       216.000         169.000
  20372761.168    -2888323.98949  -2070945.79547  20372760.911    20372766.274
       236.000         204.000
  22766844.778    -6012311.46249  -4666794.05446  22766844.477    22766851.618
       223.000         172.000
  21028481.267    -6099527.68949  -4721055.45847  21028481.120    21028487.109
       240.000         200.000
  22260508.786     1976714.86549   1532248.85347  22260507.515    22260514.204
       231.000         190.000
  22732319.540    -6505645.32049  -5041759.03346  22732319.742    22732326.044
       223.000         171.000
  21118771.587    -3119788.88049  -2417336.99847  21118771.822    21118776.999
       240.000         207.000
 98  6 12 15 55 29.9990000  0  7G 2G 4G 5G24G 7G 8G 9
  23160765.224     1973725.86149   1531341.73746  23160765.366    23160773.828
       218.000         171.000
  20369859.724    -2903569.74649  -2082825.60047  20369860.024    20369865.355
       237.000         204.000
  22757048.163    -6063798.54649  -4706913.85046  22757047.236    22757052.747
       225.000         172.000
  21019435.982    -6147059.96549  -4758093.57647  21019435.902    21019442.203
       240.000         200.000
  22264613.882     1998290.12849   1549060.71547  22264613.091    22264619.492
       231.000         190.000
  22722228.853    -6558675.45849  -5083081.22946  22722228.334    22722233.682
       224.000         171.000
  21115267.183    -3138201.76649  -2431684.70547  21115267.475    21115273.501
       239.000         207.000
 98  6 12 15 55 44.9990000  0  7G 2G 4G 5G24G 7G 8G 9
  23165366.446     1997898.84849   1550177.80246  23165365.538    23165373.336
       219.000         172.000
  20366990.079    -2918651.14249  -2094577.33147  20366990.464    20366995.364
       237.000         205.000
  22747255.404    -6115261.79549  -4747015.07546  22747254.343    22747259.817
       225.000         173.000
  21010415.226    -6194466.73349  -4795033.89447  21010414.579    21010421.080
       240.000         201.000
  22268725.935     2019900.07449   1565899.61547  22268725.488    22268732.340
       230.000         190.000
  22712157.880    -6611593.91249  -5124316.37046  22712157.952    22712164.266
       223.000         173.000
  21111795.532    -3156450.92449  -2445904.83247  21111795.157    21111800.484
       240.000         207.000
 98  6 12 15 55 59.9990000  0  7G 2G 4G 5G24G 7G 8G 9
  23169980.929     2022151.16249   1569075.66646  23169980.095    23169989.780
       218.000         169.000
  20364150.418    -2933573.11949  -2106204.84847  20364150.498    20364155.667
       237.000         205.000
  22737464.538    -6166704.50249  -4787100.29246  22737464.559    22737470.660
       224.000         173.000
  21001416.352    -6241753.70349  -4831880.86547  21001416.459    21001422.321
       241.000         201.000
  22272843.508     2041538.99849   1582761.08547  22272843.485    22272849.868
       230.000         189.000
  22702107.332    -6664406.05449  -5165468.66146  22702107.107    22702113.404
       222.000         172.000
  21108353.718    -3174538.87149  -2459999.34347  21108353.364    21108358.511
       240.000         207.000
 98  6 12 15 56 14.9990000  0  7G 2G 4G 5G24G 7G 8G 9
  23174611.096     2046475.74049   1588029.84546  23174609.351    23174617.768
       219.000         168.000
  20361341.274    -2948337.31849  -2117709.41747  20361341.465    20361346.373
       237.000         205.000
  22727680.620    -6218127.96449  -4827170.51246  22727679.488    22727685.523
       226.000         176.000
  20992440.254    -6288923.97049  -4868636.90447  20992440.235    20992446.353
       241.000         202.000
  22276967.006     2063205.83449   1599644.29847  22276966.146    22276973.156
       231.000         190.000
  22692077.489    -6717111.50849  -5206537.83046  22692078.715    22692084.810
       223.000         172.000
  21104941.008    -3192471.22549  -2473972.61447  21104940.730    21104945.849
       240.000         207.000
 98  6 12 15 56 29.9990000  0  7G 2G 4G 5G24G 7G 8G 9
  23179253.098     2070874.95749   1607042.18546  23179252.101    23179259.813
       216.000         166.000
  20358562.130    -2962939.35349  -2129087.61947  20358562.426    20358567.501
       237.000         204.000
  22717896.812    -6269529.64849  -4867223.74246  22717897.241    22717904.756
       223.000         177.000
  20983487.246    -6335973.45749  -4905298.82247  20983486.914    20983493.225
       242.000         203.000
  22281096.004     2084903.82149   1616551.79547  22281095.589    22281102.111
       232.000         190.000
  22682070.447    -6769703.18649  -5247518.34646  22682070.731    22682075.796
       223.000         170.000
  21101558.220    -3210244.89549  -2487822.23747  21101558.297    21101563.513
       240.000         207.000
 98  6 12 15 56 44.9990000  0  7G 2G 4G 5G24G 7G 8G 9
  23183909.998     2095343.79749   1626108.75346  23183908.652    23183917.165
       217.000         167.000
  20355814.368    -2977380.31249  -2140340.31147  20355814.320    20355819.542
       236.000         204.000
  22708120.080    -6320914.25349  -4907263.66646  22708119.615    22708127.080
       224.000         176.000
  20974556.434    -6382906.40149  -4941869.93447  20974556.340    20974562.382
       243.000         204.000
  22285230.507     2106630.13849   1633481.36747  22285229.738    22285235.805
       231.000         189.000
  22672084.933    -6822183.73049  -5288412.27246  22672083.328    22672089.316
       223.000         171.000
  21098206.204    -3227862.96749  -2501550.60947  21098206.182    21098211.460
       241.000         207.000
 98  6 12 15 56 59.9990000  0  7G 2G 4G 5G24G 7G 8G 9
  23188579.525     2119883.36749   1645230.45746  23188579.055    23188586.646
       218.000         168.000
  20353096.704    -2991659.02749  -2151466.57747  20353097.177    20353102.324
       236.000         205.000
  22698344.717    -6372278.96149  -4947288.08946  22698345.639    22698352.331
       223.000         174.000
  20965647.709    -6429721.94349  -4978349.56147  20965647.451    20965653.883
       243.000         204.000
  22289370.318     2128386.57149   1650434.40047  22289370.183    22289376.152
       232.000         189.000
  22662120.188    -6874552.08349  -5329218.75946  22662119.174    22662125.048
       226.000         174.000
  21094882.456    -3245323.21349  -2515156.00047  21094883.144    21094888.723
       239.000         207.000
 98  6 12 15 57 14.9990000  0  7G 2G 4G 5G24G 7G 8G 9
  23193263.574     2144499.17049   1664411.55646  23193262.909    23193270.349
       218.000         167.000
  20350411.591    -3005771.98249  -2162463.68647  20350411.865    20350417.302
       237.000         205.000
  22688576.728    -6423615.42749  -4987290.52046  22688576.258    22688581.795
       224.000         174.000
  20956761.856    -6476416.37449  -5014734.81747  20956761.689    20956767.858
       243.000         203.000
  22293517.224     2150178.09349   1667414.77747  22293517.040    22293523.125
       231.000         189.000
  22652175.765    -6926803.41049  -5369934.06846  22652175.149    22652182.407
       223.000         174.000
  21091592.293    -3262618.08849  -2528632.53647  21091592.247    21091597.674
       240.000         207.000
 98  6 12 15 57 29.9990000  0  7G 2G 4G 5G24G 7G 8G 9
  23197962.936     2169191.90449   1683652.59646  23197961.863    23197969.405
       216.000         165.000
  20347757.178    -3019719.57449  -2173331.93447  20347757.441    20347763.069
       236.000         205.000
  22678813.211    -6474924.84449  -5027271.87346  22678812.555    22678816.924
       225.000         173.000
  20947899.958    -6522988.74949  -5051024.96647  20947899.365    20947905.089
       242.000         202.000
  22297670.960     2172002.11249   1684420.47647  22297669.802    22297676.340
       232.000         189.000
  22642253.202    -6978939.47149  -5410559.55846  22642253.441    22642261.848
       222.000         174.000
  21088331.889    -3279751.29149  -2541983.09347  21088331.991    21088337.270
       240.000         207.000
 98  6 12 15 57 44.9990000  0  7G 2G 4G 5G24G 7G 8G 9
  23202675.433     2193957.42049   1702950.36846  23202675.241    23202683.046
       214.000         164.000
  20345133.704    -3033504.21949  -2184073.21347  20345134.175    20345139.449
       235.000         204.000
  22669053.590    -6526209.17949  -5067233.67646  22669053.512    22669059.447
       225.000         174.000
  20939059.458    -6569443.25249  -5087223.25947  20939059.474    20939065.648
       242.000         203.000
  22301829.553     2193853.48749   1701447.49247  22301828.472    22301834.031
       232.000         189.000
  22632353.874    -7030960.60349  -5451095.47946  22632354.112    22632361.825
       222.000         173.000
  21085100.670    -3296730.82749  -2555213.90847  21085101.221    21085106.164
       240.000         207.000
 98  6 12 15 57 59.9990000  0  7G 2G 4G 5G24G 7G 8G 9
  23207402.112     2218794.39349   1722303.80446  23207401.589    23207408.942
       215.000         164.000
  20342542.670    -3047120.94549  -2194683.64947  20342543.159    20342548.284
       236.000         204.000
  22659299.419    -6577464.52349  -5107172.89446  22659299.863    22659305.938
       224.000         175.000
  20930242.211    -6615778.41749  -5123328.56347  20930241.994    20930248.173
       242.000         203.000
  22305992.678     2215731.85049   1718495.54347  22305991.302    22305997.868
       231.000         189.000
  22622478.308    -7082864.61749  -5491540.14446  22622476.725    22622484.840
       224.000         171.000
  21081899.075    -3313559.03449  -2568326.80547  21081898.821    21081904.056
       241.000         207.000
 98  6 12 15 58 14.9990000  0  7G 2G 4G 5G24G 7G 8G 9
  23212138.911     2243694.18849   1741706.20545  23212138.747    23212146.381
       212.000         160.000
  20339982.714    -3060575.82949  -2205167.97747  20339982.864    20339987.978
       236.000         205.000
  22649550.314    -6628698.86049  -5147095.72746  22649549.756    22649556.300
       224.000         177.000
  20921445.729    -6662004.21849  -5159348.64547  20921445.420    20921451.902
       242.000         204.000
  22310158.811     2237629.40649   1735558.54147  22310158.523    22310164.524
       232.000         188.000
  22612620.733    -7134660.95949  -5531900.91146  22612620.108    22612627.528
       224.000         171.000
  21078723.139    -3330246.20749  -2581329.80547  21078723.050    21078728.351
       240.000         207.000
 98  6 12 15 58 29.9990000  0  7G 2G 4G 5G24G 7G 8G 9
  23216891.524     2268665.89049   1761164.62345  23216890.316    23216899.499
       212.000         160.000
  20337453.580    -3073864.16049  -2215522.51847  20337453.939    20337459.400
       236.000         204.000
  22639806.637    -6679906.44749  -5186997.72946  22639806.367    22639812.577
       225.000         177.000
  20912671.626    -6708113.68249  -5195278.07547  20912671.119    20912677.209
       243.000         203.000
  22314330.199     2259549.94649   1752639.46247  22314329.435    22314336.319
       232.000         188.000
  22602786.828    -7186345.04249  -5572174.22146  22602786.575    22602791.068
       225.000         172.000
  21075576.148    -3346784.55649  -2594216.83947  21075576.176    21075581.248
       241.000         207.000
 98  6 12 15 58 44.9990000  0  7G 2G 4G 5G24G 7G 8G 9
  23221660.849     2293724.20049   1780690.52745  23221659.777    23221667.379
       214.000         161.000
  20334959.127    -3086975.05149  -2225738.79447  20334959.389    20334964.052
       236.000         204.000
  22630068.756    -6731074.21549  -5226868.68046  22630068.684    22630075.669
       226.000         177.000
  20903921.306    -6754096.57049  -5231108.88447  20903921.056    20903926.970
       243.000         204.000
  22318508.418     2281502.84449   1769745.58847  22318507.755    22318513.895
       233.000         188.000
  22592974.173    -7237908.04849  -5612353.19346  22592974.026    22592980.433
       224.000         172.000
  21072460.147    -3363161.29149  -2606977.94147  21072459.655    21072464.745
       242.000         207.000
 98  6 12 15 58 59.9990000  0  7G 2G 4G 5G24G 7G 8G 9
  23226444.260     2318860.45849   1800277.17946  23226443.299    23226451.170
       216.000         163.000
  20332495.590    -3099920.39949  -2235826.08147  20332495.983    20332500.834
       237.000         204.000
  22620338.498    -6782210.10649  -5266714.81646  22620337.481    22620344.522
       225.000         177.000
  20895192.907    -6799962.35549  -5266848.43347  20895192.607    20895199.178
       241.000         203.000
  22322688.916     2303475.34349   1786866.98446  22322688.842    22322694.722
       231.000         187.000
  22583183.854    -7289361.50149  -5652446.78546  22583182.964    22583188.215
       226.000         173.000
  21069371.443    -3379390.91249  -2619624.41147  21069371.207    21069376.236
       241.000         207.000
 98  6 12 15 59 14.9990000  0  7G 2G 4G 5G24G 7G 8G 9
  23231242.695     2344076.63949   1819926.10446  23231242.470    23231250.139
       218.000         165.000
  20330063.352    -3112701.11749  -2245785.07947  20330063.450    20330068.689
       237.000         204.000
  22610615.023    -6833312.80249  -5306535.08846  22610614.036    22610618.653
       225.000         175.000
  20886487.182    -6845708.56649  -5302494.81047  20886487.370    20886493.934
       241.000         203.000
  22326873.852     2325466.24149   1804002.71946  22326873.464    22326879.665
       231.000         186.000
  22573412.817    -7340704.38849  -5692454.21046  22573412.434    22573418.941
       223.000         174.000
  21066309.991    -3395476.50049  -2632158.64147  21066310.079    21066315.264
       240.000         207.000
 98  6 12 15 59 29.9990000  0  7G 2G 4G 5G24G 7G 8G 9
  23236055.154     2369368.34649   1839633.88246  23236054.166    23236062.647
       214.000         163.000
  20327662.762    -3125317.37549  -2255615.92647  20327662.948    20327667.915
       236.000         204.000
  22600893.954    -6884387.93349  -5346333.87146  22600894.131    22600899.819
       224.000         175.000
  20877804.511    -6891338.45449  -5338050.54347  20877804.484    20877810.985
       241.000         204.000
  22331061.660     2347473.51949   1821151.22446  22331061.075    22331068.114
       231.000         187.000
  22563663.292    -7391938.25849  -5732376.67446  22563662.643    22563669.590
       224.000         174.000
  21063276.253    -3411423.73049  -2644585.05947  21063275.691    21063280.861
       241.000         208.000
 98  6 12 15 59 44.9990000  0  7G 2G 4G 5G24G 7G 8G 9
  23240881.592     2394734.62349   1859399.77545  23240881.182    23240889.546
       212.000         162.000
  20325294.097    -3137766.64949  -2265316.66147  20325294.216    20325298.692
       237.000         204.000
  22591179.947    -6935437.43349  -5386112.69946  22591179.391    22591185.007
       225.000         175.000
  20869143.095    -6936853.23949  -5373516.58547  20869143.331    20869149.477
       242.000         203.000
  22335253.110     2369498.59149   1838313.59546  22335252.658    22335258.716
       230.000         186.000
  22553934.155    -7443061.78349  -5772213.17246  22553934.402    22553941.747
       222.000         173.000
  21060267.838    -3427231.86949  -2656903.09747  21060267.360    21060272.748
       241.000         207.000
 98  6 12 15 59 59.9990000  0  7G 2G 4G 5G24G 7G 8G 9
  23245721.647     2420174.34049   1879222.88045  23245721.800    23245731.087
       212.000         161.000
  20322955.473    -3150051.38049  -2274889.17547  20322956.057    20322960.602
       236.000         196.000
  22581471.890    -6986460.16649  -5425870.66946  22581471.189    22581476.032
       227.000         168.000
  20860504.003    -6982252.85549  -5408892.89147  20860503.793    20860509.961
       241.000         196.000
  22339447.313     2391542.12049   1855490.34946  22339447.915    22339453.987
       229.000         179.000
  22544227.109    -7494072.63249  -5811961.85346  22544226.028    22544234.115
       223.000         166.000
  21057286.656    -3442897.05249  -2669109.74047  21057286.190    21057291.860
       241.000         200.000
 98  6 12 16  0 14.9990000  0  7G 2G 4G 5G24G 7G 8G 9
  23250578.253     2445688.62849   1899104.08746  23250577.498    23250585.619
       214.000         165.000
  20320648.994    -3162174.70749  -2284335.91947  20320649.471    20320654.160
       236.000         204.000
  22571767.074    -7037456.56849  -5465608.10446  22571766.139    22571773.717
       225.000         178.000
  20851887.352    -7027533.80249  -5444176.72647  20851887.069    20851893.164
       241.000         202.000
  22343646.905     2413606.49249   1872683.34447  22343646.332    22343652.768
       231.000         188.000
  22534540.635    -7544970.34149  -5851622.39246  22534541.670    22534547.305
       223.000         175.000
  21054333.775    -3458413.70549  -2681200.64447  21054333.669    21054338.668
       241.000         207.000
 98  6 12 16  0 29.9990000  0  7G 2G 4G 5G24G 7G 8G 9
  23255446.634     2471274.26449   1919040.89546  23255446.798    23255454.765
       217.000         167.000
  20318371.166    -3174143.08349  -2293661.92747  20318371.604    20318376.849
       236.000         204.000
  22562066.765    -7088430.41449  -5505327.95946  22562065.846    22562074.014
       226.000         179.000
  20843292.902    -7072698.14749  -5479369.70147  20843292.829    20843299.044
       242.000         204.000
  22347848.336     2435688.40149   1889889.98247  22347847.998    22347855.297
       230.000         188.000
  22524878.041    -7595757.76049  -5891196.99446  22524877.232    22524883.533
       226.000         173.000
  21051409.384    -3473783.87149  -2693177.40847  21051408.971    21051413.940
       241.000         207.000
 98  6 12 16  0 44.9990000  0  7G 2G 4G 5G24G 7G 8G 9
  23260330.288     2496926.65349   1939029.72446  23260328.096    23260335.907
       219.000         168.000
  20316122.317    -3185960.93149  -2302870.63647  20316122.657    20316128.005
       236.000         204.000
  22552369.719    -7139386.02349  -5545033.59946  22552369.337    22552377.494
       225.000         179.000
  20834720.069    -7117749.93549  -5514474.96647  20834720.016    20834726.411
       242.000         204.000
  22352052.927     2457783.82249   1907107.16947  22352052.358    22352059.226
       230.000         188.000
  22515233.589    -7646435.58349  -5930686.20346  22515233.719    22515238.721
       225.000         174.000
  21048510.922    -3489013.13049  -2705044.36547  21048510.812    21048516.134
       240.000         207.000
 98  6 12 16  0 59.9990000  0  7G 2G 4G 5G24G 7G 8G 9
  23265222.703     2522644.57649   1959069.61645  23265221.697    23265229.132
       214.000         161.000
  20313902.111    -3197629.25049  -2311962.83547  20313902.416    20313907.746
       236.000         205.000
  22542675.855    -7190325.15949  -5584726.40746  22542675.619    22542682.979
       227.000         177.000
  20826168.581    -7162687.11949  -5549490.92847  20826168.458    20826175.052
       242.000         203.000
  22356261.367     2479892.19249   1924334.43947  22356259.678    22356266.620
       232.000         188.000
  22505611.429    -7697001.80249  -5970088.45646  22505610.709    22505616.449
       225.000         174.000
  21045639.389    -3504102.32449  -2716802.19047  21045639.465    21045644.730
       241.000         208.000
 98  6 12 16  1 14.9990000  0  7G 2G 4G 5G24G 7G 8G 9
  23270128.869     2548429.58249   1979161.80146  23270128.786    23270136.816
       219.000         165.000
  20311711.270    -3209144.60349  -2320935.83547  20311711.442    20311716.477
       237.000         205.000
  22532986.074    -7241244.72049  -5624403.98346  22532986.146    22532992.507
       226.000         177.000
  20817639.760    -7207505.55649  -5584414.36747  20817639.644    20817646.058
       241.000         203.000
  22360470.643     2502016.43449   1941574.07347  22360470.073    22360476.870
       232.000         189.000
  22496013.804    -7747449.14349  -6009398.06646  22496011.988    22496017.605
       225.000         174.000
  21042796.403    -3519044.54249  -2728445.47947  21042795.878    21042801.320
       240.000         207.000
 98  6 12 16  1 29.9990000  0  7G 2G 4G 5G24G 7G 8G 9
  23275048.703     2574279.92149   1999304.89446  23275047.605    23275056.103
       214.000         166.000
  20309548.546    -3220506.39449  -2329789.18447  20309548.922    20309554.024
       236.000         204.000
  22523301.287    -7292146.28049  -5664067.53546  22523301.239    22523306.146
       227.000         178.000
  20809133.662    -7252204.86149  -5619244.97647  20809134.009    20809140.270
       241.000         203.000
  22364683.912     2524157.57349   1958826.87947  22364683.287    22364690.420
       231.000         189.000
  22486433.985    -7797777.42549  -6048614.88646  22486434.450    22486440.892
       223.000         174.000
  21039982.821    -3533832.53549  -2739968.59947  21039982.203    21039987.529
       241.000         208.000
 98  6 12 16  1 44.9990000  0  7G 2G 4G 5G24G 7G 8G 9
  23279978.520     2600189.37949   2019494.01846  23279978.415    23279987.020
       217.000         168.000
  20307413.812    -3231724.17549  -2338530.30747  20307414.332    20307419.373
       235.000         204.000
  22513616.239    -7343036.18849  -5703722.00046  22513615.911    22513622.575
       226.000         178.000
  20800649.616    -7296790.96449  -5653987.38147  20800649.603    20800655.673
       242.000         203.000
  22368898.787     2546307.58749   1976086.58947  22368898.304    22368905.438
       231.000         190.000
  22476877.997    -7847993.97649  -6087744.64746  22476877.898    22476885.546
       225.000         176.000
  21037196.903    -3548469.33349  -2751373.90147  21037196.848    21037202.330
       241.000         208.000
 98  6 12 16  1 59.9990000  0  7G 2G 4G 5G24G 7G 8G 9
  23284922.064     2626162.18849   2039732.53046  23284921.476    23284930.157
       219.000         171.000
  20305306.762    -3242799.28349  -2347160.26347  20305307.019    20305312.005
       237.000         204.000
  22503935.271    -7393908.39049  -5743362.65646  22503935.542    22503942.159
       225.000         179.000
  20792187.104    -7341260.84649  -5688639.22747  20792186.915    20792193.296
       242.000         203.000
  22373115.634     2568468.17149   1993354.55347  22373116.066    22373122.305
       230.000         190.000
  22467344.832    -7898095.65549  -6126784.87246  22467343.933    22467351.940
       227.000         177.000
  21034441.263    -3562950.84349  -2762658.20047  21034440.995    21034446.472
       240.000         208.000
 98  6 12 16  2 14.9990000  0  7G 2G 4G 5G24G 7G 8G 9
  23289877.901     2652199.76649   2060021.50546  23289876.556    23289885.033
       220.000         171.000
  20303225.653    -3253731.92949  -2355679.20747  20303226.368    20303231.472
       235.000         204.000
  22494259.162    -7444763.16849  -5782989.73646  22494258.111    22494265.672
       227.000         180.000
  20783747.542    -7385612.44149  -5723198.90147  20783747.070    20783753.502
       242.000         203.000
  22377334.568     2590637.01349   2010628.93847  22377333.951    22377341.543
       231.000         190.000
  22457833.161    -7948082.85849  -6165735.92446  22457831.611    22457839.745
       227.000         176.000
  21031714.814    -3577277.55749  -2773821.87747  21031714.854    21031720.162
       241.000         208.000
 98  6 12 16  2 29.9990000  0  7G 2G 4G 5G24G 7G 8G 9
  23294844.819     2678304.49749   2080362.80046  23294843.306    23294851.424
       217.000         169.000
  20301172.980    -3264517.42949  -2364083.49647  20301174.106    20301179.184
       236.000         204.000
  22484584.293    -7495596.06349  -5822599.76246  22484584.290    22484591.876
       225.000         180.000
  20775330.397    -7429843.04249  -5757664.29447  20775330.495    20775337.018
       242.000         203.000
  22381555.816     2612816.94649   2027911.97247  22381554.961    22381562.225
       231.000         190.000
  22448341.459    -7997954.35649  -6204596.82246  22448342.037    22448347.802
       225.000         173.000
  21029017.737    -3591450.12849  -2784865.44447  21029017.628    21029023.032
       241.000         208.000
 98  6 12 16  2 44.9990000  0  7G 2G 4G 5G24G 7G 8G 9
  23299822.751     2704469.52349   2100751.07146  23299822.475    23299831.036
       215.000         167.000
  20299148.427    -3275161.22949  -2372377.36647  20299148.505    20299153.787
       236.000         204.000
  22474915.443    -7546415.73449  -5862199.49246  22474914.980    22474921.468
       228.000         180.000
  20766934.733    -7473961.82449  -5792042.54947  20766934.926    20766941.520
       242.000         204.000
  22385776.338     2635000.02649   2045197.46647  22385776.114    22385783.453
       231.000         190.000
  22438873.658    -8047718.82849  -6243374.34046  22438872.377    22438876.412
       227.000         172.000
  21026348.508    -3605480.44349  -2795798.16647  21026347.868    21026353.237
       241.000         208.000
 98  6 12 16  2 59.9990000  0  7G 2G 4G 5G24G 7G 8G 9
  23304813.691     2730701.75249   2121191.72546  23304814.028    23304821.912
       215.000         166.000
  20297150.043    -3285659.78049  -2380558.05247  20297150.989    20297156.227
       235.000         204.000
  22465247.088    -7597218.17849  -5901785.79146  22465246.559    22465252.935
       227.000         178.000
  20758562.182    -7517962.16849  -5826328.51447  20758562.072    20758568.365
       243.000         205.000
  22389999.448     2657193.27349   2062490.86347  22389998.893    22390006.239
       230.000         190.000
  22429423.284    -8097371.48449  -6282064.71446  22429421.614    22429427.699
       224.000         172.000
  21023707.397    -3619360.84549  -2806614.07347  21023706.860    21023712.051
       241.000         208.000
 98  6 12 16  3 14.9990000  0  7G 2G 4G 5G24G 7G 8G 9
  23309818.613     2756999.96849   2141683.78646  23309818.100    23309826.359
       212.000         164.000
  20295180.251    -3296014.59949  -2388626.74547  20295180.485    20295185.364
       236.000         204.000
  22455584.672    -7648003.78549  -5941358.98346  22455583.417    22455588.051
       230.000         179.000
  20750211.144    -7561848.04549  -5860525.29147  20750210.925    20750216.817
       244.000         205.000
  22394224.283     2679394.18249   2079790.24447  22394223.514    22394231.123
       230.000         189.000
  22419995.450    -8146914.82849  -6320669.90446  22419995.107    22420001.929
       226.000         173.000
  21021093.574    -3633092.32949  -2817313.93547  21021093.451    21021098.857
       240.000         208.000
 98  6 12 16  3 29.9990000  0  7G 2G 4G 5G24G 7G 8G 9
  23314836.621     2783367.79249   2162230.06946  23314836.068    23314844.583
       214.000         166.000
  20293238.224    -3306218.98049  -2396578.21647  20293238.475    20293243.655
       236.000         204.000
  22445922.782    -7698769.14649  -5980916.39346  22445922.161    22445927.897
       228.000         179.000
  20741881.386    -7605617.93649  -5894631.69247  20741881.634    20741887.144
       243.000         204.000
  22398451.070     2701608.28449   2097099.89947  22398450.934    22398458.425
       229.000         188.000
  22410590.440    -8196345.72649  -6359187.47146  22410588.614    22410595.632
       228.000         176.000
  21018508.756    -3646675.31849  -2827898.09147  21018508.523    21018513.974
       241.000         208.000
 98  6 12 16  3 44.9990000  0  7G 2G 4G 5G24G 7G 8G 9
  23319868.675     2809809.50149   2182833.93446  23319867.332    23319877.091
       214.000         166.000
  20291325.264    -3316270.13649  -2404410.28647  20291325.720    20291331.320
       235.000         204.000
  22436267.281    -7749510.33649  -6020454.98046  22436266.670    22436272.775
       228.000         180.000
  20733575.508    -7649266.74649  -5928643.74147  20733575.249    20733581.408
       243.000         204.000
  22402682.313     2723842.35649   2114425.11847  22402682.284    22402689.219
       229.000         188.000
  22401205.927    -8245661.35449  -6397615.21246  22401204.565    22401211.709
       228.000         178.000
  21015952.293    -3660112.34449  -2838368.51047  21015951.717    21015957.180
       241.000         208.000
 98  6 12 16  3 59.9990000  0  7G 2G 4G 5G24G 7G 8G 9
  23324914.028     2836319.98649   2203491.38246  23324913.273    23324921.302
       216.000         167.000
  20289442.107    -3326169.75949  -2412124.28547  20289442.158    20289447.514
       236.000         204.000
  22426615.372    -7800231.25149  -6059977.74146  22426615.111    22426621.293
       228.000         181.000
  20725291.268    -7692798.60549  -5962564.65047  20725291.082    20725297.783
       243.000         204.000
  22406917.450     2746093.06049   2131763.29946  22406916.294    22406923.582
       229.000         187.000
  22391842.379    -8294865.13349  -6435955.79246  22391841.831    22391848.570
       227.000         177.000
  21013421.567    -3673413.43449  -2848733.00347  21013420.776    21013426.161
       241.000         208.000
 98  6 12 16  4 14.9990000  0  7G 2G 4G 5G24G 7G 8G 9
  23329969.819     2862895.13749   2224199.24945  23329968.297    23329976.988
       211.000         161.000
  20287587.324    -3335917.68849  -2419720.07847  20287587.130    20287592.167
       236.000         204.000
  22416967.272    -7850932.28449  -6099485.02446  22416966.391    22416973.638
       228.000         181.000
  20717029.704    -7736212.95249  -5996393.99747  20717029.908    20717036.415
       243.000         204.000
  22411153.952     2768358.37149   2149112.85646  22411152.982    22411160.511
       229.000         187.000
  22382500.515    -8343956.51449  -6474208.80646  22382500.176    22382506.697
       227.000         177.000
  21010915.312    -3686582.00649  -2858994.23847  21010915.035    21010920.489
       241.000         208.000
 98  6 12 16  4 29.9990000  0  7G 2G 4G 5G24G 7G 8G 9
  23335040.053     2889539.96949   2244961.38845  23335040.821    23335048.449
       213.000         162.000
  20285762.236    -3345507.17749  -2427192.40647  20285762.537    20285767.399
       236.000         204.000
  22407324.059    -7901609.04349  -6138973.37946  22407323.259    22407329.385
       229.000         181.000
  20708792.367    -7779502.93549  -6030126.44647  20708792.643    20708798.050
       243.000         204.000
  22415395.062     2790644.40149   2166478.56446  22415394.109    22415401.715
       228.000         186.000
  22373181.303    -8392931.94949  -6512371.47446  22373179.755    22373186.736
       227.000         175.000
  21008434.349    -3699615.25049  -2869150.01447  21008434.584    21008439.919
       240.000         208.000
 98  6 12 16  4 44.9990000  0  7G 2G 4G 5G24G 7G 8G 9
  23340123.314     2916251.19149   2265775.25845  23340123.018    23340131.714
       211.000         160.000
  20283966.223    -3354942.65249  -2434544.72547  20283966.468    20283971.918
       235.000         204.000
  22397683.746    -7952265.08249  -6178445.60346  22397683.503    22397690.226
       228.000         180.000
  20700577.712    -7822673.12149  -6063765.54347  20700577.207    20700583.342
       244.000         204.000
  22419639.760     2812948.97949   2183858.71546  22419638.405    22419646.025
       229.000         186.000
  22363882.461    -8441795.11549  -6550446.65646  22363881.721    22363886.820
       227.000         174.000
  21005979.419    -3712518.16049  -2879204.24147  21005979.536    21005984.811
       241.000         208.000
 98  6 12 16  4 59.9990000  0  7G 2G 4G 5G24G 7G 8G 9
  23345219.962     2943027.47449   2286639.85545  23345219.194    23345227.650
       213.000         162.000
  20282199.484    -3364226.74949  -2441779.08747  20282199.927    20282204.814
       236.000         203.000
  22388046.310    -8002906.34049  -6217906.31846  22388046.823    22388052.722
       228.000         180.000
  20692384.242    -7865728.01349  -6097314.79447  20692384.175    20692390.649
       243.000         205.000
  22423885.967     2835266.70449   2201249.12246  22423885.422    22423892.798
       229.000         186.000
  22354605.874    -8490547.71049  -6588435.69746  22354604.841    22354609.351
       227.000         172.000
  21003549.009    -3725291.15349  -2889157.23247  21003549.107    21003554.159
       241.000         208.000
 98  6 12 16  5 14.9990000  0  8G16G 2G 4G 5G24G 7G 8G 9
  24398936.763    -3930203.46459  -3044982.17755  24398934.983    24398944.916
       206.000         147.000
  23350327.726     2969867.26449   2307553.90145  23350326.421    23350335.067
       212.000         161.000
  20280462.510    -3373358.04849  -2448894.39147  20280462.594    20280467.280
       236.000         203.000
  22378413.043    -8053531.82349  -6257354.74346  22378412.888    22378418.383
       227.000         179.000
  20684212.785    -7908668.27249  -6130774.71547  20684213.037    20684219.218
       243.000         205.000
  22428134.403     2857593.46749   2218646.56346  22428134.093    22428141.523
       228.000         184.000
  22345348.455    -8539189.01949  -6626338.00846  22345347.478    22345353.332
       226.000         173.000
  21001142.369    -3737936.53149  -2899010.77547  21001142.480    21001147.764
       241.000         208.000
 98  6 12 16  5 29.9990000  0  8G16G 2G 4G 5G24G 7G 8G 9
  24394812.514    -3951876.57549  -3061870.29645  24394812.152    24394821.197
       210.000         152.000
  23355448.350     2996779.60949   2328524.50145  23355447.882    23355455.425
       211.000         159.000
  20278756.505    -3382321.26149  -2455878.71447  20278756.773    20278761.850
       235.000         203.000
  22368785.480    -8104128.50549  -6296780.70046  22368784.906    22368791.211
       228.000         180.000
  20676065.872    -7951483.10249  -6164136.90647  20676065.567    20676072.176
       242.000         205.000
  22432386.018     2879938.36649   2236058.13346  22432386.002    22432393.598
       227.000         185.000
  22336115.294    -8587708.12149  -6664145.08146  22336115.333    22336120.835
       227.000         175.000
  20998762.368    -3750446.18549  -2908758.57347  20998761.990    20998767.409
       241.000         208.000
 98  6 12 16  5 44.9990000  0  8G16G 2G 4G 5G24G 7G 8G 9
  24390709.020    -3973442.53149  -3078674.91045  24390707.505    24390718.110
       208.000         154.000
  23360582.023     3023757.68849   2349546.34545  23360581.368    23360588.808
       209.000         156.000
  20277081.646    -3391125.48649  -2462739.14647  20277081.395    20277086.671
       235.000         204.000
  22359162.545    -8154701.36349  -6336188.12446  22359161.072    22359167.795
       229.000         182.000
  20667941.674    -7994174.16149  -6197402.65047  20667941.752    20667947.967
       241.000         204.000
  22436640.978     2902295.38649   2253479.15246  22436640.121    22436648.255
       227.000         184.000
  22326904.366    -8636111.77349  -6701862.20246  22326903.966    22326911.459
       226.000         178.000
  20996406.688    -3762823.44049  -2918403.19147  20996407.022    20996412.219
       241.000         208.000
 98  6 12 16  5 59.9990000  0  8G16G 2G 4G 5G24G 7G 8G 9
  24386624.241    -3994905.41249  -3095399.19345  24386622.859    24386632.696
       208.000         154.000
  23365726.336     3050797.65549   2370616.39645  23365725.773    23365734.723
       206.000         153.000
  20275435.473    -3399774.87249  -2469478.92747  20275435.819    20275440.592
       236.000         204.000
  22349542.572    -8205251.99649  -6375578.19046  22349541.432    22349549.548
       229.000         182.000
  20659840.181    -8036747.31249  -6230576.51947  20659839.889    20659846.327
       241.000         204.000
  22440896.649     2924658.16649   2270904.66046  22440895.955    22440904.048
       228.000         186.000
  22317713.891    -8684405.16749  -6739493.40046  22317713.992    22317721.859
       226.000         179.000
  20994077.240    -3775066.94149  -2927943.59047  20994076.574    20994081.815
       241.000         208.000
 98  6 12 16  6 14.9990000  0  8G16G 2G 4G 5G24G 7G 8G 9
  24382559.029    -4016258.88749  -3112038.23145  24382559.188    24382570.357
       206.000         152.000
  23370883.333     3077905.24049   2391739.12945  23370883.396    23370893.884
       203.000         152.000
  20273818.978    -3408266.03249  -2476095.42247  20273819.560    20273825.090
       235.000         204.000
  22339927.829    -8255774.59949  -6414946.43846  22339927.500    22339934.872
       227.000         182.000
  20651761.438    -8079200.54649  -6263656.95047  20651761.347    20651767.425
       240.000         204.000
  22445153.834     2947028.52349   2288336.07046  22445153.046    22445160.631
       227.000         185.000
  22308545.946    -8732584.66949  -6777035.85146  22308545.595    22308553.220
       226.000         179.000
  20991774.169    -3787167.74149  -2937372.79547  20991774.205    20991779.696
       241.000         208.000
 98  6 12 16  6 29.9990000  0  8G16G 2G 4G 5G24G 7G 8G 9
  24378520.406    -4037495.47349  -3128586.20345  24378519.259    24378529.552
       209.000         151.000
  23376058.081     3105089.51649   2412921.58845  23376057.455    23376066.972
       206.000         154.000
  20272234.938    -3416592.27949  -2482583.41147  20272235.049    20272240.472
       234.000         204.000
  22330320.327    -8306262.36049  -6454287.52646  22330320.304    22330327.022
       228.000         181.000
  20643706.030    -8121531.39749  -6296642.00947  20643706.164    20643712.272
       240.000         203.000
  22449412.977     2969414.11449   2305779.35146  22449412.699    22449420.593
       227.000         185.000
  22299399.662    -8780644.13949  -6814484.76346  22299400.234    22299408.674
       226.000         178.000
  20989500.308    -3799117.84049  -2946684.56547  20989500.325    20989505.664
       242.000         208.000
 98  6 12 16  6 44.9990000  0  8G16G 2G 4G 5G24G 7G 8G 9
  24374497.608    -4058619.31749  -3145046.32045  24374499.520    24374508.442
       206.000         152.000
  23381245.931     3132346.47549   2434160.72045  23381245.572    23381254.281
       210.000         158.000
  20270680.652    -3424758.42449  -2488946.64647  20270681.243    20270686.678
       235.000         204.000
  22320717.867    -8356722.23549  -6493606.89946  22320718.020    22320724.507
       227.000         181.000
  20635672.296    -8163749.43449  -6329539.16047  20635672.350    20635678.380
       240.000         203.000
  22453675.400     2991811.63749   2323231.93346  22453675.236    22453682.377
       227.000         184.000
  22290276.885    -8828589.72649  -6851844.94046  22290276.532    22290282.978
       226.000         178.000
  20987254.645    -3810921.04849  -2955881.88047  20987254.213    20987259.684
       241.000         208.000
 98  6 12 16  6 59.9990000  0  8G16G 2G 4G 5G24G 7G 8G 9
  24370501.614    -4079633.03549  -3161420.61045  24370500.109    24370509.935
       210.000         155.000
  23386445.916     3159669.48549   2455451.31545  23386445.668    23386453.127
       212.000         157.000
  20269156.505    -3432769.96849  -2495189.40647  20269157.117    20269161.910
       236.000         204.000
  22311120.447    -8407160.73949  -6532909.62846  22311120.163    22311125.236
       228.000         180.000
  20627658.727    -8205861.85749  -6362354.01947  20627658.608    20627665.118
       240.000         204.000
  22457939.083     3014212.86349   2340687.39746  22457938.729    22457945.435
       228.000         185.000
  22281173.271    -8876425.97549  -6889119.92846  22281174.650    22281179.831
       226.000         177.000
  20985035.437    -3822580.45449  -2964967.14147  20985035.065    20985040.343
       242.000         208.000
 98  6 12 16  7 14.9990000  0  8G16G 2G 4G 5G24G 7G 8G 9
  24366524.026    -4100530.44949  -3177704.27745  24366522.854    24366532.355
       210.000         156.000
  23391658.600     3187061.18149   2476795.44645  23391657.469    23391665.830
       210.000         158.000
  20267662.489    -3440623.53949  -2501309.07547  20267662.628    20267666.930
       233.000         203.000
  22301527.475    -8457570.95749  -6572190.30546  22301527.026    22301533.324
       225.000         180.000
  20619666.443    -8247861.30949  -6395080.84647  20619666.444    20619672.677
       236.000         204.000
  22462203.557     3036622.23849   2358149.22146  22462202.052    22462209.468
       226.000         184.000
  22272093.681    -8924145.61449  -6926304.05546  22272093.542    22272098.660
       225.000         176.000
  20982845.287    -3834091.35049  -2973936.67947  20982844.993    20982849.885
       238.000         207.000
 98  6 12 16  7 29.9990000  0  8G16G 2G 4G 5G24G 7G 8G 9
  24362566.897    -4121318.17349  -3193902.45745  24362568.018    24362577.469
       207.000         156.000
  23396882.334     3214515.36949   2498188.25545  23396882.852    23396889.937
       215.000         159.000
  20266196.841    -3448324.52549  -2507309.83747  20266196.697    20266201.604
       235.000         203.000
  22291939.491    -8507952.32649  -6611448.49546  22291940.043    22291946.342
       227.000         181.000
  20611694.575    -8289749.70449  -6427721.13547  20611694.944    20611701.921
       239.000         205.000
  22466469.119     3059037.47349   2375615.59646  22466468.660    22466474.788
       230.000         184.000
  22263034.244    -8971752.34949  -6963400.20346  22263034.898    22263039.585
       227.000         177.000
  20980682.032    -3845457.14449  -2982793.14447  20980682.047    20980687.368
       242.000         208.000
 98  6 12 16  7 44.9990000  0  8G16G 2G 4G 5G24G 7G 8G 9
  24358631.341    -4141997.07949  -3210015.84245  24358632.920    24358642.932
       208.000         156.000
  23402118.568     3242032.45249   2519630.10745  23402118.075    23402126.333
       213.000         157.000
  20264759.358    -3455879.19349  -2513196.59747  20264759.497    20264764.276
       235.000         203.000
  22282358.580    -8558306.36949  -6650685.39546  22282357.733    22282364.684
       230.000         183.000
  20603744.928    -8331526.98549  -6460274.83647  20603744.748    20603751.803
       239.000         204.000
  22470734.670     3081460.46849   2393088.02646  22470734.513    22470741.622
       228.000         183.000
  22253997.193    -9019244.39249  -7000406.99546  22253997.795    22254002.505
       227.000         178.000
  20978547.175    -3856676.32349  -2991535.37347  20978546.881    20978552.635
       242.000         208.000
 98  6 12 16  7 59.9990000  0  8G16G 2G 4G 5G24G 7G 8G 9
  24354717.466    -4162565.71849  -3226043.31845  24354717.835    24354728.396
       208.000         156.000
  23407366.286     3269612.24249   2541120.79945  23407366.592    23407374.504
       211.000         157.000
  20263348.941    -3463290.90249  -2518971.95647  20263348.720    20263354.316
       235.000         204.000
  22272779.956    -8608635.79749  -6689903.10146  22272779.899    22272786.708
       227.000         182.000
  20595815.472    -8373196.45149  -6492744.53647  20595815.519    20595822.549
       239.000         205.000
  22475004.088     3103889.39749   2410565.08346  22475003.210    22475009.377
       229.000         184.000
  22244982.424    -9066622.90649  -7037325.30646  22244980.983    22244987.690
       228.000         178.000
  20976439.047    -3867751.08449  -3000165.06847  20976439.473    20976445.124
       241.000         208.000
 98  6 12 16  8 14.9990000  0  8G16G 2G 4G 5G24G 7G 8G 9
  24350827.133    -4183020.21249  -3241981.84645  24350826.099    24350835.462
       213.000         157.000
  23412627.814     3297257.08749   2562662.18945  23412626.067    23412634.889
       213.000         157.000
  20261965.527    -3470557.19549  -2524634.00547  20261965.886    20261971.481
       235.000         204.000
  22263208.212    -8658941.65749  -6729102.46146  22263206.870    22263214.034
       229.000         182.000
  20587907.096    -8414758.24049  -6525130.31947  20587906.953    20587913.642
       240.000         205.000
  22479274.569     3126326.74549   2428048.70246  22479272.744    22479278.739
       230.000         184.000
  22235986.490    -9113883.46449  -7074151.68746  22235986.858    22235993.633
       226.000         179.000
  20974359.618    -3878681.95749  -3008682.63547  20974359.463    20974364.886
       241.000         208.000
 98  6 12 16  8 29.9990000  0  8G16G 2G 4G 5G24G 7G 8G 9
  24346955.533    -4203360.72049  -3257831.56945  24346955.547    24346965.580
       215.000         162.000
  23417901.190     3324965.80649   2584253.35445  23417900.202    23417908.019
       214.000         159.000
  20260609.794    -3477679.22049  -2530183.63747  20260610.595    20260615.995
       234.000         203.000
  22253639.227    -8709224.24249  -6768283.68146  22253639.342    22253645.532
       229.000         181.000
  20580019.367    -8456206.81749  -6557427.89847  20580019.322    20580026.387
       239.000         204.000
  22483544.479     3148773.45849   2445539.61446  22483544.681    22483551.109
       228.000         182.000
  22227017.891    -9161023.56849  -7110884.21246  22227017.170    22227023.774
       227.000         180.000
  20972306.652    -3889471.99349  -3017090.46447  20972306.605    20972311.601
       242.000         207.000
 98  6 12 16  8 44.9990000  0  8G16G 2G 4G 5G24G 7G 8G 9
  24343106.757    -4223586.89949  -3273592.20046  24343107.224    24343116.169
       214.000         163.000
  23423185.711     3352736.35249   2605892.69745  23423184.959    23423193.703
       214.000         161.000
  20259282.851    -3484657.04349  -2535620.90547  20259282.846    20259288.109
       234.000         203.000
  22244075.630    -8759482.68949  -6807446.09146  22244075.245    22244080.791
       229.000         181.000
  20572154.293    -8497537.49149  -6589633.60147  20572154.206    20572160.919
       239.000         204.000
  22487818.512     3171230.27849   2463038.39646  22487817.713    22487824.382
       228.000         182.000
  22218069.208    -9208041.25649  -7147521.34546  22218069.628    22218076.796
       227.000         179.000
  20970279.580    -3900119.60349  -3025387.31247  20970279.652    20970285.423
       241.000         207.000
 98  6 12 16  8 59.9990000  0  8G16G 2G 4G 5G24G 7G 8G 9
  24339278.175    -4243704.05449  -3289267.86146  24339278.505    24339287.933
       213.000         163.000
  23428480.265     3380562.18149   2627575.09446  23428480.314    23428489.927
       215.000         164.000
  20257981.434    -3491498.95949  -2540952.26747  20257981.604    20257986.127
       236.000         204.000
  22234516.260    -8809720.16349  -6846592.16646  22234515.686    22234520.620
       230.000         181.000
  20564312.280    -8538749.51549  -6621746.84947  20564311.929    20564318.313
       239.000         205.000
  22492092.267     3193689.71649   2480539.23246  22492091.641    22492098.599
       227.000         182.000
  22209145.868    -9254940.58249  -7184066.26146  22209144.581    22209151.906
       228.000         178.000
  20968280.120    -3910629.58849  -3033576.92047  20968280.184    20968285.730
       241.000         208.000
 98  6 12 16  9 14.9990000  0  8G16G 2G 4G 5G24G 7G 8G 9
  24335472.570    -4263709.78249  -3304856.69345  24335470.810    24335480.268
       214.000         161.000
  23433786.720     3408447.23149   2649303.65946  23433786.642    23433796.101
       216.000         166.000
  20256705.153    -3498201.39549  -2546174.94247  20256705.647    20256710.671
       235.000         204.000
  22224960.297    -8859931.18349  -6885717.61146  22224960.363    22224966.547
       229.000         182.000
  20556494.178    -8579835.23049  -6653761.67747  20556493.727    20556500.339
       241.000         205.000
  22496367.485     3216157.25249   2498046.37846  22496367.068    22496374.205
       228.000         182.000
  22200243.508    -9301715.45849  -7220514.21146  22200243.335    22200249.371
       226.000         177.000
  20966307.315    -3920998.88349  -3041656.89447  20966306.958    20966312.664
       242.000         208.000
 98  6 12 16  9 29.9990000  0  8G16G 2G 4G 5G24G 7G 8G 9
  24331684.641    -4283612.93449  -3320365.59545  24331683.369    24331693.275
       211.000         161.000
  23439103.422     3436386.83649   2671074.72146  23439102.670    23439113.388
       215.000         164.000
  20255455.421    -3504769.44149  -2551292.89947  20255455.787    20255460.757
       235.000         204.000
  22215409.939    -8910120.46049  -6924826.11946  22215409.057    22215415.348
       229.000         181.000
  20548698.149    -8620800.10549  -6685682.33547  20548698.124    20548704.754
       240.000         205.000
  22500643.937     3238629.14449   2515556.91246  22500643.487    22500649.891
       228.000         182.000
  22191365.900    -9348371.44449  -7256869.51646  22191365.530    22191370.947
       226.000         177.000
  20964359.660    -3931233.79949  -3049632.15347  20964359.181    20964365.095
       242.000         208.000
 98  6 12 16  9 44.9990000  0  8G16G 2G 4G 5G24G 7G 8G 9
  24327917.351    -4303409.92049  -3335791.76646  24327916.659    24327926.546
       213.000         163.000
  23444431.254     3464389.37549   2692894.81445  23444430.966    23444440.386
       211.000         161.000
  20254232.909    -3511196.70549  -2556301.15747  20254232.780    20254238.193
       235.000         204.000
  22205863.209    -8960285.27749  -6963915.56446  22205863.316    22205870.402
       229.000         182.000
  20540926.378    -8661641.22449  -6717506.57147  20540926.387    20540932.711
       240.000         205.000
  22504922.120     3261110.55749   2533074.86046  22504922.092    22504927.497
       228.000         181.000
  22182511.356    -9394905.41649  -7293129.75846  22182510.445    22182516.286
       226.000         178.000
  20962438.621    -3941328.52949  -3057498.18347  20962437.976    20962443.903
       241.000         208.000
 98  6 12 16  9 59.9990000  0  8G16G 2G 4G 5G24G 7G 8G 9
  24324168.961    -4323100.52949  -3351135.06046  24324169.811    24324179.358
       211.000         164.000
  23449770.633     3492451.26349   2714761.15845  23449770.237    23449780.777
       210.000         158.000
  20253035.887    -3517484.80949  -2561200.97847  20253036.025    20253041.410
       235.000         204.000
  22196321.020    -9010430.08149  -7002989.42346  22196321.092    22196327.344
       228.000         181.000
  20533177.139    -8702364.06749  -6749238.63647  20533177.012    20533183.685
       240.000         205.000
  22509201.853     3283597.72749   2550597.30946  22509200.978    22509207.233
       228.000         181.000
  22173677.558    -9441323.70249  -7329299.83646  22173677.263    22173683.418
       226.000         179.000
  20960542.930    -3951285.01249  -3065256.48147  20960543.530    20960549.626
       241.000         208.000
 98  6 12 16 10 14.9990000  0  8G16G 2G 4G 5G24G 7G 8G 9
  24320445.114    -4342677.53949  -3366389.81946  24320444.952    24320453.750
       215.000         166.000
  23455123.946     3520573.99049   2736674.92145  23455123.523    23455131.043
       212.000         159.000
  20251867.660    -3523624.85349  -2565985.43247  20251867.487    20251872.669
       235.000         204.000
  22186784.073    -9060549.71949  -7042043.66946  22186784.196    22186789.883
       229.000         181.000
  20525451.213    -8742964.82249  -6780875.57347  20525451.298    20525457.951
       241.000         206.000
  22513482.314     3306095.67349   2568128.15346  22513482.142    22513488.492
       228.000         181.000
  22164866.860    -9487624.35749  -7365378.24846  22164866.864    22164873.510
       225.000         180.000
  20958676.616    -3961097.66949  -3072902.71447  20958676.590    20958681.696
       242.000         208.000
 98  6 12 16 10 29.9990000  0  8G16G 2G 4G 5G24G 7G 8G 9
  24316741.014    -4362141.58049  -3381556.56146  24316740.464    24316750.745
       215.000         169.000
  23460487.203     3548756.32749   2758635.15245  23460486.505    23460494.843
       215.000         161.000
  20250728.058    -3529615.82749  -2570653.72547  20250728.179    20250732.781
       236.000         204.000
  22177251.929    -9110642.84849  -7081077.26546  22177251.011    22177257.100
       228.000         181.000
  20517749.424    -8783439.01949  -6812413.88747  20517749.123    20517755.857
       241.000         206.000
  22517765.605     3328605.19749   2585668.01546  22517765.577    22517772.523
       228.000         181.000
  22156078.466    -9533807.97649  -7401365.46346  22156078.307    22156085.234
       227.000         182.000
  20956836.941    -3970765.62349  -3080436.18747  20956836.674    20956841.913
       241.000         207.000
 98  6 12 16 10 44.9990000  0  8G16G 2G 4G 5G24G 7G 8G 9
  24313059.475    -4381487.77349  -3396631.48246  24313058.618    24313068.491
       216.000         167.000
  23465863.882     3577003.06649   2780645.55946  23465862.005    23465870.337
       217.000         164.000
  20249616.951    -3535451.28749  -2575200.84047  20249617.234    20249622.282
       235.000         203.000
  22167725.616    -9160704.79749  -7120086.56746  22167724.699    22167731.847
       229.000         182.000
  20510072.185    -8823782.75049  -6843850.55047  20510072.258    20510078.803
       241.000         206.000
  22522053.042     3351129.68449   2603219.53246  22522051.279    22522057.760
       227.000         181.000
  22147313.282    -9579871.50149  -7437259.09746  22147312.850    22147320.273
       227.000         182.000
  20955025.408    -3980282.57949  -3087852.00347  20955025.493    20955030.812
       241.000         207.000
 98  6 12 16 10 59.9990000  0  8G16G 2G 4G 5G24G 7G 8G 9
  24309399.419    -4400720.88249  -3411618.29946  24309398.913    24309408.790
       215.000         167.000
  23471248.348     3605311.34349   2802703.90746  23471248.473    23471257.047
       214.000         164.000
  20248535.040    -3541134.08249  -2579628.98747  20248535.617    20248540.932
       235.000         203.000
  22158203.420    -9210742.51749  -7159076.96946  22158202.492    22158209.413
       228.000         181.000
  20502418.064    -8864003.92049  -6875191.70747  20502418.220    20502424.829
       241.000         206.000
  22526340.489     3373663.73349   2620778.51346  22526340.333    22526346.416
       227.000         179.000
  22138569.532    -9625819.30049  -7473062.56246  22138569.146    22138576.008
       228.000         180.000
  20953242.667    -3989653.33649  -3095153.90047  20953242.447    20953247.900
       242.000         208.000
 98  6 12 16 11 14.9990000  0  8G16G 2G 4G 5G24G 7G 8G 9
  24305762.389    -4419834.52949  -3426512.02546  24305761.240    24305771.288
       216.000         169.000
  23476649.678     3633687.04649   2824814.79246  23476648.399    23476657.452
       213.000         164.000
  20247485.184    -3546657.16049  -2583932.68747  20247485.196    20247490.019
       236.000         204.000
  22148686.761    -9260753.29749  -7198046.39946  22148686.387    22148692.704
       228.000         182.000
  20494788.653    -8904099.89549  -6906435.31747  20494788.261    20494794.807
       241.000         206.000
  22530631.444     3396211.26049   2638347.97746  22530630.494    22530637.842
       227.000         181.000
  22129847.154    -9671648.18449  -7508773.36946  22129847.699    22129854.268
       225.000         180.000
  20951487.782    -3998877.01149  -3102341.18547  20951487.487    20951492.766
       242.000         208.000
 98  6 12 16 11 29.9990000  0  8G16G 2G 4G 5G24G 7G 8G 9
  24302145.632    -4438837.14049  -3441319.20646  24302145.869    24302155.285
       215.000         167.000
  23482058.459     3662119.81449   2846970.11345  23482058.258    23482068.517
       211.000         162.000
  20246462.579    -3552028.06649  -2588117.80647  20246462.585    20246467.931
       236.000         205.000
  22139173.530    -9310748.27049  -7237003.49446  22139172.386    22139179.121
       229.000         183.000
  20487179.313    -8944084.36749  -6937592.03347  20487179.393    20487186.143
       241.000         206.000
  22534922.917     3418761.72149   2655919.73746  22534921.393    22534928.862
       226.000         180.000
  22121147.389    -9717368.80949  -7544399.81446  22121147.680    22121153.497
       226.000         178.000
  20949758.749    -4007963.00749  -3109421.18247  20949758.556    20949763.638
       242.000         208.000
 98  6 12 16 11 44.9990000  0  8G16G 2G 4G 5G24G 7G 8G 9
  24298554.044    -4457720.36349  -3456033.36746  24298552.509    24298561.158
       219.000         168.000
  23487482.271     3690617.37149   2869175.91845  23487481.401    23487490.948
       211.000         162.000
  20245470.505    -3557241.38049  -2592180.12947  20245470.605    20245475.693
       236.000         204.000
  22129664.447    -9360717.88449  -7275940.83946  22129663.731    22129670.552
       229.000         183.000
  20479592.908    -8983951.13049  -6968657.02347  20479593.080    20479599.905
       240.000         206.000
  22539214.725     3441318.11349   2673496.12346  22539214.168    22539221.026
       226.000         179.000
  22112469.559    -9762974.46549  -7579936.68946  22112469.238    22112474.292
       227.000         179.000
  20948056.984    -4016904.63349  -3116388.68947  20948056.733    20948062.034
       241.000         208.000
 98  6 12 16 11 59.9990000  0  8G16G 2G 4G 5G24G 7G 8G 9
  24294983.043    -4476479.66749  -3470650.95646  24294983.054    24294991.852
       219.000         171.000
  23492918.696     3719178.39949   2891431.21946  23492916.735    23492926.182
       213.000         163.000
  20244508.139    -3562297.20249  -2596119.73347  20244508.502    20244513.677
       236.000         205.000
  22120160.922    -9410661.42349  -7314857.86646  22120159.703    22120165.491
       230.000         182.000
  20472029.515    -9023697.49249  -6999628.19347  20472029.445    20472036.323
       241.000         206.000
  22543508.264     3463881.37749   2691077.85246  22543507.919    22543514.874
       225.000         178.000
  22103812.576    -9808463.58949  -7615382.76346  22103813.088    22103817.258
       227.000         178.000
  20946383.185    -4025699.99749  -3123242.22347  20946383.075    20946388.465
       241.000         208.000
 98  6 12 16 12 14.9990000  0  8G16G 2G 4G 5G24G 7G 8G 9
  24291436.840    -4495116.33649  -3485172.99746  24291436.078    24291445.431
       218.000         170.000
  23498363.174     3747800.28249   2913733.90645  23498363.538    23498372.730
       209.000         162.000
  20243575.921    -3567199.23149  -2599939.49347  20243575.801    20243581.120
       236.000         205.000
  22110660.085    -9460580.58549  -7353755.89946  22110660.168    22110666.388
       229.000         182.000
  20464489.201    -9063323.08549  -7030505.26847  20464488.929    20464495.256
       242.000         206.000
  22547802.681     3486449.60049   2708663.46146  22547801.989    22547809.314
       226.000         180.000
  22095179.495    -9853835.21849  -7650737.26846  22095178.524    22095185.164
       227.000         180.000
  20944736.430    -4034352.03449  -3129984.07447  20944736.479    20944741.987
       242.000         208.000
 98  6 12 16 12 29.9990000  0  8G16G 2G 4G 5G24G 7G 8G 9
  24287911.691    -4513629.95249  -3499599.14546  24287913.179    24287922.744
       211.000         165.000
  23503823.577     3776490.90759   2936090.17655  23503823.658    23503833.188
       207.000         155.000
  20242672.718    -3571943.78749  -2603636.55047  20242673.159    20242678.395
       236.000         205.000
  22101166.566    -9510472.00049  -7392632.31146  22101166.697    22101172.568
       229.000         183.000
  20456973.068    -9102819.65549  -7061281.80647  20456973.243    20456979.236
       242.000         206.000
  22552100.214     3509025.74949   2726255.23346  22552098.678    22552106.451
       226.000         181.000
  22086568.697    -9899082.40849  -7685994.80246  22086568.488    22086575.737
       227.000         181.000
  20943117.308    -4042856.88949  -3136611.24247  20943117.935    20943123.611
       241.000         208.000
 98  6 12 16 12 44.9990000  0  8G16G 2G 4G 5G24G 7G 8G 9
  24284413.073    -4532028.17849  -3513935.37846  24284412.355    24284421.167
       219.000         169.000
  23509295.776     3805247.31359   2958497.68655  23509295.239    23509304.441
       207.000         155.000
  20241798.689    -3576540.26549  -2607218.22447  20241798.510    20241803.379
       237.000         204.000
  22091678.258    -9560341.34449  -7431491.52146  22091676.997    22091683.120
       230.000         184.000
  20449480.688    -9142193.32349  -7091962.58347  20449480.528    20449486.616
       242.000         205.000
  22556395.201     3531602.34549   2743847.35246  22556394.222    22556402.013
       225.000         181.000
  22077982.747    -9944209.99849  -7721159.14346  22077982.088    22077988.089
       228.000         182.000
  20941526.758    -4051220.74749  -3143128.53747  20941526.347    20941531.992
       241.000         208.000
 98  6 12 16 12 59.9990000  0  8G16G 2G 4G 5G24G 7G 8G 9
  24280932.606    -4550311.07749  -3528181.74646  24280931.907    24280942.020
       214.000         166.000
  23514780.119     3834068.38449   2980955.57645  23514779.156    23514788.167
       207.000         157.000
  20240951.891    -3580990.47349  -2610685.91847  20240951.571    20240956.396
       236.000         205.000
  22082191.179    -9610188.78849  -7470333.65846  22082190.771    22082197.567
       230.000         184.000
  20442010.732    -9181447.18349  -7122549.99947  20442010.787    20442017.054
       241.000         205.000
  22560691.618     3554179.17849   2761439.65546  22560690.998    22560697.513
       224.000         179.000
  22069416.949    -9989216.52649  -7756229.15446  22069416.995    22069423.851
       228.000         182.000
  20939961.220    -4059445.42449  -3149537.38447  20939961.451    20939967.011
       241.000         207.000
 98  6 12 16 13 14.9990000  0  8G16G 2G 4G 5G24G 7G 8G 9
  24277477.296    -4568474.13749  -3542334.74946  24277476.478    24277485.888
       216.000         168.000
  23520278.146     3862956.87849   3003466.04245  23520277.973    23520285.818
       210.000         160.000
  20240132.552    -3585293.40349  -2614038.85047  20240132.915    20240137.856
       236.000         205.000
  22072711.196    -9660007.62049  -7509153.50546  22072710.893    22072717.843
       230.000         185.000
  20434564.924    -9220577.20449  -7153040.90047  20434564.535    20434571.025
       241.000         206.000
  22564988.544     3576760.06349   2779035.11246  22564988.207    22564995.249
       224.000         179.000
  22060875.990   -10034098.11849  -7791201.80346  22060876.907    22060883.015
       228.000         181.000
  20938423.453    -4067528.24449  -3155835.69347  20938423.466    20938429.070
       242.000         208.000
 98  6 12 16 13 29.9990000  0  8G16G 2G 4G 5G24G 7G 8G 9
  24274042.508    -4586516.13449  -3556393.40546  24274042.346    24274052.854
       213.000         169.000
  23525788.565     3891911.15849   3026027.74945  23525786.776    23525796.480
       210.000         160.000
  20239341.450    -3589450.50549  -2617278.15147  20239341.633    20239346.875
       236.000         205.000
  22063237.277    -9709796.60449  -7547950.09046  22063235.987    22063242.963
       230.000         184.000
  20427142.334    -9259584.09349  -7183435.86447  20427141.859    20427148.363
       241.000         206.000
  22569287.459     3599347.76149   2796635.88246  22569286.416    22569293.158
       225.000         179.000
  22052359.083   -10078854.64649  -7826076.99946  22052358.533    22052366.643
       226.000         182.000
  20936913.515    -4075466.06149  -3162021.01247  20936912.968    20936918.352
       242.000         208.000
 98  6 12 16 13 44.9990000  0  8G16G 2G 4G 5G24G 7G 8G 9
  24270631.679    -4604444.54549  -3570363.56046  24270631.256    24270640.860
       215.000         167.000
  23531308.457     3920924.85849   3048635.76445  23531308.211    23531316.236
       209.000         159.000
  20238576.256    -3593471.66849  -2620411.52447  20238576.384    20238581.413
       236.000         205.000
  22053766.091    -9759563.19149  -7586729.23346  22053765.726    22053771.663
       229.000         184.000
  20419742.044    -9298472.84449  -7213738.77147  20419741.754    20419748.118
       242.000         206.000
  22573584.993     3621934.83349   2814236.15946  22573583.928    22573591.898
       225.000         179.000
  22043865.114   -10123492.94749  -7860860.07046  22043864.745    22043871.347
       227.000         181.000
  20935429.685    -4083264.77349  -3168097.93647  20935429.059    20935434.450
       242.000         208.000
 98  6 12 16 13 59.9990000  0  8G16G 2G 4G 5G24G 7G 8G 9
  24267243.384    -4622247.65749  -3584236.08846  24267242.733    24267253.545
       216.000         168.000
  23536843.954     3950008.81249   3071298.50945  23536843.082    23536851.504
       212.000         159.000
  20237839.473    -3597345.18549  -2623429.84447  20237839.222    20237844.432
       237.000         205.000
  22044302.562    -9809298.41149  -7625483.93446  22044301.635    22044308.015
       231.000         184.000
  20412366.012    -9337230.61049  -7243939.62247  20412366.202    20412372.349
       241.000         205.000
  22577885.342     3644533.04749   2831845.12646  22577884.838    22577892.601
       225.000         179.000
  22035395.539   -10168001.85949  -7895542.33146  22035395.206    22035401.781
       228.000         181.000
  20933973.359    -4090913.17749  -3174057.73847  20933973.310    20933978.843
       241.000         207.000
 98  6 12 16 14 14.9990000  0  8G16G 2G 4G 5G24G 7G 8G 9
  24263877.666    -4639930.61949  -3598015.01746  24263877.373    24263887.686
       212.000         166.000
  23542390.195     3979158.75049   3094012.69645  23542389.480    23542399.546
       207.000         155.000
  20237130.074    -3601072.53249  -2626334.27647  20237130.187    20237134.962
       237.000         205.000
  22034842.326    -9859008.16249  -7664218.79046  22034842.197    22034847.866
       229.000         184.000
  20405015.250    -9375860.91249  -7274041.14547  20405015.090    20405021.352
       241.000         205.000
  22582187.553     3667141.58549   2849462.14146  22582187.110    22582193.912
       224.000         179.000
  22026948.183   -10212385.21049  -7930126.74446  22026948.946    22026954.472
       227.000         180.000
  20932545.645    -4098416.67149  -3179904.62547  20932545.645    20932550.948
       241.000         208.000
 98  6 12 16 14 29.9990000  0  8G16G 2G 4G 5G24G 7G 8G 9
  24260535.530    -4657496.41249  -3611702.60545  24260535.730    24260544.263
       207.000         161.000
  23547949.575     4008372.32649   3116776.44345  23547948.987    23547956.777
       210.000         155.000
  20236448.926    -3604652.99649  -2629124.24947  20236448.986    20236453.663
       237.000         205.000
  22025387.789    -9908691.24649  -7702932.85846  22025387.548    22025394.121
       229.000         184.000
  20397687.953    -9414366.23849  -7304045.28347  20397687.650    20397694.046
       241.000         205.000
  22586490.870     3689758.96549   2867086.04146  22586490.567    22586498.594
       222.000         179.000
  22018526.480   -10256644.63849  -7964614.60946  22018527.002    22018532.643
       229.000         180.000
  20931145.324    -4105777.52949  -3185640.36047  20931144.883    20931150.236
       243.000         208.000
 98  6 12 16 14 44.9990000  0  8G16G 2G 4G 5G24G 7G 8G 9
  24257217.034    -4674939.95649  -3625294.95346  24257216.450    24257225.674
       215.000         166.000
  23553518.972     4037648.61149   3139589.08045  23553520.090    23553528.869
       210.000         154.000
  20235795.779    -3608082.75549  -2631796.78847  20235796.148    20235800.891
       236.000         205.000
  22015939.216    -9958346.76749  -7741625.45146  22015938.197    22015945.259
       230.000         185.000
  20390384.041    -9452745.74449  -7333951.37847  20390384.053    20390390.964
       240.000         205.000
  22590798.244     3712387.86349   2884718.92246  22590797.072    22590804.236
       224.000         178.000
  22010128.938   -10300776.62249  -7999003.16046  22010128.907    22010135.033
       227.000         181.000
  20929771.216    -4112997.09949  -3191266.00747  20929771.020    20929776.404
       241.000         208.000
 98  6 12 16 14 59.9990000  0  8G16G 2G 4G 5G24G 7G 8G 9
  24253921.067    -4692258.56649  -3638789.93846  24253920.169    24253930.282
       217.000         166.000
  23559102.948     4066984.17949   3162447.92645  23559101.926    23559111.448
       208.000         151.000
  20235172.229    -3611361.02149  -2634351.27947  20235172.439    20235177.318
       237.000         206.000
  22006494.711   -10007973.95349  -7780295.96146  22006494.017    22006501.581
       229.000         184.000
  20383104.492    -9491001.88849  -7363761.34547  20383104.164    20383110.842
       240.000         205.000
  22595106.992     3735032.01749   2902363.68946  22595105.745    22595113.591
       225.000         178.000
  22001754.970   -10344779.08249  -8033290.76646  22001754.678    22001761.922
       226.000         182.000
  20928423.828    -4120078.18749  -3196783.74347  20928423.498    20928429.058
       241.000         208.000
 98  6 12 16 15 14.9990000  0  8G16G 2G 4G 5G24G 7G 8G 9
  24250649.147    -4709452.30649  -3652187.64746  24250647.709    24250658.554
       215.000         167.000
  23564697.157     4096375.77449   3185350.39945  23564695.935    23564703.637
       211.000         153.000
  20234577.181    -3614487.81949  -2636787.74847  20234577.168    20234582.522
       237.000         206.000
  21997056.361   -10057572.78949  -7818944.38746  21997057.009    21997062.437
       229.000         185.000
  20375847.717    -9529135.27149  -7393475.65747  20375847.488    20375854.129
       240.000         205.000
  22599418.974     3757688.53149   2920018.08246  22599417.153    22599424.934
       225.000         178.000
  21993406.858   -10388652.16549  -8067477.56246  21993405.887    21993412.851
       227.000         182.000
  20927102.349    -4127023.17449  -3202195.42547  20927101.864    20927107.352
       241.000         208.000
 98  6 12 16 15 29.9990000  0  8G16G 2G 4G 5G24G 7G 8G 9
  24247399.776    -4726527.79249  -3665493.17846  24247399.518    24247408.471
       215.000         168.000
  23570298.670     4125817.72549   3208292.14445  23570298.261    23570307.614
       211.000         154.000
  20234009.880    -3617469.70849  -2639111.30047  20234009.615    20234014.944
       237.000         206.000
  21987621.868   -10107152.91149  -7857578.21946  21987621.796    21987627.699
       230.000         184.000
  20368613.596    -9567152.05149  -7423099.10547  20368613.218    20368619.828
       240.000         204.000
  22603730.471     3780348.94449   2937675.51346  22603730.055    22603737.438
       226.000         180.000
  21985081.317   -10432402.76449  -8101568.91846  21985081.010    21985087.759
       228.000         183.000
  20925805.285    -4133839.43849  -3207506.81047  20925805.065    20925810.134
       241.000         208.000
 98  6 12 16 15 44.9990000  0  8G16G 2G 4G 5G24G 7G 8G 9
  24244174.765    -4743478.16149  -3678701.21446  24244173.415    24244183.669
       214.000         169.000
  23575912.909     4155319.23649   3231280.23845  23575912.596    23575922.369
       213.000         156.000
  20233471.458    -3620296.67349  -2641314.13247  20233471.745    20233476.969
       237.000         206.000
  21978192.060   -10156707.23249  -7896191.96546  21978191.953    21978198.083
       230.000         183.000
  20361403.423    -9605042.37549  -7452624.02747  20361403.521    20361409.333
       240.000         205.000
  22608044.738     3803021.79949   2955342.64646  22608044.919    22608051.765
       226.000         179.000
  21976780.502   -10476022.83649  -8135558.56446  21976780.758    21976786.980
       229.000         183.000
  20924533.834    -4140520.35249  -3212712.72347  20924533.778    20924539.043
       242.000         207.000
 98  6 12 16 15 59.9990000  0  8G16G 2G 4G 5G24G 7G 8G 9
  24240970.924    -4760308.72449  -3691815.92246  24240970.228    24240980.825
       215.000         169.000
  23581537.958     4184878.59649   3254313.42345  23581537.406    23581546.351
       213.000         157.000
  20232962.949    -3622972.84149  -2643399.46347  20232962.719    20232967.791
       237.000         205.000
  21968767.537   -10206232.68349  -7934783.20946  21968767.296    21968773.367
       229.000         184.000
  20354216.980    -9642807.19249  -7482051.14447  20354216.881    20354223.352
       240.000         205.000
  22612362.484     3825704.13749   2973017.17146  22612360.774    22612368.354
       227.000         179.000
  21968504.518   -10519513.17549  -8169447.13046  21968504.685    21968510.689
       229.000         182.000
  20923287.441    -4147069.48949  -3217815.94647  20923287.096    20923292.633
       242.000         208.000
 98  6 12 16 16 14.9990000  0  8G16G 2G 4G 5G24G 7G 8G 9
  24237791.945    -4777019.27149  -3704837.10046  24237791.654    24237800.766
       216.000         167.000
  23587175.391     4214496.22149   3277392.03545  23587173.745    23587182.706
       215.000         159.000
  20232481.509    -3625497.86349  -2645367.01747  20232481.969    20232486.740
       237.000         206.000
  21959349.993   -10255725.76749  -7973349.23146  21959349.097    21959355.506
       230.000         185.000
  20347054.139    -9680446.31649  -7511380.32147  20347054.064    20347060.808
       240.000         205.000
  22616680.854     3848400.46849   2990702.58446  22616680.352    22616687.052
       227.000         178.000
  21960254.386   -10562871.58249  -8203232.89646  21960253.839    21960260.117
       229.000         182.000
  20922066.210    -4153485.49249  -3222815.43947  20922066.097    20922071.899
       241.000         208.000
 98  6 12 16 16 29.9990000  0  8G16G 2G 4G 5G24G 7G 8G 9
  24234633.704    -4793612.58549  -3717766.95346  24234633.215    24234642.791
       214.000         166.000
  23592820.189     4244166.42449   3300511.59945  23592819.325    23592828.296
       215.000         157.000
  20232029.467    -3627878.09649  -2647221.74547  20232029.481    20232034.543
       238.000         206.000
  21949937.344   -10305187.48949  -8011890.81146  21949937.543    21949943.754
       230.000         185.000
  20339914.525    -9717964.42449  -7540615.19947  20339914.781    20339921.564
       239.000         205.000
  22621001.696     3871107.70049   3008396.51346  22621001.080    22621007.182
       228.000         177.000
  21952028.651   -10606101.51049  -8236918.54146  21952027.338    21952033.482
       230.000         183.000
  20920870.449    -4159771.65049  -3227713.75247  20920870.158    20920875.769
       241.000         208.000
 98  6 12 16 16 44.9980000  0  8G16G 2G 4G 5G24G 7G 8G 9
  24231498.679    -4810081.32149  -3730599.71246  24231498.155    24231508.951
       213.000         165.000
  23598477.910     4273894.20349   3323676.05345  23598476.513    23598487.206
       213.000         153.000
  20231604.712    -3630109.76949  -2648960.71147  20231604.935    20231609.914
       238.000         206.000
  21940532.426   -10354610.96649  -8050402.59646  21940532.080    21940538.539
       230.000         185.000
  20332800.550    -9755353.68549  -7569749.67347  20332800.059    20332806.509
       240.000         206.000
  22625325.356     3893827.95949   3026100.58146  22625324.779    22625330.728
       227.000         177.000
  21943827.220   -10649194.42349  -8270497.41646  21943827.578    21943833.295
       228.000         183.000
  20919700.876    -4165919.01949  -3232503.91347  20919700.730    20919705.853
       242.000         208.000
 98  6 12 16 16 59.9980000  0  8G16G 2G 4G 5G24G 7G 8G 9
  24228387.177    -4826430.71649  -3743339.49446  24228388.263    24228397.752
       210.000         163.000
  23604145.991     4303683.38259   3346888.34655  23604146.736    23604155.084
       213.000         151.000
  20231206.864    -3632198.76149  -2650588.49947  20231206.990    20231212.280
       237.000         206.000
  21931132.436   -10404005.63549  -8088891.92846  21931132.725    21931138.426
       230.000         185.000
  20325708.546    -9792620.41249  -7598788.66147  20325708.033    20325714.758
       240.000         205.000
  22629651.248     3916560.88449   3043814.51946  22629650.725    22629656.777
       228.000         178.000
  21935650.648   -10692160.57749  -8303977.51346  21935650.226    21935657.358
       228.000         183.000
  20918557.115    -4171929.27149  -3237187.22747  20918556.655    20918562.362
       242.000         208.000
 98  6 12 16 17 14.9980000  0  8G16G 2G 4G 5G24G 7G 8G 9
  24225300.207    -4842663.40749  -3755988.34146  24225300.607    24225308.233
       216.000         167.000
  23609826.691     4333534.56149   3370148.94745  23609825.659    23609834.339
       210.000         149.000
  20230835.758    -3634149.20249  -2652108.32747  20230835.809    20230840.871
       237.000         206.000
  21921740.390   -10453367.24049  -8127355.50246  21921739.545    21921745.088
       231.000         185.000
  20318640.622    -9829762.02849  -7627730.17147  20318640.249    20318646.884
       240.000         205.000
  22633979.083     3939299.19749   3061532.65946  22633978.441    22633984.095
       228.000         178.000
  21927498.234   -10735001.95549  -8337360.39646  21927498.169    21927504.848
       227.000         183.000
  20917438.926    -4177798.93649  -3241760.99747  20917439.384    20917445.381
       241.000         208.000
 98  6 12 16 17 29.9980000  0  8G16G 2G 4G 5G24G 7G 8G 9
  24222231.666    -4858781.76649  -3768548.08245  24222231.938    24222242.004
       214.000         161.000
  23615518.343     4363448.98948   3393458.80545  23615519.449    23615528.160
       187.000         154.000
  20230491.180    -3635961.96049  -2653520.86547  20230491.200    20230496.167
       239.000         207.000
  21912352.569   -10502696.95549  -8165794.22246  21912352.093    21912358.062
       231.000         186.000
  20311596.680    -9866776.92749  -7656572.94747  20311596.795    20311602.758
       240.000         205.000
  22638305.998     3962040.80249   3079253.37846  22638306.175    22638311.599
       228.000         178.000
  21919369.096   -10777722.53049  -8370649.13446  21919368.635    21919375.814
       228.000         184.000
  20916349.701    -4183526.02049  -3246223.66647  20916349.556    20916355.627
       241.000         208.000
 98  6 12 16 17 44.9980000  0  8G16G 2G 4G 5G24G 7G 8G 9
  24219186.354    -4874785.37349  -3781018.40046  24219186.464    24219196.161
       213.000         164.000
  23621223.307     4393426.24749   3416817.63945  23621222.500    23621232.505
       211.000         153.000
  20230172.085    -3637636.85649  -2654825.97847  20230172.638    20230177.289
       238.000         207.000
  21902972.065   -10551992.62049  -8204206.41246  21902971.483    21902977.925
       230.000         185.000
  20304577.089    -9903663.40149  -7685315.64047  20304576.916    20304583.710
       239.000         205.000
  22642634.707     3984790.39849   3096980.30346  22642634.390    22642640.725
       228.000         178.000
  21911262.754   -10820323.54749  -8403844.71246  21911262.588    21911268.833
       230.000         184.000
  20915287.667    -4189107.26449  -3250572.69047  20915287.838    20915293.231
       242.000         208.000
 98  6 12 16 17 59.9980000  0  8G16G 2G 4G 5G24G 7G 8G 9
  24216163.361    -4890677.61449  -3793401.94646  24216162.421    24216172.101
       215.000         165.000
  23626940.443     4423464.58849   3440224.07845  23626939.679    23626947.786
       210.000         153.000
  20229878.625    -3639178.15049  -2656026.98747  20229879.304    20229883.876
       238.000         206.000
  21893598.060   -10601253.07249  -8242591.15846  21893597.209    21893604.166
       231.000         186.000
  20297582.461    -9940422.92349  -7713959.40347  20297581.795    20297588.913
       239.000         206.000
  22646965.540     4007546.30449   3114712.15746  22646964.820    22646971.176
       227.000         178.000
  21903178.682   -10862809.35649  -8436950.50846  21903177.950    21903184.500
       230.000         185.000
  20914253.410    -4194543.21149  -3254808.50447  20914253.411    20914258.846
       241.000         208.000
 98  6 12 16 18 14.9980000  0  8G16G 2G 4G 5G24G 7G 8G 9
  24213161.012    -4906454.34549  -3805695.49946  24213159.856    24213170.008
       214.000         167.000
  23632668.185     4453568.83349   3463681.86545  23632668.397    23632676.687
       209.000         151.000
  20229612.281    -3640581.09949  -2657120.19647  20229612.422    20229617.037
       238.000         207.000
  21884230.242   -10650476.53149  -8280947.07546  21884230.497    21884237.239
       230.000         186.000
  20290612.817    -9977049.70349  -7742499.73447  20290612.451    20290619.231
       240.000         207.000
  22651296.147     4030311.45849   3132451.20946  22651296.414    22651303.668
       226.000         178.000
  21895116.047   -10905176.30649  -8469963.70446  21895115.193    21895122.150
       229.000         184.000
  20913248.191    -4199827.66249  -3258926.26547  20913247.980    20913253.343
       242.000         208.000
 98  6 12 16 18 29.9980000  0  8G16G 2G 4G 5G24G 7G 8G 9
  24210180.494    -4922108.45849  -3817893.51246  24210180.894    24210191.132
       214.000         166.000
  23638411.575     4483740.91249   3487192.48645  23638409.607    23638419.330
       210.000         152.000
  20229372.031    -3641839.97249  -2658101.13147  20229372.174    20229377.506
       237.000         206.000
  21874870.421   -10699665.63949  -8319276.23346  21874869.934    21874876.484
       230.000         186.000
  20283668.537   -10013541.05249  -7770934.54147  20283668.243    20283674.663
       240.000         206.000
  22655631.378     4053086.25049   3150197.76746  22655630.467    22655637.597
       227.000         177.000
  21887076.601   -10947422.43649  -8502882.75846  21887076.436    21887082.058
       229.000         183.000
  20912271.775    -4204959.60749  -3262925.19247  20912271.285    20912276.698
       242.000         208.000
 98  6 12 16 18 44.9980000  0  8G16G 2G 4G 5G24G 7G 8G 9
  24207226.617    -4937641.57449  -3829997.22646  24207225.975    24207234.654
       213.000         163.000
  23644164.438     4513981.30049   3510756.37545  23644163.798    23644172.462
       203.000         147.000
  20229159.833    -3642955.18249  -2658970.12347  20229160.466    20229165.183
       238.000         206.000
  21865515.659   -10748823.33149  -8357580.90846  21865515.796    21865521.700
       230.000         186.000
  20276749.897   -10049898.90649  -7799265.33047  20276749.845    20276756.073
       240.000         207.000
  22659965.351     4075864.31249   3167946.88546  22659964.481    22659971.612
       226.000         177.000
  21879060.023   -10989547.80349  -8535707.70546  21879059.989    21879065.301
       229.000         182.000
  20911323.908    -4209941.97149  -3266807.56047  20911323.212    20911328.603
       242.000         208.000
 98  6 12 16 18 59.9980000  0  8G16G 2G 4G 5G24G 7G 8G 9
  24204294.098    -4953053.26849  -3842006.34845  24204293.536    24204302.637
       214.000         162.000
  23649933.826     4544294.89349   3534377.26445  23649931.663    23649942.370
       204.000         147.000
  20228975.815    -3643923.91449  -2659724.98547  20228976.258    20228980.632
       238.000         207.000
  21856167.992   -10797948.34349  -8395860.12346  21856167.676    21856173.134
       231.000         185.000
  20269856.877   -10086120.52649  -7827489.95847  20269856.961    20269863.471
       240.000         207.000
  22664302.196     4098648.15949   3185700.49646  22664300.593    22664307.742
       226.000         177.000
  21871067.437   -11031548.79949  -8568435.74846  21871066.836    21871073.234
       229.000         182.000
  20910403.266    -4214773.97849  -3270572.76547  20910403.568    20910409.267
       241.000         208.000
 98  6 12 16 19 14.9980000  0  8G16G 2G 4G 5G24G 7G 8G 9
  24201384.461    -4968342.76049  -3853920.22945  24201383.897    24201393.100
       213.000         159.000
  23655714.742     4574679.42649   3558053.42745  23655714.250    23655723.456
       203.000         150.000
  20228819.189    -3644747.04249  -2660366.38347  20228819.463    20228824.074
       238.000         207.000
  21846825.887   -10847039.40149  -8434112.88246  21846825.586    21846831.951
       230.000         186.000
  20262989.904   -10122206.91949  -7855609.21147  20262989.644    20262996.568
       240.000         207.000
  22668637.882     4121438.44149   3203459.12446  22668636.734    22668645.365
       225.000         177.000
  21863098.639   -11073424.46449  -8601066.12646  21863098.620    21863104.495
       230.000         183.000
  20909512.409    -4219458.42849  -3274222.99447  20909512.326    20909517.937
       242.000         208.000
 98  6 12 16 19 29.9980000  0  8G16G 2G 4G 5G24G 7G 8G 9
  24198497.871    -4983509.66849  -3865738.60145  24198497.500    24198505.969
       213.000         161.000
  23661509.304     4605131.66049   3581782.34145  23661510.196    23661520.054
       205.000         153.000
  20228691.170    -3645422.97649  -2660893.07947  20228690.828    20228695.826
       239.000         208.000
  21837490.488   -10896096.87349  -8472339.45846  21837490.015    21837496.443
       229.000         185.000
  20256148.497   -10158159.76749  -7883624.39847  20256148.161    20256155.208
       240.000         208.000
  22672976.963     4144237.32649   3221224.46946  22672976.029    22672982.694
       226.000         177.000
  21855155.878   -11115171.52549  -8633596.28346  21855154.858    21855161.350
       231.000         184.000
  20908648.981    -4223995.94449  -3277758.72747  20908648.651    20908654.097
       242.000         208.000
 98  6 12 16 19 44.9980000  0  8G16G 2G 4G 5G24G 7G 8G 9
  24195633.043    -4998556.98249  -3877463.77945  24195632.781    24195643.399
       212.000         159.000
  23667318.018     4635644.05149   3605558.15345  23667317.954    23667325.552
       208.000         155.000
  20228590.375    -3645953.81449  -2661306.72147  20228590.224    20228594.820
       239.000         208.000
  21828161.728   -10945124.07549  -8510542.45546  21828160.732    21828167.433
       231.000         187.000
  20249331.176   -10193987.09849  -7911541.78647  20249330.825    20249336.907
       242.000         208.000
  22677317.189     4167044.27749   3238996.07946  22677316.246    22677323.048
       226.000         177.000
  21847234.429   -11156790.27749  -8666026.45846  21847234.319    21847240.909
       229.000         185.000
  20907812.788    -4228392.43149  -3281184.57247  20907812.029    20907817.712
       242.000         208.000
 98  6 12 16 19 59.9980000  0  8G16G 2G 4G 5G24G 7G 8G 9
  24192795.198    -5013481.53549  -3889093.29345  24192793.765    24192802.104
       205.000         158.000
  23673134.663     4666220.47249   3629383.85545  23673134.985    23673144.769
       211.000         154.000
  20228516.227    -3646337.69549  -2661605.85047  20228516.828    20228521.632
       238.000         206.000
  21818837.281   -10994119.72349  -8548720.86346  21818837.171    21818843.938
       230.000         185.000
  20242537.604   -10229687.87049  -7939360.56147  20242537.320    20242543.314
       242.000         207.000
  22681658.592     4189860.11749   3256774.63346  22681657.820    22681665.236
       225.000         177.000
  21839340.589   -11198275.48449  -8698352.58246  21839340.128    21839346.871
       229.000         184.000
  20907003.238    -4232646.61849  -3284499.53347  20907002.770    20907008.089
       243.000         207.000
 98  6 12 16 20 14.9980000  0  8G16G 2G 4G 5G24G 7G 8G 9
  24189975.864    -5028287.17949  -3900630.17445  24189976.255    24189985.442
       213.000         162.000
  23678965.023     4696858.76949   3653257.78245  23678965.896    23678973.868
       203.000         152.000
  20228470.812    -3646575.94049  -2661791.49847  20228471.077    20228476.422
       238.000         207.000
  21809518.774   -11043089.10949  -8586878.81046  21809518.640    21809525.182
       230.000         186.000
  20235767.420   -10265266.40749  -7967084.09247  20235767.187    20235773.268
       242.000         208.000
  22685999.400     4212677.78149   3274554.58946  22685999.773    22686006.729
       222.000         176.000
  21831471.879   -11239625.78649  -8730573.58446  21831472.226    21831478.728
       229.000         185.000
  20906219.136    -4236764.50049  -3287708.28047  20906219.089    20906224.640
       242.000         208.000
 98  6 12 16 20 29.9980000  0  8G16G 2G 4G 5G24G 7G 8G 9
  24187182.412    -5042966.47549  -3912068.57446  24187182.124    24187191.655
       214.000         163.000
  23684809.272     4727562.30249   3677182.53245  23684807.438    23684817.822
       206.000         151.000
  20228455.419    -3646659.74649  -2661856.80447  20228455.594    20228460.302
       238.000         207.000
  21800207.095   -11092026.29449  -8625011.65546  21800206.301    21800212.103
       231.000         186.000
  20229020.405   -10300719.65249  -7994709.97947  20229020.386    20229027.032
       241.000         209.000
  22690344.091     4235503.23049   3292340.62646  22690344.116    22690351.530
       224.000         177.000
  21823630.791   -11280830.13249  -8762680.84546  21823630.818    21823637.908
       230.000         186.000
  20905462.211    -4240742.15149  -3290807.75447  20905462.061    20905467.966
       242.000         208.000
 98  6 12 16 20 44.9980000  0  8G16G 2G 4G 5G24G 7G 8G 9
  24184414.989    -5057518.08049  -3923407.47846  24184413.652    24184423.795
       215.000         165.000
  23690663.502     4758330.32049   3701157.49845  23690662.030    23690671.808
       205.000         151.000
  20228468.983    -3646588.64049  -2661801.39647  20228468.969    20228473.539
       238.000         207.000
  21790901.376   -11140926.96349  -8663116.05046  21790900.337    21790907.145
       230.000         186.000
  20222296.943   -10336050.37649  -8022240.39547  20222296.938    20222303.556
       241.000         208.000
  22694689.252     4258337.75149   3310133.73246  22694688.194    22694696.017
       222.000         176.000
  21815820.006   -11321884.96249  -8794671.60246  21815818.652    21815825.396
       231.000         186.000
  20904732.233    -4244580.12549  -3293798.39647  20904732.122    20904737.810
       243.000         209.000
 98  6 12 16 20 59.9980000  0  8G16G 2G 4G 5G24G 7G 8G 9
  24181668.946    -5071949.79749  -3934652.98746  24181668.449    24181677.294
       216.000         165.000
  23696529.490     4789157.08949   3725178.26845  23696529.352    23696538.677
       209.000         154.000
  20228510.879    -3646368.69449  -2661630.01547  20228510.970    20228515.538
       239.000         207.000
  21781602.314   -11189793.68549  -8701194.00646  21781601.527    21781607.144
       230.000         186.000
  20215596.575   -10371262.27649  -8049678.22847  20215596.294    20215603.040
       241.000         208.000
  22699035.227     4281178.63349   3327931.77846  22699034.197    22699042.657
       222.000         175.000
  21808033.236   -11362795.61749  -8826550.02146  21808033.169    21808039.912
       229.000         185.000
  20904027.549    -4248283.08549  -3296683.82947  20904027.239    20904032.836
       243.000         209.000
 98  6 12 16 21 14.9980000  0  8G16G 2G 4G 5G24G 7G 8G 9
  24178944.885    -5086261.83149  -3945805.21546  24178943.750    24178953.630
       217.000         165.000
  23702406.644     4820036.00849   3749239.69345  23702405.175    23702413.931
       209.000         155.000
  20228580.688    -3646001.65049  -2661344.00247  20228580.842    20228585.616
       239.000         208.000
  21772309.803   -11238627.89349  -8739246.60546  21772309.239    21772315.106
       231.000         187.000
  20208918.315   -10406357.30149  -8077024.98747  20208917.997    20208924.284
       241.000         208.000
  22703382.869     4304025.16049   3345734.23546  22703382.136    22703390.920
       221.000         175.000
  21800274.234   -11403566.10049  -8858319.21546  21800274.362    21800280.439
       228.000         183.000
  20903348.451    -4251851.89149  -3299464.72347  20903348.057    20903353.517
       242.000         208.000
 98  6 12 16 21 29.9980000  0  8G16G 2G 4G 5G24G 7G 8G 9
  24176244.726    -5100448.60749  -3956859.84146  24176245.043    24176254.895
       217.000         166.000
  23708293.641     4850973.50949   3773346.74745  23708293.285    23708301.701
       211.000         155.000
  20228679.698    -3645481.50649  -2660938.69947  20228679.826    20228684.878
       239.000         208.000
  21763024.356   -11287420.99049  -8777267.18946  21763023.958    21763029.955
       231.000         187.000
  20202263.323   -10441330.30549  -8104276.67247  20202263.000    20202269.025
       242.000         208.000
  22707732.270     4326881.69549   3363544.48046  22707732.099    22707739.718
       220.000         176.000
  21792544.097   -11444191.97849  -8889975.73646  21792543.320    21792549.118
       228.000         183.000
  20902696.250    -4255279.82849  -3302135.84947  20902695.598    20902701.124
       242.000         209.000
 98  6 12 16 21 44.9980000  0  8G16G 2G 4G 5G24G 7G 8G 9
  24173567.685    -5114515.61549  -3967821.15045  24173566.864    24173577.225
       214.000         162.000
  23714191.010     4881964.76549   3797495.72145  23714190.119    23714199.568
       212.000         156.000
  20228806.557    -3644812.40549  -2660417.32447  20228807.052    20228811.867
       238.000         208.000
  21753745.503   -11336179.84349  -8815261.07246  21753744.735    21753751.644
       230.000         187.000
  20195630.425   -10476185.94549  -8131436.90047  20195630.278    20195636.074
       242.000         208.000
  22712082.858     4349741.96649   3381357.64746  22712081.766    22712089.828
       221.000         175.000
  21784839.635   -11484678.95849  -8921524.02646  21784839.447    21784845.787
       229.000         183.000
  20902069.230    -4258571.84949  -3304701.07047  20902069.324    20902074.817
       242.000         209.000
 98  6 12 16 21 59.9980000  0  8G16G 2G 4G 5G24G 7G 8G 9
  24170912.958    -5128458.45949  -3978685.68945  24170913.435    24170924.008
       213.000         162.000
  23720098.928     4913016.76249   3821692.02345  23720099.568    23720108.658
       214.000         158.000
  20228962.998    -3643992.88449  -2659778.74147  20228962.879    20228967.875
       238.000         207.000
  21744474.418   -11384904.01549  -8853227.93847  21744473.544    21744479.674
       231.000         188.000
  20189021.364   -10510916.47449  -8158499.64447  20189020.670    20189027.217
       242.000         208.000
  22716435.050     4372607.42949   3399174.85646  22716433.797    22716441.575
       223.000         176.000
  21777161.866   -11525027.61749  -8952964.52346  21777161.689    21777167.366
       230.000         185.000
  20901469.255    -4261725.88149  -3307158.76947  20901469.185    20901475.007
       242.000         208.000
 98  6 12 16 22 14.9980000  0  8G16G 2G 4G 5G24G 7G 8G 9
  24168285.262    -5142276.65049  -3989453.11246  24168285.350    24168293.360
       217.000         165.000
  23726020.889     4944130.45249   3845936.38145  23726020.322    23726030.360
       213.000         159.000
  20229147.467    -3643023.74249  -2659023.56647  20229147.352    20229152.191
       238.000         207.000
  21735208.567   -11433592.43449  -8891166.94247  21735208.005    21735214.310
       231.000         188.000
  20182436.920   -10545518.26849  -8185462.06147  20182436.724    20182443.237
       242.000         208.000
  22720786.923     4395479.56749   3416997.26746  22720786.907    22720793.820
       222.000         177.000
  21769509.634   -11565238.18749  -8984297.41746  21769509.512    21769516.117
       229.000         185.000
  20900896.002    -4264742.04649  -3309509.03547  20900895.579    20900900.711
       243.000         208.000
 98  6 12 16 22 29.9980000  0  8G16G 2G 4G 5G24G 7G 8G 9
  24165679.256    -5155971.01849  -4000124.03646  24165679.264    24165688.523
       217.000         165.000
  23731951.502     4975299.79349   3870224.08845  23731951.615    23731961.273
       214.000         159.000
  20229359.327    -3641908.57849  -2658154.61247  20229359.459    20229364.015
       238.000         206.000
  21725950.346   -11482247.11049  -8929079.66146  21725949.999    21725955.367
       232.000         187.000
  20175875.951   -10579994.62949  -8212326.74847  20175876.141    20175882.501
       242.000         208.000
  22725140.786     4418359.00849   3434825.36046  22725139.932    22725148.051
       221.000         177.000
  21761882.959   -11605314.32949  -9015525.56246  21761883.456    21761889.932
       229.000         185.000
  20900347.605    -4267623.32049  -3311754.19747  20900347.200    20900352.477
       242.000         208.000
 98  6 12 16 22 44.9980000  0  8G16G 2G 4G 5G24G 7G 8G 9
  24163098.187    -5169538.37149  -4010695.98746  24163097.795    24163106.699
       218.000         166.000
  23737894.193     5006527.25349   3894557.10545  23737893.707    23737903.314
       213.000         157.000
  20229598.633    -3640648.70649  -2657172.89247  20229598.868    20229604.022
       237.000         206.000
  21716698.324   -11530866.15349  -8966964.60147  21716697.857    21716703.776
       231.000         188.000
  20169340.098   -10614342.09849  -8239091.00047  20169340.162    20169346.015
       241.000         208.000
  22729495.877     4441249.31449   3452661.93046  22729495.621    22729503.683
       221.000         178.000
  21754282.537   -11645257.49449  -9046650.08346  21754282.728    21754289.136
       231.000         186.000
  20899824.301    -4270368.03449  -3313892.94447  20899824.693    20899829.708
       242.000         208.000
 98  6 12 16 22 59.9980000  0  8G16G 2G 4G 5G24G 7G 8G 9
  24160540.786    -5182976.33049  -4021167.10746  24160539.765    24160549.149
       217.000         164.000
  23743848.242     5037816.01249   3918937.88445  23743847.965    23743857.128
       213.000         156.000
  20229866.132    -3639245.59349  -2656079.56147  20229866.158    20229871.245
       238.000         206.000
  21707453.087   -11579448.29549  -9004820.80047  21707453.202    21707458.959
       231.000         188.000
  20162829.009   -10648554.65549  -8265750.12347  20162829.297    20162835.674
       241.000         208.000
  22733855.436     4464153.70449   3470509.47646  22733854.877    22733862.483
       221.000         177.000
  21746707.976   -11685068.53149  -9077671.66246  21746706.623    21746713.680
       231.000         187.000
  20899329.244    -4272972.00949  -3315922.02147  20899329.001    20899334.384
       242.000         208.000
 98  6 12 16 23 14.9980000  0  8G16G 2G 4G 5G24G 7G 8G 9
  24158008.492    -5196282.24749  -4031535.35146  24158007.848    24158017.287
       216.000         164.000
  23749813.037     5069167.77049   3943367.74445  23749813.116    23749823.786
       209.000         153.000
  20230160.701    -3637698.15549  -2654873.76947  20230160.698    20230165.481
       238.000         207.000
  21698214.744   -11627993.64449  -9042648.31647  21698214.590    21698221.590
       230.000         188.000
  20156344.791   -10682628.79849  -8292301.39347  20156344.781    20156351.666
       240.000         207.000
  22738217.428     4487074.51449   3488369.80846  22738216.089    22738224.573
       221.000         178.000
  21739156.315   -11724747.81749  -9108590.55546  21739155.589    21739163.022
       230.000         186.000
  20898861.336    -4275430.93649  -3317838.08247  20898861.057    20898866.570
       243.000         208.000
 98  6 12 16 23 29.9980000  0  8G16G 2G 4G 5G24G 7G 8G 9
  24155501.997    -5209454.23349  -4041799.20946  24155501.532    24155511.234
       216.000         163.000
  23755792.427     5100584.32349   3967848.07945  23755791.718    23755801.471
       209.000         151.000
  20230482.221    -3636005.89849  -2653555.12747  20230482.689    20230487.629
       238.000         207.000
  21688984.366   -11676501.71249  -9080446.78547  21688984.269    21688990.560
       231.000         188.000
  20149887.430   -10716564.70149  -8318744.93847  20149887.596    20149894.036
       241.000         208.000
  22742581.177     4510010.96449   3506242.32946  22742580.667    22742588.241
       221.000         177.000
  21731630.391   -11764295.31249  -9139406.77446  21731629.876    21731637.104
       229.000         184.000
  20898420.981    -4277744.69149  -3319641.02147  20898420.819    20898426.296
       242.000         208.000
 98  6 12 16 23 44.9980000  0  8G16G 2G 4G 5G24G 7G 8G 9
  24153019.364    -5222500.74649  -4051965.31445  24153019.024    24153027.976
       211.000         162.000
  23761781.571     5132057.83149   3992372.83845  23761780.414    23761790.615
       210.000         151.000
  20230830.433    -3634178.56249  -2652131.23147  20230830.661    20230835.229
       238.000         208.000
  21679758.691   -11724979.97649  -9118222.03347  21679759.103    21679764.828
       230.000         188.000
  20143455.215   -10750369.86349  -8345086.61347  20143454.984    20143461.352
       242.000         209.000
  22746946.900     4532954.55049   3524120.42546  22746946.283    22746954.360
       221.000         177.000
  21724128.285   -11803717.04549  -9170124.99246  21724128.213    21724134.837
       230.000         184.000
  20898006.747    -4279921.51849  -3321337.25947  20898006.662    20898012.154
       243.000         208.000
 98  6 12 16 23 59.9980000  0  8G16G 2G 4G 5G24G 7G 8G 9
  24150561.201    -5235417.57049  -4062030.36446  24150560.572    24150569.583
       219.000         166.000
  23767781.307     5163590.72249   4016943.86145  23767781.473    23767791.963
       209.000         155.000
  20231204.916    -3632211.67349  -2650598.59347  20231204.972    20231209.740
       239.000         208.000
  21670540.715   -11773423.91849  -9155970.54046  21670540.144    21670546.535
       230.000         187.000
  20137047.825   -10784038.57649  -8371321.96547  20137047.986    20137054.130
       241.000         208.000
  22751314.897     4555908.60049   3542006.66246  22751314.299    22751321.986
       222.000         178.000
  21716652.167   -11843008.67049  -9200741.84046  21716651.356    21716657.392
       230.000         184.000
  20897619.400    -4281958.64049  -3322924.63747  20897619.021    20897624.342
       243.000         208.000
 98  6 12 16 24 14.9980000  0  8G16G 2G 4G 5G24G 7G 8G 9
  24148127.610    -5248203.46249  -4071993.38446  24148127.408    24148137.670
       216.000         166.000
  23773795.633     5195183.85749   4041561.80145  23773794.822    23773805.151
       210.000         155.000
  20231605.617    -3630104.62349  -2648956.74047  20231605.800    20231610.967
       237.000         208.000
  21661330.151   -11821827.64849  -9193687.71747  21661329.592    21661335.137
       231.000         188.000
  20130667.199   -10817568.30249  -8397449.00947  20130666.963    20130673.447
       241.000         207.000
  22755686.456     4578876.00449   3559903.31546  22755685.300    22755693.584
       222.000         179.000
  21709200.673   -11882166.66249  -9231254.54146  21709199.895    21709206.438
       231.000         185.000
  20897258.346    -4283854.90749  -3324402.25747  20897258.158    20897263.466
       243.000         208.000
 98  6 12 16 24 29.9980000  0  8G16G 2G 4G 5G24G 7G 8G 9
  24145718.956    -5260861.52949  -4081856.80346  24145719.136    24145728.755
       217.000         167.000
  23779818.558     5226833.62649   4066223.85145  23779816.662    23779827.758
       210.000         153.000
  20232032.744    -3627857.68449  -2647205.88247  20232033.040    20232038.745
       237.000         207.000
  21652126.906   -11870189.57749  -9231372.31347  21652126.387    21652132.534
       231.000         188.000
  20124312.625   -10850963.54849  -8423471.26547  20124312.319    20124318.653
       241.000         207.000
  22760059.193     4601855.06049   3577809.04346  22760058.525    22760065.977
       224.000         178.000
  21701775.288   -11921188.13549  -9261660.86746  21701774.606    21701780.625
       231.000         186.000
  20896924.596    -4285609.66249  -3325769.60847  20896924.358    20896929.789
       243.000         209.000
 98  6 12 16 24 44.9980000  0  8G16G 2G 4G 5G24G 7G 8G 9
  24143333.717    -5273400.00249  -4091627.02346  24143332.889    24143342.830
       217.000         167.000
  23785848.801     5258533.69249   4090925.12745  23785848.612    23785859.284
       207.000         153.000
  20232485.734    -3625478.45949  -2645351.94547  20232485.955    20232491.472
       238.000         207.000
  21642930.287   -11918517.74549  -9269030.59947  21642929.626    21642935.680
       231.000         189.000
  20117981.928   -10884232.22649  -8449394.90647  20117981.736    20117987.680
       241.000         207.000
  22764432.242     4624835.41649   3595715.77546  22764431.858    22764439.550
       224.000         178.000
  21694374.259   -11960080.79949  -9291966.82846  21694373.252    21694379.891
       230.000         186.000
  20896616.733    -4287229.35149  -3327031.71547  20896616.330    20896621.814
       244.000         209.000
 98  6 12 16 24 59.9980000  0  8G16G 2G 4G 5G24G 7G 8G 9
  24140970.079    -5285816.35749  -4101302.09646  24140969.824    24140980.649
       218.000         166.000
  23791891.452     5290288.60649   4115669.14945  23791891.045    23791901.673
       207.000         148.000
  20232964.676    -3622964.36349  -2643392.92147  20232964.651    20232969.468
       238.000         207.000
  21633741.401   -11966806.15649  -9306657.91647  21633740.732    21633747.397
       231.000         189.000
  20111675.156   -10917371.03649  -8475217.34647  20111675.254    20111681.722
       240.000         207.000
  22768806.001     4647817.05449   3613623.51646  22768805.292    22768812.753
       226.000         179.000
  21686998.643   -11998841.00549  -9322169.57446  21686997.701    21687004.018
       232.000         186.000
  20896335.402    -4288707.73849  -3328183.71447  20896334.839    20896340.313
       244.000         208.000
 98  6 12 16 25 14.9980000  0  8G16G 2G 4G 5G24G 7G 8G 9
  24138632.285    -5298106.84649  -4110879.09346  24138631.288    24138640.852
       219.000         166.000
  23797943.696     5322101.85249   4140458.61345  23797945.713    23797955.999
       203.000         148.000
  20233469.356    -3620309.96349  -2641324.55647  20233469.446    20233474.656
       238.000         207.000
  21624561.111   -12015050.90949  -9344251.20447  21624560.387    21624567.160
       232.000         190.000
  20105394.362   -10950377.72849  -8500936.83347  20105394.209    20105400.715
       240.000         207.000
  22773180.355     4670803.70649   3631535.17046  22773179.003    22773186.712
       225.000         178.000
  21679648.581   -12037465.03349  -9352266.20546  21679647.851    21679654.624
       232.000         186.000
  20896081.863    -4290039.60749  -3329221.54147  20896081.729    20896086.885
       243.000         208.000
 98  6 12 16 25 29.9980000  0  8G16G 2G 4G 5G24G 7G 8G 9
  24136316.448    -5310272.07849  -4120358.47446  24136316.175    24136325.769
       216.000         168.000
  23804011.161     5353974.49849   4165294.33645  23804009.629    23804021.307
       207.000         144.000
  20234001.141    -3617513.35849  -2639145.38847  20234001.655    20234006.577
       238.000         207.000
  21615390.149   -12063250.02849  -9381808.93647  21615388.908    21615394.533
       233.000         190.000
  20099138.622   -10983252.20149  -8526553.28847  20099138.506    20099144.740
       240.000         207.000
  22777553.542     4693793.98049   3649449.63946  22777553.715    22777560.783
       224.000         177.000
  21672324.705   -12075950.10249  -9382254.55546  21672324.078    21672331.212
       231.000         186.000
  20895855.680    -4291227.88849  -3330147.48347  20895855.358    20895860.818
       243.000         209.000
 98  6 12 16 25 44.9980000  0  8G16G 2G 4G 5G24G 7G 8G 9
  24134025.541    -5322314.88149  -4129742.46446  24134024.603    24134034.159
       217.000         167.000
  23810088.968     5385904.48249   4190174.76545  23810087.596    23810098.048
       210.000         147.000
  20234560.232    -3614578.97649  -2636858.86247  20234560.475    20234565.246
       239.000         208.000
  21606225.710   -12111404.66349  -9419332.00747  21606224.625    21606231.054
       232.000         190.000
  20092907.696   -11015995.11349  -8552067.23447  20092907.503    20092913.904
       240.000         207.000
  22781930.565     4716785.83849   3667365.34146  22781929.848    22781935.883
       226.000         177.000
  21665027.496   -12114292.51749  -9412131.73246  21665027.363    21665035.103
       229.000         186.000
  20895656.140    -4292276.11449  -3330964.29347  20895655.802    20895661.586
       243.000         209.000
 98  6 12 16 25 59.9980000  0  8G16G 2G 4G 5G24G 7G 8G 9
  24131756.250    -5334233.98749  -4139030.09446  24131756.586    24131766.078
       214.000         166.000
  23816175.880     5417894.06649   4215101.69945  23816175.809    23816184.118
       210.000         145.000
  20235145.235    -3611504.90949  -2634463.48747  20235145.165    20235150.117
       238.000         207.000
  21597070.578   -12159512.07849  -9456818.28047  21597069.973    21597076.426
       232.000         190.000
  20086703.089   -11048603.53949  -8577476.38747  20086702.536    20086708.200
       240.000         206.000
  22786305.650     4739781.02949   3685283.64546  22786305.542    22786312.385
       225.000         176.000
  21657759.302   -12152488.50449  -9441894.82746  21657759.547    21657766.422
       229.000         185.000
  20895483.530    -4293182.60549  -3331670.66447  20895483.208    20895488.743
       243.000         209.000
 98  6 12 16 26 14.9980000  0  8G16G 2G 4G 5G24G 7G 8G 9
  24129511.050    -5346034.30949  -4148225.13346  24129511.240    24129520.932
       216.000         166.000
  23822271.566     5449939.96349   4240072.45445  23822272.391    23822281.666
       204.000         141.000
  20235754.795    -3608297.48949  -2631964.20047  20235755.320    20235760.705
       237.000         207.000
  21587923.401   -12207579.91749  -9494273.71347  21587922.857    21587929.179
       231.000         189.000
  20080522.322   -11081081.87249  -8602784.16847  20080521.820    20080527.984
       240.000         205.000
  22790681.306     4762775.27149   3703201.21646  22790680.756    22790687.375
       225.000         176.000
  21650517.764   -12190544.60049  -9471548.92046  21650517.554    21650523.681
       230.000         185.000
  20895336.645    -4293956.15349  -3332273.44047  20895336.260    20895341.850
       243.000         209.000
 98  6 12 16 26 29.9980000  0  8G16G 2G 4G 5G24G 7G 8G 9
  24127290.011    -5357712.12249  -4157324.72446  24127289.146    24127297.610
       217.000         166.000
  23828382.576     5482045.65749   4265089.76345  23828383.385    23828391.989
       204.000         138.000
  20236390.926    -3604954.90049  -2629359.59947  20236391.414    20236396.530
       237.000         207.000
  21578785.071   -12255608.07549  -9531698.23547  21578783.687    21578789.764
       233.000         190.000
  20074366.611   -11113428.04949  -8627988.96747  20074366.782    20074372.687
       239.000         206.000
  22795057.115     4785770.50649   3721119.56646  22795056.430    22795063.398
       225.000         175.000
  21643302.737   -12228456.15249  -9501090.37546  21643302.734    21643309.487
       230.000         184.000
  20895214.975    -4294593.11849  -3332769.78947  20895215.157    20895220.594
       243.000         208.000
 98  6 12 16 26 44.9980000  0  8G16G 2G 4G 5G24G 7G 8G 9
  24125090.869    -5369264.28849  -4166326.40046  24125090.243    24125099.914
       217.000         165.000
  23834502.976     5514212.58749   4290154.81945  23834503.698    23834512.379
       208.000         140.000
  20237053.659    -3601473.74949  -2626647.01747  20237054.217    20237059.219
       238.000         206.000
  21569653.260   -12303595.92349  -9569091.34447  21569652.084    21569657.593
       233.000         189.000
  20068236.031   -11145642.90649  -8653091.44347  20068236.303    20068242.770
       239.000         205.000
  22799434.051     4808768.09449   3739039.73246  22799433.370    22799439.818
       224.000         172.000
  21636117.418   -12266223.86049  -9530519.74446  21636116.706    21636122.273
       232.000         183.000
  20895120.296    -4295091.98349  -3333158.52347  20895120.329    20895125.623
       243.000         208.000
 98  6 12 16 26 59.9980000  0  8G16G 2G 4G 5G24G 7G 8G 9
  24122917.205    -5380687.78349  -4175227.81946  24122916.008    24122925.206
       213.000         165.000
  23840637.084     5546440.11649   4315267.14645  23840637.261    23840644.855
       205.000         138.000
  20237742.722    -3597852.34449  -2623825.14547  20237742.807    20237748.276
       237.000         207.000
  21560528.059   -12351542.46349  -9606452.25547  21560528.113    21560534.322
       232.000         190.000
  20062131.505   -11177724.68649  -8678090.21947  20062131.378    20062138.022
       239.000         206.000
  22803810.128     4831767.42849   3756961.27246  22803809.849    22803816.229
       223.000         170.000
  21628957.556   -12303849.37849  -9559838.33546  21628956.729    21628962.600
       232.000         185.000
  20895050.959    -4295454.05649  -3333440.67047  20895051.354    20895056.698
       243.000         209.000
 98  6 12 16 27 14.9980000  0  8G16G 2G 4G 5G24G 7G 8G 9
  24120768.253    -5391984.53849  -4184030.47946  24120767.512    24120776.135
       216.000         168.000
  23846780.905     5578725.47349   4340424.49145  23846779.637    23846790.660
       206.000         139.000
  20238458.656    -3594091.23249  -2620894.41547  20238458.511    20238463.774
       237.000         207.000
  21551412.553   -12399450.48449  -9643783.15947  21551411.928    21551417.475
       233.000         190.000
  20056051.842   -11209674.23949  -8702985.96347  20056051.392    20056058.077
       239.000         206.000
  22808187.782     4854768.24549   3774883.95946  22808186.036    22808193.199
       223.000         172.000
  21621824.363   -12341334.14849  -9589047.24646  21621823.417    21621828.891
       231.000         186.000
  20895007.752    -4295684.89049  -3333620.54747  20895007.180    20895012.522
       243.000         208.000
 98  6 12 16 27 29.9980000  0  8G16G 2G 4G 5G24G 7G 8G 9
  24118642.006    -5403155.05049  -4192734.77646  24118641.692    24118650.238
       218.000         166.000
  23852935.668     5611067.89649   4365626.26245  23852934.446    23852945.440
       204.000         140.000
  20239201.275    -3590188.06949  -2617852.99747  20239201.675    20239206.532
       238.000         207.000
  21542302.649   -12447319.28249  -9681083.50347  21542301.972    21542307.780
       232.000         189.000
  20049997.765   -11241488.91649  -8727776.60747  20049997.723    20050003.967
       240.000         206.000
  22812564.500     4877771.07449   3792808.22946  22812564.003    22812570.417
       222.000         170.000
  21614717.957   -12378675.77949  -9618144.60246  21614717.364    21614723.968
       231.000         187.000
  20894988.118    -4295786.56449  -3333699.78447  20894988.025    20894993.419
       243.000         209.000
 98  6 12 16 27 44.9980000  0  8G16G 2G 4G 5G24G 7G 8G 9
  24116541.627    -5414195.17649  -4201337.45246  24116540.571    24116549.555
       217.000         166.000
  23859102.288     5643472.41649   4390876.44645  23859101.621    23859112.339
       205.000         142.000
  20239972.008    -3586138.48349  -2614697.48047  20239971.874    20239977.305
       238.000         207.000
  21533202.256   -12495142.27549  -9718348.14947  21533201.656    21533207.517
       231.000         189.000
  20043971.088   -11273162.45449  -8752457.27347  20043970.817    20043976.856
       240.000         207.000
  22816942.796     4900779.80249   3810737.08846  22816942.178    22816949.169
       221.000         170.000
  21607640.640   -12415869.15549  -9647126.45046  21607639.564    21607646.562
       231.000         186.000
  20894995.178    -4295754.41449  -3333674.74047  20894994.255    20894999.686
       244.000         209.000
 98  6 12 16 27 59.9980000  0  8G16G 2G 4G 5G24G 7G 8G 9
  24114465.286    -5425105.85449  -4209839.28646  24114464.243    24114473.226
       215.000         165.000
  23865281.325     5675936.71349   4416173.23545  23865281.003    23865288.291
       207.000         144.000
  20240769.841    -3581944.24649  -2611429.24947  20240769.850    20240775.254
       237.000         207.000
  21524110.281   -12542920.26049  -9755577.73247  21524109.845    21524115.497
       232.000         190.000
  20037969.030   -11304700.76749  -8777032.57247  20037969.088    20037974.865
       240.000         206.000
  22821321.610     4923793.78449   3828670.03046  22821320.561    22821328.022
       220.000         168.000
  21600588.692   -12452920.91449  -9675997.92946  21600589.075    21600596.321
       230.000         187.000
  20895025.909    -4295588.57049  -3333545.52147  20895025.736    20895031.309
       243.000         209.000
 98  6 12 16 28 14.9980000  0  8G16G 2G 4G 5G24G 7G 8G 9
  24112413.507    -5435883.89349  -4218237.76246  24112412.863    24112422.274
       216.000         166.000
  23871469.401     5708464.01849   4441519.11045  23871467.342    23871479.322
       202.000         143.000
  20241596.735    -3577600.46249  -2608044.48447  20241596.988    20241601.678
       238.000         207.000
  21515027.084   -12590651.45049  -9792770.84147  21515026.381    21515032.752
       231.000         190.000
  20031992.970   -11336103.72349  -8801502.40447  20031992.882    20031998.464
       240.000         206.000
  22825702.574     4946815.17249   3846608.74946  22825702.140    22825710.494
       221.000         168.000
  21593565.737   -12489833.52449  -9704760.99646  21593564.854    21593571.747
       231.000         187.000
  20895083.049    -4295287.04449  -3333310.57947  20895082.838    20895088.585
       242.000         209.000
 98  6 12 16 28 29.9980000  0  8G16G 2G 4G 5G24G 7G 8G 9
  24110386.855    -5446534.60149  -4226537.01546  24110386.287    24110396.032
       214.000         165.000
  23877669.453     5741046.75949   4466908.16145  23877669.575    23877680.517
       206.000         145.000
  20242450.902    -3573112.08749  -2604547.05847  20242450.976    20242456.204
       238.000         207.000
  21505952.026   -12638341.64349  -9829932.01647  21505951.408    21505957.734
       232.000         190.000
  20026041.439   -11367378.65449  -8825872.46947  20026041.586    20026047.927
       239.000         206.000
  22830083.708     4969838.79349   3864549.21346  22830083.056    22830091.046
       220.000         167.000
  21586566.573   -12526613.05049  -9733420.34447  21586565.380    21586572.599
       231.000         188.000
  20895165.516    -4294854.37849  -3332973.44347  20895165.101    20895171.290
       242.000         208.000
 98  6 12 16 28 44.9980000  0  8G16G 2G 4G 5G24G 7G 8G 9
  24108386.115    -5457053.12049  -4234733.25446  24108385.130    24108393.953
       215.000         166.000
  23883881.481     5773689.33149   4492343.82645  23883881.283    23883891.126
       205.000         146.000
  20243332.640    -3568474.28149  -2600933.18647  20243333.221    20243338.529
       237.000         207.000
  21496887.042   -12685982.16049  -9867054.47547  21496885.804    21496891.926
       232.000         190.000
  20020115.088   -11398521.78649  -8850139.82247  20020114.917    20020121.624
       239.000         206.000
  22834466.664     4992871.47249   3882496.73046  22834465.616    22834473.753
       220.000         168.000
  21579593.632   -12563253.98349  -9761971.71247  21579592.946    21579600.448
       231.000         188.000
  20895274.685    -4294282.43849  -3332527.78547  20895274.221    20895279.896
       243.000         208.000
 98  6 12 16 28 59.9980000  0  8G16G 2G 4G 5G24G 7G 8G 9
  24106407.965    -5467441.14249  -4242827.80546  24106407.804    24106417.089
       217.000         166.000
  23890105.366     5806392.29049   4517826.59245  23890103.537    23890112.430
       203.000         144.000
  20244243.788    -3563690.65249  -2597205.69147  20244243.671    20244248.639
       237.000         206.000
  21487830.474   -12733574.76749  -9904139.60347  21487829.130    21487835.397
       232.000         191.000
  20014214.065   -11429531.74949  -8874303.42147  20014214.110    20014220.599
       239.000         206.000
  22838852.348     5015914.33949   3900452.18246  22838851.003    22838858.382
       220.000         167.000
  21572646.834   -12599755.40549  -9790414.36747  21572646.703    21572653.670
       230.000         188.000
  20895409.276    -4293571.78249  -3331974.03847  20895409.739    20895414.965
       243.000         208.000
 98  6 12 16 29 14.9980000  0  8G16G 2G 4G 5G24G 7G 8G 9
  24104456.141    -5477702.67349  -4250823.83246  24104455.493    24104465.096
       213.000         166.000
  23896339.392     5839156.91849   4543357.36045  23896338.006    23896349.460
       201.000         142.000
  20245180.442    -3558766.99849  -2593369.08547  20245180.691    20245185.667
       237.000         206.000
  21478782.097   -12781122.27849  -9941189.59747  21478781.375    21478787.392
       233.000         191.000
  20008338.384   -11460409.20049  -8898363.76547  20008338.295    20008344.340
       240.000         206.000
  22843239.576     5038965.24949   3918413.90546  22843238.767    22843245.240
       220.000         168.000
  21565727.612   -12636115.86849  -9818747.18746  21565728.174    21565734.464
       230.000         186.000
  20895570.454    -4292725.95349  -3331314.95847  20895570.239    20895576.043
       243.000         208.000
 98  6 12 16 29 29.9980000  0  8G16G 2G 4G 5G24G 7G 8G 9
  24102526.863    -5487841.86749  -4258724.50646  24102525.572    24102535.375
       215.000         166.000
  23902586.147     5871981.64349   4568934.96245  23902584.527    23902595.061
       204.000         146.000
  20246143.044    -3553708.38949  -2589427.31247  20246143.253    20246148.838
       237.000         207.000
  21469742.281   -12828628.61849  -9978207.50447  21469741.193    21469747.098
       234.000         192.000
  20002487.047   -11491158.53649  -8922324.27347  20002486.816    20002492.915
       239.000         206.000
  22847625.809     5062022.99349   3936380.94646  22847626.474    22847632.699
       219.000         170.000
  21558835.682   -12672336.97049  -9846971.40646  21558835.469    21558842.093
       231.000         186.000
  20895757.027    -4291745.93249  -3330551.31347  20895756.792    20895762.130
       243.000         208.000
 98  6 12 16 29 44.9980000  0  8G16G 2G 4G 5G24G 7G 8G 9
  24100619.485    -5497857.06349  -4266528.54546  24100619.013    24100629.464
       213.000         165.000
  23908843.992     5904868.82749   4594561.26645  23908843.386    23908854.552
       206.000         147.000
  20247131.303    -3548516.44049  -2585381.64447  20247131.446    20247136.597
       238.000         207.000
  21460710.369   -12876092.22249 -10015192.11247  21460709.396    21460715.506
       233.000         191.000
  19996660.101   -11521781.06049  -8946185.96947  19996659.604    19996665.925
       239.000         206.000
  22852015.317     5085087.38649   3954353.15946  22852015.027    22852022.493
       218.000         171.000
  21551968.624   -12708420.14149  -9875088.16346  21551968.706    21551974.668
       230.000         185.000
  20895970.227    -4290626.89149  -3329679.34947  20895969.938    20895975.274
       243.000         208.000
 98  6 12 16 29 59.9980000  0  8G16G 2G 4G 5G24G 7G 8G 9
  24098739.701    -5507742.99149  -4274231.88745  24098739.396    24098747.214
       212.000         160.000
  23915115.218     5937822.33149   4620239.22645  23915113.834    23915125.091
       207.000         146.000
  20248144.805    -3543190.83049  -2581231.82447  20248144.788    20248149.588
       238.000         207.000
  21451685.610   -12923512.04649 -10052142.60047  21451684.772    21451691.396
       232.000         192.000
  19990856.764   -11552276.79449  -8969948.86747  19990856.657    19990863.184
       239.000         206.000
  22856406.420     5108163.85149   3972334.79546  22856406.246    22856413.823
       219.000         170.000
  21545130.246   -12744363.87949  -9903096.26746  21545129.530    21545134.246
       231.000         185.000
  20896210.556    -4289366.71849  -3328697.40647  20896210.041    20896214.722
       243.000         208.000
 98  6 12 16 30 14.9980000  0  8G16G 2G 4G 5G24G 7G 8G 9
  24096882.435    -5517497.21149  -4281832.57346  24096882.709    24096891.534
       212.000         163.000
  23921398.776     5970842.82649   4645969.39745  23921398.648    23921409.338
       206.000         154.000
  20249182.998    -3537731.08249  -2576977.48647  20249183.891    20249188.860
       237.000         206.000
  21442670.402   -12970888.49749 -10089059.30147  21442670.228    21442675.732
       232.000         191.000
  19985077.941   -11582643.61549  -8993611.31347  19985077.650    19985084.121
       239.000         206.000
  22860800.604     5131251.82649   3990325.38246  22860800.465    22860807.543
       220.000         173.000
  21538317.002   -12780165.45149  -9930993.59246  21538316.265    21538322.469
       231.000         186.000
  20896477.592    -4287964.55749  -3327604.82447  20896476.629    20896481.889
       243.000         208.000
 98  6 12 16 30 29.9980000  0  8G16G 2G 4G 5G24G 7G 8G 9
  24095051.241    -5527122.81049  -4289333.03845  24095049.892    24095060.642
       214.000         160.000
  23927695.421     6003926.31649   4671748.62445  23927694.548    23927705.769
       209.000         156.000
  20250247.495    -3532140.24249  -2572620.99347  20250247.543    20250253.001
       237.000         206.000
  21433662.763   -13018224.32749 -10125944.33947  21433662.180    21433668.479
       234.000         190.000
  19979324.452   -11612879.77349  -9017171.94647  19979324.302    19979330.708
       239.000         206.000
  22865194.597     5154347.34849   4008321.86646  22865194.421    22865202.377
       219.000         171.000
  21531531.124   -12815824.24549  -9958779.65046  21531530.891    21531537.235
       231.000         186.000
  20896770.476    -4286422.57049  -3326403.28447  20896769.852    20896775.423
       243.000         207.000
 98  6 12 16 30 44.9980000  0  8G16G 2G 4G 5G24G 7G 8G 9
  24093244.307    -5536621.85649  -4296734.90745  24093242.967    24093253.119
       213.000         162.000
  23934002.412     6037070.51349   4697575.16945  23934002.185    23934011.961
       211.000         159.000
  20251335.267    -3526423.63449  -2568166.50047  20251335.646    20251339.913
       237.000         206.000
  21424662.012   -13065521.73749 -10162799.44347  21424661.936    21424667.674
       233.000         191.000
  19973595.171   -11642987.45349  -9040632.46347  19973594.750    19973601.333
       239.000         206.000
  22869590.418     5177447.46449   4026321.92046  22869590.502    22869598.141
       219.000         174.000
  21524773.028   -12851339.33349  -9986453.73447  21524772.786    21524779.282
       232.000         188.000
  20897089.747    -4284742.52349  -3325094.16547  20897089.554    20897095.275
       243.000         208.000
 98  6 12 16 30 59.9980000  0  8G16G 2G 4G 5G24G 7G 8G 9
  24091462.084    -5545993.02749  -4304037.12746  24091460.671    24091469.444
       216.000         165.000
  23940320.618     6070276.21849   4723449.63845  23940320.439    23940331.144
       211.000         161.000
  20252447.930    -3520579.04049  -2563612.27647  20252447.977    20252452.274
       238.000         206.000
  21415669.471   -13112781.00649 -10199624.83347  21415668.809    21415674.734
       233.000         192.000
  19967890.399   -11672965.77849  -9063992.19147  19967889.931    19967896.506
       239.000         206.000
  22873987.871     5200552.02249   4044325.44246  22873987.492    22873994.897
       219.000         173.000
  21518041.949   -12886710.09949 -10014015.35447  21518041.296    21518047.927
       232.000         188.000
  20897436.266    -4282922.22849  -3323675.76247  20897435.732    20897441.675
       243.000         208.000
 98  6 12 16 31 14.9980000  0  8G16G 2G 4G 5G24G 7G 8G 9
  24089703.158    -5555233.79149  -4311237.74446  24089701.304    24089710.923
       213.000         163.000
  23946651.886     6103544.14249   4749372.59445  23946651.013    23946661.702
       209.000         158.000
  20253585.877    -3514600.46049  -2558953.65047  20253585.750    20253590.461
       238.000         206.000
  21406683.703   -13160000.41649 -10236419.16047  21406683.047    21406689.567
       233.000         192.000
  19962210.111   -11702814.62849  -9087251.02347  19962210.079    19962216.141
       239.000         206.000
  22878384.431     5223657.59849   4062329.76046  22878383.672    22878391.799
       221.000         174.000
  21511339.436   -12921935.58849 -10041463.78147  21511338.412    21511346.034
       232.000         188.000
  20897809.247    -4280961.62249  -3322148.02847  20897808.961    20897814.805
       242.000         208.000
 98  6 12 16 31 29.9980000  0  8G16G 2G 4G 5G24G 7G 8G 9
  24087970.096    -5564337.08149  -4318331.23346  24087968.681    24087978.594
       214.000         163.000
  23952993.544     6136873.72349   4775343.61545  23952993.316    23953003.156
       208.000         154.000
  20254750.414    -3508477.00149  -2554182.12547  20254750.613    20254755.539
       237.000         206.000
  21397707.360   -13207172.42149 -10273176.54247  21397706.565    21397712.782
       234.000         193.000
  19956555.445   -11732529.95249  -9110405.80847  19956555.385    19956561.696
       239.000         206.000
  22882783.126     5246767.52249   4080337.44846  22882782.433    22882789.509
       222.000         175.000
  21504664.021   -12957015.99149 -10068799.13447  21504662.784    21504669.959
       232.000         188.000
  20898210.409    -4278854.55949  -3320506.16947  20898210.029    20898215.601
       243.000         208.000
 98  6 12 16 31 44.9980000  0  9G16G 2G 4G 5G24G 7G 8G 9G30
  24086263.757    -5573305.35649  -4325319.51146  24086263.467    24086271.599
       215.000         164.000
  23959345.953     6170258.65549   4801357.75345  23959345.881    23959356.597
       205.000         152.000
  20255942.376    -3502211.38149  -2549299.82747  20255942.642    20255947.625
       237.000         206.000
  21388738.978   -13254299.41549 -10309898.85347  21388738.918    21388745.031
       234.000         193.000
  19950925.615   -11762113.83649  -9133458.17347  19950925.494    19950932.098
       238.000         206.000
  22887180.502     5269878.36449   4098345.87546  22887180.000    22887188.045
       223.000         178.000
  21498013.228   -12991959.34149 -10096027.70746  21498012.600    21498019.672
       231.000         187.000
  20898638.988    -4276601.98749  -3318750.92247  20898638.731    20898644.547
       243.000         208.000
  24168722.559    -1076583.06559   -808602.40755  24168721.558    24168730.565
       213.000         148.000
 98  6 12 16 31 59.9980000  0  9G16G 2G 4G 5G24G 7G 8G 9G30
  24084583.619    -5582137.36949  -4332201.59146  24084581.409    24084591.110
       217.000         163.000
  23965708.309     6203698.17549   4827414.43345  23965708.685    23965720.427
       205.000         149.000
  20257162.245    -3495801.65049  -2544305.23847  20257162.620    20257167.630
       237.000         206.000
  21379780.839   -13301379.76749 -10346584.82347  21379779.867    21379785.950
       234.000         193.000
  19945321.991   -11791561.63449  -9156404.50147  19945322.095    19945328.217
       239.000         206.000
  22891579.708     5292991.99849   4116356.45546  22891578.937    22891585.938
       224.000         179.000
  21491390.284   -13026763.37149 -10123147.72646  21491390.406    21491395.518
       231.000         186.000
  20899094.213    -4274207.42049  -3316885.03947  20899094.381    20899100.293
       243.000         208.000
  24157436.877    -1135891.80249   -854816.98945  24157437.473    24157445.514
       214.000         151.000
 98  6 12 16 32 14.9980000  0  9G16G 2G 4G 5G24G 7G 8G 9G30
  24082928.430    -5590838.18649  -4338981.46646  24082927.161    24082936.314
       215.000         165.000
  23972083.051     6237184.44649   4853507.54645  23972081.758    23972092.358
       206.000         150.000
  20258409.886    -3489249.66049  -2539199.79647  20258409.818    20258414.766
       238.000         206.000
  21370829.034   -13348417.69449 -10383237.73047  21370828.907    21370834.558
       234.000         193.000
  19939744.493   -11820872.14349  -9179243.84247  19939744.348    19939750.699
       238.000         206.000
  22895977.932     5316104.96549   4134366.52746  22895977.199    22895985.344
       224.000         180.000
  21484793.296   -13061428.89649 -10150159.80746  21484793.293    21484799.733
       231.000         186.000
  20899576.787    -4271675.92749  -3314912.46147  20899576.634    20899581.933
       243.000         208.000
  24146148.418    -1195211.38549   -901040.00345  24146148.844    24146157.028
       215.000         154.000
 98  6 12 16 32 29.9980000  0  9G16G 2G 4G 5G24G 7G 8G 9G30
  24081295.671    -5599409.40149  -4345660.32646  24081295.260    24081304.469
       216.000         164.000
  23978462.358     6270715.33449   4879635.41045  23978462.201    23978473.893
       203.000         146.000
  20259684.058    -3482554.18749  -2533982.55347  20259683.715    20259688.671
       237.000         206.000
  21361886.422   -13395413.32249 -10419857.68547  21361885.999    21361891.527
       234.000         193.000
  19934193.571   -11850042.94549  -9201974.32647  19934193.580    19934199.671
       239.000         206.000
  22900375.494     5339216.09649   4152375.16746  22900375.247    22900382.828
       224.000         179.000
  21478224.355   -13095954.06249 -10177062.53346  21478223.661    21478229.655
       232.000         186.000
  20900085.221    -4269008.08449  -3312833.63547  20900084.425    20900089.540
       243.000         208.000
  24134859.209    -1254539.96749   -947270.01845  24134857.946    24134865.727
       212.000         153.000
 98  6 12 16 32 44.9980000  0  9G16G 2G 4G 5G24G 7G 8G 9G30
  24079689.762    -5607848.59249  -4352236.35146  24079689.831    24079699.238
       218.000         168.000
  23984854.174     6304295.05449   4905801.32445  23984853.359    23984863.921
       203.000         145.000
  20260985.294    -3475712.57949  -2528651.42847  20260985.443    20260990.528
       237.000         206.000
  21352951.406   -13442366.47349 -10456444.52647  21352950.863    21352957.125
       234.000         193.000
  19928669.726   -11879071.98549  -9224594.34447  19928669.436    19928675.875
       239.000         207.000
  22904773.094     5362331.86849   4170387.43146  22904772.679    22904781.425
       222.000         178.000
  21471681.662   -13130336.48649 -10203854.01946  21471680.944    21471686.167
       232.000         187.000
  20900618.055    -4266202.35149  -3310647.35747  20900617.955    20900623.103
       243.000         207.000
  24123565.380    -1313872.71149   -993503.29345  24123566.975    24123573.605
       208.000         146.000
 98  6 12 16 32 59.9980000  0  9G16G 2G 4G 5G24G 7G 8G 9G30
  24078110.776    -5616153.19849  -4358707.46746  24078108.999    24078117.631
       216.000         166.000
  23991255.339     6337926.56949   4932007.57145  23991254.322    23991263.360
       204.000         146.000
  20262315.540    -3468721.45649  -2523203.81047  20262315.921    20262320.578
       237.000         205.000
  21344024.527   -13489277.13749 -10492998.27147  21344023.665    21344030.289
       234.000         193.000
  19923173.270   -11907957.34949  -9247102.41147  19923172.530    19923179.006
       239.000         206.000
  22909173.898     5385453.87049   4188404.54346  22909173.779    22909181.904
       223.000         179.000
  21465165.385   -13164576.14149 -10230534.26146  21465165.518    21465170.913
       231.000         186.000
  20901177.973    -4263257.35049  -3308352.56247  20901177.823    20901183.309
       242.000         207.000
  24112275.010    -1373208.19449  -1039738.70845  24112275.431    24112283.395
       210.000         149.000
 98  6 12 16 33 14.9980000  0  9G16G 2G 4G 5G24G 7G 8G 9G30
  24076554.124    -5624331.23849  -4365079.96946  24076553.253    24076562.030
       218.000         167.000
  23997661.957     6371601.84749   4958247.93645  23997662.529    23997671.401
       202.000         143.000
  20263673.172    -3461588.07149  -2517645.33547  20263673.508    20263678.190
       237.000         206.000
  21335104.315   -13536151.01649 -10529523.34747  21335104.148    21335110.605
       233.000         193.000
  19917702.280   -11936704.12149  -9269502.48247  19917702.265    19917708.447
       238.000         206.000
  22913573.559     5408575.95449   4206421.72246  22913573.193    22913581.120
       223.000         179.000
  21458675.382   -13198681.34349 -10257109.73546  21458675.457    21458681.168
       232.000         187.000
  20901763.418    -4260181.45049  -3305955.76547  20901763.377    20901768.979
       242.000         207.000
  24100984.619    -1432552.65349  -1085981.08445  24100983.326    24100992.005
       214.000         149.000
 98  6 12 16 33 29.9980000  0  9G16G 2G 4G 5G24G 7G 8G 9G30
  24075023.710    -5632374.08849  -4371347.13846  24075022.847    24075031.612
       217.000         166.000
  24004079.650     6405331.86149   4984530.98845  24004081.343    24004090.824
       200.000         141.000
  20265059.210    -3454306.40149  -2511971.31147  20265059.225    20265063.744
       238.000         206.000
  21326193.873   -13582977.21049 -10566011.27547  21326193.387    21326199.166
       233.000         193.000
  19912261.107   -11965299.37049  -9291784.47647  19912260.712    19912267.364
       239.000         206.000
  22917977.195     5431709.55849   4224447.88046  22917975.790    22917983.414
       224.000         179.000
  21452213.320   -13232641.28249 -10283572.01746  21452212.942    21452219.675
       231.000         187.000
  20902375.711    -4256965.33749  -3303449.71347  20902375.452    20902380.838
       242.000         207.000
  24089692.238    -1491893.51349  -1132220.70445  24089692.018    24089697.264
       216.000         146.000
 98  6 12 16 33 44.9980000  0  9G16G 2G 4G 5G24G 7G 8G 9G30
  24073516.956    -5640289.84649  -4377515.26046  24073516.069    24073525.518
       218.000         168.000
  24010508.196     6439112.79049   5010853.67145  24010507.273    24010519.188
       195.000         138.000
  20266470.563    -3446888.71349  -2506191.29047  20266470.673    20266475.294
       238.000         205.000
  21317291.003   -13629761.53349 -10602466.57047  21317290.302    21317296.711
       234.000         192.000
  19906847.512   -11993746.51049  -9313951.07147  19906847.490    19906854.115
       238.000         206.000
  22922380.108     5454853.97849   4242482.45646  22922379.447    22922387.545
       223.000         178.000
  21445778.480   -13266459.43449 -10309923.81247  21445778.215    21445784.141
       232.000         188.000
  20903014.065    -4253613.03849  -3300837.54347  20903013.522    20903019.141
       242.000         207.000
  24078401.079    -1551229.48049  -1178456.53045  24078401.415    24078407.306
       218.000         151.000
 98  6 12 16 33 59.9980000  0  8G16G 4G 5G24G 7G 8G 9G30
  24072034.317    -5648081.13849  -4383586.41446  24072034.108    24072042.633
       216.000         167.000
  20267906.902    -3439339.36649  -2500308.68847  20267907.394    20267911.716
       238.000         205.000
  21308396.106   -13676506.45449 -10638891.17147  21308395.238    21308400.842
       234.000         193.000
  19901462.191   -12022047.12649  -9336003.49247  19901462.048    19901468.783
       238.000         206.000
  22926787.172     5478010.27649   4260526.29246  22926785.708    22926794.508
       224.000         178.000
  21439370.237   -13300130.74649 -10336161.18247  21439369.923    21439376.832
       231.000         189.000
  20903676.376    -4250129.07249  -3298122.77647  20903676.346    20903682.291
       242.000         207.000
  24067111.042    -1610556.12249  -1224685.03145  24067111.917    24067118.283
       213.000         152.000
 98  6 12 16 34 14.9980000  0  8G16G 4G 5G24G 7G 8G 9G30
  24070573.198    -5655753.93249  -4389565.21446  24070572.600    24070582.833
       215.000         163.000
  20269368.805    -3431660.68749  -2494325.30947  20269368.645    20269373.300
       239.000         206.000
  21299506.641   -13723217.19449 -10675289.12847  21299506.232    21299512.392
       233.000         193.000
  19896103.513   -12050206.39749  -9357945.76747  19896103.339    19896110.095
       238.000         206.000
  22931194.345     5501172.68249   4278574.89246  22931193.808    22931201.401
       224.000         178.000
  21432991.824   -13333655.21049 -10362284.12547  21432990.659    21432997.754
       233.000         189.000
  20904363.827    -4246517.98449  -3295308.95547  20904363.527    20904368.775
       242.000         207.000
  24055822.626    -1669874.39049  -1270906.99145  24055822.708    24055829.391
       212.000         152.000
 98  6 12 16 34 29.9980000  0  8G16G 4G 5G24G 7G 8G 9G30
  24069137.791    -5663306.96449  -4395450.72846  24069136.627    24069145.263
       218.000         165.000
  20270854.016    -3423851.94149  -2488240.57647  20270854.139    20270858.940
       237.000         205.000
  21290624.827   -13769892.81649 -10711659.73347  21290624.470    21290630.587
       234.000         192.000
  19890770.665   -12078229.10949  -9379781.63347  19890770.666    19890777.361
       237.000         206.000
  22935603.859     5524340.92449   4296628.03346  22935602.318    22935609.741
       223.000         177.000
  21426640.784   -13367032.55549 -10388292.43347  21426639.180    21426646.215
       233.000         188.000
  20905076.146    -4242775.46449  -3292392.70847  20905075.861    20905081.574
       242.000         207.000
  24044535.563    -1729186.30549  -1317124.01245  24044536.150    24044543.361
       211.000         152.000
 98  6 12 16 34 44.9980000  0  8G16G 4G 5G24G 7G 8G 9G30
  24067721.655    -5670738.15949  -4401241.27345  24067722.365    24067731.774
       216.000         160.000
  20272364.746    -3415912.60949  -2482054.09447  20272365.398    20272369.843
       238.000         205.000
  21281749.833   -13816531.15849 -10748001.27647  21281749.531    21281755.340
       233.000         193.000
  19885464.013   -12106119.52549  -9401514.41347  19885463.582    19885469.735
       238.000         206.000
  22940012.830     5547516.54449   4314686.92646  22940012.813    22940020.591
       221.000         174.000
  21420316.057   -13400262.50649 -10414185.88547  21420315.394    21420322.403
       232.000         188.000
  20905813.522    -4238899.93049  -3289372.82347  20905813.311    20905818.956
       242.000         207.000
  24033250.248    -1788492.89349  -1363336.87545  24033251.005    24033257.436
       216.000         155.000
 98  6 12 16 34 59.9980000  0  8G16G 4G 5G24G 7G 8G 9G30
  24066331.547    -5678047.12649  -4406936.58045  24066332.103    24066339.545
       211.000         157.000
  20273900.621    -3407843.34649  -2475766.36147  20273900.748    20273905.171
       238.000         205.000
  21272882.688   -13863126.89749 -10784309.62947  21272882.474    21272889.051
       234.000         194.000
  19880181.149   -12133880.21849  -9423146.11447  19880180.863    19880187.058
       238.000         206.000
  22944424.856     5570699.60249   4332751.61746  22944424.456    22944431.409
       222.000         173.000
  21414020.549   -13433344.78049 -10439964.27747  21414020.037    21414026.571
       232.000         188.000
  20906577.082    -4234889.86949  -3286248.11247  20906576.468    20906582.171
       242.000         207.000
  24021964.007    -1847795.79349  -1409546.90845  24021964.470    24021972.347
       213.000         151.000
 98  6 12 16 35 14.9980000  0  8G16G 4G 5G24G 7G 8G 9G30
  24064963.573    -5685234.28949  -4412536.97345  24064963.292    24064972.601
       210.000         159.000
  20275460.531    -3399645.40149  -2469378.36147  20275460.831    20275465.093
       239.000         205.000
  21264025.627   -13909675.17749 -10820580.99847  21264024.549    21264030.951
       234.000         194.000
  19874922.465   -12161514.03849  -9444678.94847  19874922.202    19874928.480
       238.000         206.000
  22948838.028     5593888.34749   4350820.72746  22948837.206    22948844.345
       222.000         173.000
  21407753.532   -13466279.37049 -10465627.58847  21407752.578    21407759.261
       233.000         189.000
  20907365.173    -4230746.10849  -3283019.21647  20907364.947    20907370.678
       243.000         207.000
  24010681.877    -1907097.57449  -1455756.03845  24010681.402    24010687.319
       218.000         152.000
 98  6 12 16 35 29.9980000  0  8G16G 4G 5G24G 7G 8G 9G30
  24063619.756    -5692302.31449  -4418044.53345  24063618.900    24063628.235
       215.000         161.000
  20277044.451    -3391322.69049  -2462893.13547  20277044.687    20277048.613
       239.000         205.000
  21255176.360   -13956176.00649 -10856815.39147  21255175.917    21255182.115
       234.000         193.000
  19869687.647   -12189026.02849  -9466116.85447  19869687.253    19869693.493
       238.000         206.000
  22953251.010     5617080.88449   4368892.81146  22953251.022    22953258.762
       220.000         170.000
  21401514.885   -13499067.77749 -10491176.98747  21401513.899    21401519.865
       233.000         188.000
  20908177.719    -4226473.71849  -3279690.09247  20908177.482    20908183.597
       242.000         207.000
  23999395.359    -1966403.02349  -1501968.07345  23999395.263    23999401.520
       215.000         149.000
 98  6 12 16 35 44.9980000  0  8G16G 4G 5G24G 7G 8G 9G30
  24062299.034    -5699238.89649  -4423449.66645  24062297.618    24062308.314
       211.000         162.000
  20278654.763    -3382861.71849  -2456300.17147  20278655.006    20278658.674
       240.000         205.000
  21246338.657   -14002619.55849 -10893005.15647  21246337.593    21246343.989
       234.000         193.000
  19864476.435   -12216406.58549  -9487452.33847  19864476.475    19864483.142
       237.000         205.000
  22957667.239     5640288.33749   4386976.50546  22957667.677    22957675.377
       221.000         170.000
  21395304.978   -13531700.81149 -10516605.31347  21395303.694    21395310.033
       233.000         188.000
  20909017.361    -4222063.90049  -3276253.88447  20909017.060    20909022.933
       243.000         207.000
  23988110.308    -2025703.79549  -1548176.43645  23988109.557    23988117.482
       211.000         150.000
 98  6 12 16 35 59.9980000  0  8G16G 4G 5G24G 7G 8G 9G30
  24061002.902    -5706050.11049  -4428757.09446  24061002.024    24061011.792
       215.000         163.000
  20280289.918    -3374268.29249  -2449603.99847  20280289.932    20280294.258
       239.000         205.000
  21237509.872   -14049013.04349 -10929155.90747  21237509.469    21237515.546
       233.000         192.000
  19859289.679   -12243666.02449  -9508693.45147  19859289.437    19859295.837
       238.000         206.000
  22962084.744     5663501.91049   4405064.96846  22962084.351    22962091.795
       219.000         168.000
  21389122.150   -13564186.36149 -10541918.71947  21389121.868    21389127.702
       232.000         188.000
  20909880.233    -4217527.71649  -3272719.20347  20909880.176    20909886.464
       242.000         207.000
  23976824.063    -2085011.74349  -1594390.34245  23976822.777    23976831.680
       213.000         151.000
 98  6 12 16 36 14.9980000  0  8G16G 4G 5G24G 7G 8G 9G30
  24059730.212    -5712729.41549  -4433961.74845  24059731.301    24059740.162
       213.000         161.000
  20281951.171    -3365535.50549  -2442799.23247  20281951.783    20281956.174
       238.000         205.000
  21228691.629   -14095350.57549 -10965263.05347  21228691.604    21228697.945
       233.000         193.000
  19854126.103   -12270800.96349  -9529837.54747  19854125.904    19854132.237
       238.000         206.000
  22966503.747     5686722.16549   4423158.64846  22966502.048    22966510.636
       219.000         167.000
  21382970.685   -13596521.64749 -10567115.03547  21382969.141    21382974.404
       234.000         188.000
  20910767.954    -4212863.24049  -3269084.55647  20910767.727    20910773.330
       242.000         207.000
  23965534.906    -2144326.73349  -1640609.77545  23965536.506    23965544.873
       213.000         153.000
 98  6 12 16 36 29.9980000  0  8G16G 4G 5G24G 7G 8G 9G30
  24058485.118    -5719279.91649  -4439066.05945  24058485.507    24058493.850
       215.000         156.000
  20283638.504    -3356671.23249  -2435892.01247  20283638.785    20283643.126
       239.000         205.000
  21219884.786   -14141632.97849 -11001327.24947  21219884.205    21219890.570
       234.000         192.000
  19848985.208   -12297816.22149  -9550888.38847  19848984.969    19848991.457
       238.000         206.000
  22970922.619     5709944.55049   4441253.97546  22970921.700    22970929.232
       219.000         168.000
  21376843.663   -13628715.38849 -10592201.06147  21376842.830    21376848.702
       233.000         189.000
  20911679.221    -4208074.43149  -3265353.02647  20911679.182    20911684.305
       242.000         207.000
  23954245.858    -2203657.33849  -1686841.35845  23954246.611    23954254.783
       217.000         152.000
 98  6 12 16 36 44.9980000  0  8G16G 4G 5G24G 7G 8G 9G30
  24057263.613    -5725693.31449  -4444063.50345  24057264.115    24057273.777
       214.000         159.000
  20285351.223    -3347671.54849  -2428879.28047  20285351.488    20285355.548
       240.000         205.000
  21211089.704   -14187851.94849 -11037342.01247  21211089.062    21211094.935
       234.000         192.000
  19843868.358   -12324705.36049  -9571840.95647  19843868.122    19843874.772
       237.000         205.000
  22975342.686     5733175.71649   4459356.13546  22975342.638    22975349.611
       218.000         163.000
  21370744.387   -13660762.37049 -10617172.72746  21370744.170    21370749.654
       232.000         187.000
  20912615.042    -4203157.33049  -3261521.53047  20912614.792    20912619.963
       243.000         206.000
  23942953.229    -2263000.84249  -1733083.03245  23942953.457    23942962.002
       212.000         150.000
 98  6 12 16 36 59.9980000  0  8G16G 4G 5G24G 7G 8G 9G30
  24056071.269    -5731969.34949  -4448953.91746  24056070.648    24056080.007
       216.000         163.000
  20287089.150    -3338538.72449  -2421762.79547  20287089.446    20287093.914
       239.000         205.000
  21202307.054   -14234004.41249 -11073304.95547  21202306.667    21202312.240
       234.000         192.000
  19838776.657   -12351462.64249  -9592690.77347  19838776.113    19838783.140
       237.000         206.000
  22979765.163     5756416.35349   4477465.69845  22979764.792    22979772.911
       216.000         161.000
  21364674.674   -13692660.44149 -10642028.36647  21364674.413    21364680.593
       233.000         188.000
  20913575.149    -4198111.33949  -3257589.59747  20913575.063    20913580.724
       242.000         206.000
  23931660.846    -2322355.41349  -1779333.28645  23931659.449    23931667.571
       214.000         150.000
 98  6 12 16 37 14.9980000  0  8G16G 4G 5G24G 7G 8G 9G30
  24054902.401    -5738103.30549  -4453733.63045  24054902.588    24054912.273
       215.000         161.000
  20288852.177    -3329270.83649  -2414541.06647  20288852.830    20288857.150
       239.000         206.000
  21193537.588   -14280089.69149 -11109215.54247  21193536.752    21193542.802
       234.000         192.000
  19833710.838   -12378081.11349  -9613432.42947  19833710.707    19833717.670
       237.000         205.000
  22984189.576     5779669.00949   4495584.64045  22984189.619    22984197.887
       216.000         162.000
  21358634.638   -13724409.19149 -10666767.64647  21358633.109    21358638.783
       233.000         188.000
  20914559.900    -4192934.35049  -3253555.59147  20914560.192    20914565.986
       241.000         207.000
  23920362.992    -2381716.21849  -1825588.44745  23920364.392    23920369.541
       214.000         151.000
 98  6 12 16 37 29.9980000  0  8G16G 4G 5G24G 7G 8G 9G30
  24053761.877    -5744099.40649  -4458405.91345  24053761.589    24053771.853
       213.000         160.000
  20290640.550    -3319874.61849  -2407219.34747  20290640.766    20290645.078
       240.000         206.000
  21184778.464   -14326115.90249 -11145080.10347  21184778.240    21184784.373
       234.000         192.000
  19828671.351   -12404562.50649  -9634067.27447  19828671.352    19828677.982
       236.000         204.000
  22988616.594     5802928.52549   4513708.88845  22988615.513    22988623.962
       214.000         161.000
  21352618.838   -13756013.93649 -10691394.70747  21352618.073    21352624.555
       232.000         189.000
  20915569.593    -4187630.89049  -3249423.03847  20915569.649    20915575.073
       243.000         207.000
  23909066.007    -2441086.42249  -1871850.90045  23909065.603    23909073.696
       214.000         152.000
 98  6 12 16 37 44.9980000  0  8G16G 4G 5G24G 7G 8G 9G30
  24052646.433    -5749962.01549  -4462974.18445  24052646.013    24052655.087
       215.000         160.000
  20292453.173    -3310351.14649  -2399798.46647  20292453.473    20292457.240
       240.000         206.000
  21176030.649   -14372088.38649 -11180902.80147  21176030.082    21176036.352
       233.000         193.000
  19823658.919   -12430906.40949  -9654594.98447  19823658.507    19823664.900
       237.000         205.000
  22993043.132     5826192.07349   4531836.29645  22993042.374    22993051.954
       214.000         160.000
  21346631.686   -13787477.34349 -10715911.63847  21346631.163    21346637.689
       233.000         190.000
  20916603.455    -4182201.21549  -3245192.13947  20916602.753    20916608.281
       243.000         206.000
  23897766.176    -2500466.87149  -1918121.32945  23897766.354    23897773.442
       213.000         154.000
 98  6 12 16 37 59.9980000  0  8G16G 4G 5G24G 7G 8G 9G30
  24051557.397    -5755690.49449  -4467437.92245  24051556.299    24051564.962
       217.000         159.000
  20294288.880    -3300703.45249  -2392280.78647  20294288.978    20294293.413
       240.000         206.000
  21167293.475   -14418006.12249 -11216682.83647  21167292.152    21167298.591
       234.000         193.000
  19818672.623   -12457109.22049  -9675012.74947  19818672.477    19818679.122
       237.000         206.000
  22997470.437     5849458.70949   4549966.12545  22997469.626    22997478.020
       216.000         161.000
  21340672.277   -13818795.08749 -10740315.06547  21340671.855    21340678.072
       233.000         190.000
  20917661.319    -4176641.49649  -3240859.89747  20917660.712    20917666.588
       242.000         206.000
  23886462.592    -2559852.57149  -1964395.84645  23886465.407    23886473.985
       210.000         153.000
 98  6 12 16 38 14.9980000  0  8G16G 4G 5G24G 7G 8G 9G30
  24050492.496    -5761289.06449  -4471800.44546  24050490.683    24050500.502
       217.000         165.000
  20296147.187    -3290937.13449  -2384670.66747  20296147.590    20296151.905
       240.000         206.000
  21158564.567   -14463871.89949 -11252422.38247  21158564.452    21158570.340
       233.000         194.000
  19813712.730   -12483173.44149  -9695322.51447  19813712.387    19813719.165
       237.000         206.000
  23001899.057     5872724.22249   4568095.06645  23001897.968    23001905.088
       216.000         160.000
  21334739.052   -13849969.71049 -10764606.96247  21334739.156    21334745.876
       232.000         190.000
  20918743.470    -4170950.43049  -3236425.30647  20918743.723    20918749.475
       242.000         206.000
  23875164.108    -2619242.27949  -2010673.45545  23875163.308    23875170.869
       216.000         151.000
 98  6 12 16 38 29.9980000  0  8G16G 4G 5G24G 7G 8G 9G30
  24049450.786    -5766755.28249  -4476059.81846  24049450.551    24049460.619
       217.000         164.000
  20298029.061    -3281049.79149  -2376966.24647  20298029.089    20298033.235
       240.000         205.000
  21149846.792   -14509684.83949 -11288120.75547  21149846.134    21149852.383
       233.000         192.000
  19808780.680   -12509093.50249  -9715519.95547  19808780.214    19808786.528
       237.000         205.000
  23006326.145     5895992.30749   4586226.00745  23006325.106    23006333.333
       217.000         160.000
  21328835.639   -13880998.19249 -10788785.00047  21328834.839    21328840.863
       232.000         189.000
  20919852.580    -4165123.94549  -3231885.21047  20919852.246    20919858.156
       242.000         206.000
  23863862.408    -2678630.88649  -2056950.29145  23863863.121    23863869.117
       216.000         151.000
 98  6 12 16 38 44.9980000  0  8G16G 4G 5G24G 7G 8G 9G30
  24048435.510    -5772087.28449  -4480214.61946  24048435.636    24048445.374
       214.000         163.000
  20299934.135    -3271036.62449  -2369163.78047  20299934.698    20299938.770
       239.000         205.000
  21141139.045   -14555444.08749 -11323777.29747  21141138.437    21141145.019
       234.000         193.000
  19803876.536   -12534865.72249  -9735602.19747  19803875.842    19803882.290
       238.000         205.000
  23010755.043     5919266.00549   4604361.33645  23010754.084    23010762.051
       216.000         160.000
  21322959.797   -13911874.21149 -10812844.22447  21322958.975    21322965.604
       232.000         190.000
  20920988.490    -4159155.65349  -3227234.59947  20920988.461    20920993.656
       243.000         206.000
  23852560.321    -2738016.24249  -2103224.54345  23852561.067    23852569.365
       214.000         151.000
 98  6 12 16 38 59.9980000  0  8G16G 4G 5G24G 7G 8G 9G30
  24047446.651    -5777288.66549  -4484267.63045  24047445.511    24047454.602
       214.000         160.000
  20301863.346    -3260898.21049  -2361263.72047  20301863.406    20301868.198
       240.000         205.000
  21132440.957   -14601156.10449 -11359397.02947  21132439.954    21132445.939
       233.000         193.000
  19798999.644   -12560491.95049  -9755570.67847  19798999.723    19799005.917
       238.000         205.000
  23015184.873     5942541.97049   4622498.41745  23015184.393    23015190.050
       216.000         160.000
  21317111.462   -13942600.87849 -10836787.07247  21317112.067    21317118.369
       231.000         190.000
  20922150.695    -4153048.90749  -3222476.10847  20922150.511    20922156.250
       242.000         206.000
  23841262.881    -2797399.49449  -2149497.17845  23841262.668    23841268.020
       218.000         154.000
 98  6 12 16 39 14.9980000  0  8G16G 4G 5G24G 7G 8G 9G30
  24046481.283    -5782367.49649  -4488225.16145  24046480.283    24046488.847
       217.000         162.000
  20303815.873    -3250640.14249  -2353270.42647  20303815.701    20303820.366
       240.000         205.000
  21123749.161   -14646830.21949 -11394987.22847  21123748.139    21123754.669
       235.000         193.000
  19794149.348   -12585979.30149  -9775430.93547  19794149.314    19794155.999
       237.000         206.000
  23019612.653     5965812.42449   4640631.20745  23019611.288    23019619.984
       215.000         160.000
  21311291.773   -13973187.49349 -10860620.79347  21311292.068    21311297.510
       232.000         189.000
  20923337.472    -4146810.03749  -3217614.65947  20923337.604    20923343.240
       242.000         206.000
  23829960.321    -2856783.93949  -2195770.73445  23829960.659    23829968.232
       213.000         152.000
 98  6 12 16 39 29.9980000  0  8G16G 4G 5G24G 7G 8G 9G30
  24045538.218    -5787319.82549  -4492084.11445  24045537.335    24045545.903
       214.000         157.000
  20305792.178    -3240254.88849  -2345178.02647  20305792.041    20305796.846
       240.000         205.000
  21115065.044   -14692462.73149 -11430545.01347  21115064.950    21115070.860
       234.000         194.000
  19789325.993   -12611325.29049  -9795181.04847  19789325.883    19789332.810
       237.000         206.000
  23024041.009     5989082.18649   4658763.45345  23024040.241    23024047.763
       215.000         161.000
  21305500.056   -14003628.64549 -10884341.17447  21305499.368    21305504.624
       234.000         189.000
  20924551.068    -4140434.70749  -3212646.88447  20924550.588    20924556.470
       242.000         206.000
  23818659.786    -2916163.63649  -2242040.53645  23818659.361    23818669.008
       212.000         152.000
 98  6 12 16 39 44.9980000  0  8G16G 4G 5G24G 7G 8G 9G30
  24044619.500    -5792146.12849  -4495844.84745  24044618.847    24044627.819
       215.000         160.000
  20307792.691    -3229738.15649  -2336983.16847  20307793.262    20307797.488
       240.000         205.000
  21106389.698   -14738049.66549 -11466067.28347  21106390.165    21106396.086
       234.000         194.000
  19784529.984   -12636528.42949  -9814819.85047  19784530.057    19784536.422
       237.000         205.000
  23028469.133     6012354.17249   4676897.45746  23028468.295    23028477.471
       216.000         164.000
  21299734.984   -14033918.56149 -10907943.69447  21299734.511    21299740.559
       233.000         189.000
  20925790.840    -4133921.08249  -3207571.34547  20925790.469    20925796.126
       242.000         206.000
  23807362.584    -2975539.28149  -2288307.20745  23807362.800    23807369.905
       217.000         152.000
 98  6 12 16 39 59.9980000  0  8G16G 4G 5G24G 7G 8G 9G30
  24043724.202    -5796849.05649  -4499509.44645  24043723.202    24043733.470
       213.000         159.000
  20309819.146    -3219092.54749  -2328687.89147  20309819.328    20309823.614
       240.000         206.000
  21097724.315   -14783593.06849 -11501555.62947  21097723.439    21097729.280
       234.000         193.000
  19779760.819   -12661591.11549  -9834349.20647  19779761.055    19779767.037
       237.000         205.000
  23032897.143     6035626.31549   4695031.55446  23032897.644    23032905.182
       215.000         163.000
  21293999.992   -14064058.08749 -10931429.03747  21293999.416    21294005.336
       233.000         189.000
  20927056.157    -4127270.87549  -3202389.37847  20927056.070    20927061.465
       243.000         206.000
  23796064.187    -3034910.61949  -2334570.57145  23796064.447    23796070.697
       217.000         153.000
 98  6 12 16 40 14.9980000  0  8G16G 4G 5G24G 7G 8G 9G30
  24042855.503    -5801423.21649  -4503073.70845  24042853.851    24042863.126
       215.000         160.000
  20311869.715    -3208314.49749  -2320289.41747  20311870.137    20311874.145
       240.000         206.000
  21089067.277   -14829087.02049 -11537005.44747  21089065.873    21089071.875
       234.000         193.000
  19775019.038   -12686511.79349  -9853767.90947  19775019.144    19775025.067
       238.000         206.000
  23037328.188     6058904.83149   4713170.62546  23037327.620    23037335.759
       218.000         166.000
  21288294.592   -14094044.47249 -10954795.03847  21288293.043    21288299.150
       234.000         189.000
  20928348.051    -4120482.91349  -3197100.06347  20928347.594    20928352.785
       243.000         206.000
  23784767.545    -3094272.22549  -2380826.37845  23784767.757    23784774.931
       215.000         150.000
 98  6 12 16 40 29.9980000  0  8G16G 4G 5G24G 7G 8G 9G30
  24042008.298    -5805872.91449  -4506541.01845  24042006.868    24042016.607
       216.000         161.000
  20313946.007    -3197405.57549  -2311788.96647  20313946.003    20313950.337
       240.000         206.000
  21080417.719   -14874536.56649 -11572420.65947  21080417.519    21080423.007
       234.000         193.000
  19770302.437   -12711298.06549  -9873081.87247  19770302.059    19770308.228
       237.000         206.000
  23041758.980     6082186.07949   4731311.83846  23041758.221    23041765.389
       221.000         168.000
  21282615.911   -14123883.38649 -10978046.13147  21282615.498    21282621.639
       233.000         191.000
  20929663.974    -4113565.11249  -3191709.58147  20929663.684    20929668.987
       242.000         205.000
  23773471.854    -3153633.91049  -2427082.17945  23773471.306    23773478.726
       214.000         153.000
 98  6 12 16 40 44.9980000  0  8G16G 4G 5G24G 7G 8G 9G30
  24041184.442    -5810197.62649  -4509910.91345  24041183.956    24041192.615
       214.000         162.000
  20316046.814    -3186364.67149  -2303185.66247  20316046.522    20316051.469
       240.000         206.000
  21071778.199   -14919936.44949 -11607797.16947  21071777.911    21071783.883
       234.000         193.000
  19765611.620   -12735949.76949  -9892290.98247  19765611.116    19765617.076
       238.000         205.000
  23046188.912     6105471.20449   4749456.05246  23046187.813    23046197.011
       217.000         167.000
  21276965.982   -14153571.14749 -11001179.43947  21276965.911    21276972.426
       232.000         191.000
  20931005.631    -4106516.75749  -3186217.37047  20931005.046    20931010.711
       242.000         206.000
  23762174.144    -3212995.88949  -2473338.20645  23762174.449    23762184.294
       212.000         155.000
 98  6 12 16 40 59.9980000  0  8G16G 4G 5G24G 7G 8G 9G30
  24040385.277    -5814393.11149  -4513180.13246  24040385.287    24040395.037
       213.000         163.000
  20318173.194    -3175189.70749  -2294477.90747  20318173.899    20318177.947
       240.000         205.000
  21063149.266   -14965282.60549 -11643131.82247  21063148.390    21063154.912
       233.000         193.000
  19760946.540   -12760465.89249  -9911394.44547  19760946.089    19760951.653
       238.000         205.000
  23050621.462     6128763.12549   4767605.58146  23050620.680    23050629.255
       217.000         166.000
  21271346.864   -14183105.20249 -11024192.98347  21271345.885    21271352.000
       233.000         190.000
  20932372.635    -4099335.98549  -3180621.98047  20932371.949    20932377.387
       244.000         206.000
  23750879.897    -3272351.94849  -2519589.62545  23750879.889    23750889.985
       215.000         159.000
 98  6 12 16 41 14.9980000  0  8G16G 4G 5G24G 7G 8G 9G30
  24039612.058    -5818456.81249  -4516346.64745  24039612.329    24039621.607
       214.000         159.000
  20320325.574    -3163881.91149  -2285666.64647  20320325.503    20320329.845
       240.000         204.000
  21054530.782   -15010571.73649 -11678422.04147  21054530.301    21054536.513
       234.000         192.000
  19756306.471   -12784844.70349  -9930390.91647  19756306.482    19756312.376
       237.000         204.000
  23055056.587     6152065.76949   4785763.44946  23055055.432    23055063.564
       218.000         166.000
  21265755.339   -14212485.38449 -11047086.61646  21265754.485    21265760.763
       233.000         187.000
  20933763.210    -4092023.05849  -3174923.61147  20933763.196    20933768.678
       243.000         204.000
  23739587.730    -3331696.27249  -2565831.88445  23739587.675    23739596.437
       216.000         153.000
 98  6 12 16 41 29.9980000  0  8G16G 4G 5G24G 7G 8G 9G30
  24038864.930    -5822391.55249  -4519412.69846  24038864.509    24038873.158
       217.000         165.000
  20322501.244    -3152445.46849  -2276755.13847  20322501.458    20322506.001
       239.000         206.000
  21045923.607   -15055804.60349 -11713668.40847  21045922.608    21045929.190
       234.000         194.000
  19751692.403   -12809091.52249  -9949284.53247  19751691.980    19751698.922
       237.000         205.000
  23059491.831     6175376.46749   4803927.59646  23059491.531    23059499.048
       219.000         167.000
  21260192.809   -14241712.77149 -11069861.20047  21260192.677    21260199.095
       232.000         189.000
  20935179.244    -4084581.13249  -3169124.72447  20935179.283    20935184.766
       242.000         205.000
  23728295.146    -3391034.53249  -2612069.48445  23728296.024    23728303.455
       216.000         153.000
 98  6 12 16 41 44.9980000  0  8G16G 4G 5G24G 7G 8G 9G30
  24038139.274    -5826201.18449  -4522381.22146  24038139.312    24038148.870
       216.000         165.000
  20324701.739    -3140884.42449  -2267746.53147  20324701.815    20324706.088
       240.000         206.000
  21037326.988   -15100983.10249 -11748872.41447  21037325.597    21037331.523
       235.000         194.000
  19747102.722   -12833210.59149  -9968078.60047  19747102.489    19747109.191
       236.000         205.000
  23063929.465     6198691.55949   4822095.16846  23063927.631    23063936.244
       218.000         168.000
  21254659.806   -14270789.65449 -11092518.50147  21254659.358    21254665.896
       233.000         190.000
  20936619.289    -4077015.67249  -3163229.57647  20936619.356    20936624.617
       242.000         206.000
  23717004.285    -3450373.92749  -2658307.96045  23717003.873    23717011.501
       216.000         153.000
 98  6 12 16 41 59.9980000  0  8G16G 4G 5G24G 7G 8G 9G30
  24037438.805    -5829880.01349  -4525247.86646  24037438.436    24037447.407
       217.000         165.000
  20326925.979    -3129195.93149  -2258638.61947  20326926.117    20326930.260
       240.000         206.000
  21028741.363   -15146102.17249 -11784030.11647  21028740.196    21028745.697
       235.000         194.000
  19742538.060   -12857198.00949  -9986770.08447  19742537.871    19742544.308
       237.000         205.000
  23068365.885     6222013.06749   4840267.74646  23068365.721    23068373.512
       217.000         166.000
  21249156.033   -14299714.12649 -11115057.04147  21249155.418    21249162.226
       233.000         190.000
  20938083.112    -4069323.83049  -3157235.94347  20938083.300    20938088.583
       243.000         206.000
  23705711.637    -3509709.64249  -2704543.57045  23705712.729    23705718.543
       213.000         149.000
 98  6 12 16 42 14.9980000  0  8G16G 4G 5G24G 7G 8G 9G30
  24036764.330    -5833423.87349  -4528009.31745  24036763.623    24036773.588
       214.000         161.000
  20329174.377    -3117377.65349  -2249429.57647  20329174.732    20329179.508
       239.000         206.000
  21020166.389   -15191157.56249 -11819138.19347  21020166.153    21020172.302
       235.000         194.000
  19737999.111   -12881052.97549 -10005358.36747  19737998.918    19738004.580
       237.000         205.000
  23072805.972     6245343.20749   4858447.03546  23072805.998    23072814.495
       217.000         170.000
  21243681.812   -14328484.38749 -11137475.41747  21243680.795    21243687.045
       233.000         190.000
  20939571.133    -4061504.95949  -3151143.33147  20939570.867    20939576.404
       243.000         206.000
  23694422.145    -3569037.41849  -2750772.93545  23694422.428    23694430.599
       215.000         154.000
 98  6 12 16 42 29.9980000  0  8G16G 4G 5G24G 7G 8G 9G30
  24036115.894    -5836830.34349  -4530663.72046  24036115.411    24036124.884
       212.000         163.000
  20331448.522    -3105426.37049  -2240116.89247  20331448.965    20331453.687
       239.000         206.000
  21011604.964   -15236150.18649 -11854197.36647  21011604.578    21011610.249
       235.000         195.000
  19733484.518   -12904775.85949 -10023843.71947  19733484.342    19733490.381
       237.000         205.000
  23077248.353     6268681.15149   4876632.41446  23077246.865    23077255.144
       219.000         169.000
  21238236.136   -14357100.22949 -11159773.47247  21238235.249    21238241.533
       234.000         191.000
  20941082.680    -4053560.77049  -3144953.07047  20941082.360    20941088.275
       243.000         206.000
  23683133.571    -3628362.08349  -2796999.92545  23683134.879    23683141.456
       217.000         157.000
 98  6 12 16 42 44.9980000  0  8G16G 4G 5G24G 7G 8G 9G30
  24035494.216    -5840099.58649  -4533211.17646  24035493.989    24035503.469
       215.000         165.000
  20333747.482    -3093346.18349  -2230703.76347  20333747.689    20333752.630
       239.000         206.000
  21003054.430   -15281083.11349 -11889210.02547  21003054.069    21003059.767
       234.000         195.000
  19728994.643   -12928367.58349 -10042226.87347  19728994.780    19729001.431
       236.000         204.000
  23081690.527     6292022.94549   4894820.79546  23081689.011    23081696.665
       220.000         169.000
  21232820.044   -14385561.46449 -11181951.05347  21232819.671    21232825.280
       233.000         191.000
  20942618.155    -4045492.92649  -3138666.45647  20942617.547    20942622.772
       243.000         206.000
  23671844.550    -3687685.50549  -2843225.93645  23671843.946    23671852.442
       214.000         156.000
 98  6 12 16 42 59.9980000  0  8G16G 4G 5G24G 7G 8G 9G30
  24034900.391    -5843226.91649  -4535648.09246  24034899.270    24034908.067
       217.000         165.000
  20336071.516    -3081134.15449  -2221187.90347  20336071.628    20336076.585
       239.000         206.000
  20994515.247   -15325953.64749 -11924174.05447  20994515.086    20994521.311
       234.000         195.000
  19724532.645   -12951821.87649 -10060502.93047  19724531.510    19724538.228
       237.000         205.000
  23086133.068     6315373.31249   4913015.87546  23086132.155    23086140.687
       219.000         170.000
  21227434.105   -14413866.49749 -11204006.91747  21227433.600    21227439.101
       234.000         191.000
  20944177.585    -4037297.70449  -3132280.58547  20944177.379    20944182.534
       244.000         206.000
  23660558.130    -3747000.44749  -2889445.27645  23660556.095    23660566.355
       215.000         156.000
 98  6 12 16 43 14.9980000  0  8G16G 4G 5G24G 7G 8G 9G30
  24034331.688    -5846213.09849  -4537974.97646  24034330.739    24034338.870
       216.000         166.000
  20338420.132    -3068790.55849  -2211569.52547  20338420.145    20338425.136
       238.000         206.000
  20985988.949   -15370764.79449 -11959091.81247  20985987.997    20985993.604
       236.000         194.000
  19720095.071   -12975139.18449 -10078672.25647  19720095.007    19720100.953
       237.000         205.000
  23090577.358     6338731.01649   4931216.63946  23090577.098    23090585.596
       216.000         170.000
  21222078.163   -14442017.31449 -11225942.60847  21222076.715    21222082.319
       235.000         191.000
  20945760.895    -4028977.11249  -3125797.02047  20945760.695    20945766.599
       243.000         206.000
  23649269.114    -3806308.88649  -2935659.63245  23649271.366    23649277.837
       213.000         152.000
 98  6 12 16 43 29.9980000  0  8G16G 4G 5G24G 7G 8G 9G30
  24033787.773    -5849064.73049  -4540197.01746  24033788.058    24033798.042
       214.000         164.000
  20340792.848    -3056319.70649  -2201851.98347  20340793.340    20340798.246
       238.000         207.000
  20977471.390   -15415521.49549 -11993967.14847  20977470.673    20977476.714
       235.000         194.000
  19715682.439   -12998325.01149 -10096739.12647  19715682.245    19715688.513
       237.000         204.000
  23095020.997     6362088.78449   4949417.47546  23095020.922    23095029.619
       214.000         167.000
  21216748.698   -14470020.49149 -11247763.25847  21216747.377    21216753.208
       234.000         191.000
  20947367.528    -4020536.07649  -3119219.61247  20947367.150    20947372.725
       243.000         207.000
  23637985.579    -3865619.95449  -2981876.00645  23637985.304    23637991.657
       218.000         156.000
 98  6 12 16 43 44.9980000  0  8G16G 4G 5G24G 7G 8G 9G30
  24033272.532    -5851782.26049  -4542314.58646  24033270.186    24033280.000
       215.000         164.000
  20343190.992    -3043719.86349  -2192033.92947  20343191.136    20343196.208
       239.000         206.000
  20968964.391   -15460223.80749 -12028800.10747  20968964.170    20968970.166
       235.000         194.000
  19711295.361   -13021379.27449 -10114703.47947  19711295.357    19711301.809
       236.000         204.000
  23099466.570     6385445.63749   4967617.57246  23099465.671    23099475.155
       218.000         168.000
  21211446.585   -14497874.69549 -11269467.82747  21211446.384    21211452.693
       232.000         190.000
  20948997.154    -4011972.32149  -3112546.57347  20948996.923    20949002.420
       244.000         206.000
  23626696.409    -3924933.87249  -3028094.60045  23626697.903    23626704.792
       215.000         156.000
 98  6 12 16 43 59.9980000  0  8G16G 4G 5G24G 7G 8G 9G30
  24032780.700    -5854353.96549  -4544318.52646  24032780.982    24032790.459
       215.000         167.000
  20345615.370    -3030981.10149  -2182107.62547  20345615.561    20345620.569
       239.000         207.000
  20960470.878   -15504862.34349 -12063583.36947  20960469.977    20960475.540
       236.000         195.000
  19706935.426   -13044289.29649 -10132555.43247  19706935.664    19706941.885
       236.000         205.000
  23103913.493     6408811.35349   4985824.57846  23103913.047    23103920.254
       217.000         167.000
  21206176.576   -14525570.53249 -11291048.99547  21206176.555    21206182.506
       233.000         190.000
  20950651.441    -4003275.94049  -3105770.18547  20950651.371    20950657.398
       243.000         206.000
  23615411.389    -3984237.96049  -3074305.54945  23615412.300    23615419.619
       213.000         153.000
 98  6 12 16 44 14.9980000  0  8G16G 4G 5G24G 7G 8G 9G30
  24032318.486    -5856785.06249  -4546212.88146  24032318.757    24032328.041
       216.000         169.000
  20348064.098    -3018112.02049  -2172079.76947  20348064.228    20348069.312
       238.000         207.000
  20951987.263   -15549444.44749 -12098322.64747  20951986.476    20951992.303
       236.000         195.000
  19702602.869   -13067059.63649 -10150298.55047  19702602.654    19702608.926
       236.000         204.000
  23108360.365     6432183.78849   5004036.84546  23108361.412    23108368.773
       218.000         167.000
  21200936.008   -14553112.45349 -11312510.22347  21200935.301    21200941.553
       233.000         191.000
  20952331.125    -3994450.17849  -3098892.97847  20952331.049    20952337.589
       243.000         206.000
  23604127.529    -4043536.09449  -3120511.79945  23604127.532    23604135.852
       213.000         155.000
 98  6 12 16 44 29.9980000  0  8G16G 4G 5G24G 7G 8G 9G30
  24031882.515    -5859079.39149  -4548000.70646  24031882.382    24031891.213
       217.000         170.000
  20350536.761    -3005116.91649  -2161953.72247  20350537.368    20350542.249
       239.000         207.000
  20943512.760   -15593976.52249 -12133022.94847  20943512.350    20943518.400
       236.000         195.000
  19698295.669   -13089693.85949 -10167935.60347  19698295.596    19698301.898
       236.000         204.000
  23112809.674     6455561.33449   5022253.07146  23112809.014    23112818.006
       217.000         168.000
  21195723.578   -14580502.75249 -11333853.30147  21195723.387    21195729.987
       233.000         192.000
  20954034.658    -3985497.84349  -3091917.15047  20954034.517    20954040.594
       243.000         206.000
  23592845.091    -4102833.55049  -3166717.55145  23592845.590    23592851.576
       218.000         157.000
 98  6 12 16 44 44.9980000  0  8G16G 4G 5G24G 7G 8G 9G30
  24031471.875    -5861235.74049  -4549680.96646  24031471.286    24031481.044
       219.000         170.000
  20353033.613    -2991996.83749  -2151730.28847  20353033.988    20353038.932
       239.000         207.000
  20935048.376   -15638455.20949 -12167681.64947  20935048.275    20935054.258
       235.000         196.000
  19694014.868   -13112187.44249 -10185463.05647  19694014.959    19694021.311
       236.000         204.000
  23117259.586     6478947.27149   5040475.85746  23117259.667    23117268.558
       217.000         168.000
  21190540.304   -14607740.08749 -11355077.18847  21190540.124    21190547.265
       233.000         192.000
  20955762.835    -3976415.16049  -3084839.75447  20955762.738    20955769.087
       243.000         206.000
  23581562.354    -4162125.86849  -3212919.35545  23581562.003    23581568.893
       219.000         157.000
 98  6 12 16 44 59.9980000  0  8G16G 4G 5G24G 7G 8G 9G30
  24031088.190    -5863254.70949  -4551254.17046  24031086.405    24031096.749
       219.000         171.000
  20355554.382    -2978749.29649  -2141407.53547  20355554.636    20355560.097
       238.000         208.000
  20926596.432   -15682874.47149 -12202294.05047  20926595.828    20926601.107
       236.000         196.000
  19689762.399   -13134537.12549 -10202878.38347  19689761.971    19689768.057
       236.000         204.000
  23121710.957     6502344.26549   5058707.25346  23121710.746    23121719.974
       214.000         165.000
  21185386.995   -14634822.93149 -11376180.69247  21185386.306    21185392.856
       234.000         193.000
  20957517.624    -3967198.12849  -3077657.66647  20957517.317    20957522.280
       244.000         206.000
  23570282.163    -4221406.84549  -3259112.26545  23570281.894    23570288.112
       218.000         156.000
 98  6 12 16 45 14.9980000  0  8G16G 4G 5G24G 7G 8G 9G30
  24030729.277    -5865139.36249  -4552722.74646  24030729.308    24030737.431
       217.000         169.000
  20358100.064    -2965372.03749  -2130983.70147  20358100.273    20358105.640
       239.000         208.000
  20918154.581   -15727233.41649 -12236859.44347  20918154.426    20918159.999
       236.000         196.000
  19685537.072   -13156741.70849 -10220180.65047  19685536.822    19685542.571
       236.000         204.000
  23126165.363     6525752.12849   5076947.10646  23126165.011    23126174.678
       214.000         165.000
  21180262.727   -14661750.20449 -11397162.97447  21180262.841    21180268.869
       234.000         192.000
  20959296.875    -3957844.15449  -3070368.86947  20959296.777    20959302.352
       243.000         206.000
  23559003.652    -4280676.30649  -3305296.21245  23559003.135    23559009.003
       217.000         157.000
 98  6 12 16 45 29.9980000  0  8G16G 4G 5G24G 7G 8G 9G30
  24030393.551    -5866901.04549  -4554095.47546  24030393.348    24030402.973
       215.000         167.000
  20360668.588    -2951876.60149  -2120467.78647  20360668.780    20360673.800
       239.000         208.000
  20909723.127   -15771542.80549 -12271386.22247  20909722.526    20909727.900
       236.000         196.000
  19681336.714   -13178811.15649 -10237377.61347  19681336.806    19681342.983
       235.000         203.000
  23130621.411     6549161.36549   5095188.04846  23130620.469    23130628.375
       217.000         164.000
  21175166.650   -14688533.00549 -11418032.68447  21175166.091    21175172.082
       234.000         192.000
  20961101.135    -3948363.40349  -3062981.28447  20961100.917    20961106.505
       243.000         206.000
  23547724.276    -4339944.34649  -3351479.02645  23547723.940    23547730.860
       214.000         157.000
 98  6 12 16 45 44.9980000  0  8G16G 4G 5G24G 7G 8G 9G30
  24030082.792    -5868533.51749  -4555367.54346  24030083.331    24030092.242
       216.000         170.000
  20363259.792    -2938259.77449  -2109857.28047  20363259.665    20363264.861
       238.000         208.000
  20901301.610   -15815798.48349 -12305871.14847  20901301.179    20901306.691
       236.000         196.000
  19677163.943   -13200739.76949 -10254464.82947  19677163.912    19677169.894
       235.000         202.000
  23135076.189     6572578.96849   5113435.50746  23135076.967    23135086.133
       214.000         163.000
  21170098.254   -14715165.83049 -11438785.53247  21170098.150    21170103.895
       234.000         192.000
  20962930.338    -3938753.07149  -3055492.73747  20962930.098    20962935.491
       243.000         206.000
  23536446.120    -4399205.36849  -3397656.36345  23536446.436    23536454.632
       215.000         155.000
 98  6 12 16 45 59.9980000  0  8G16G 4G 5G24G 7G 8G 9G30
  24029797.115    -5870037.18849  -4556539.20746  24029796.488    24029806.586
       216.000         167.000
  20365873.800    -2924522.73549  -2099153.10447  20365873.778    20365878.613
       239.000         208.000
  20892890.375   -15859998.08549 -12340312.38147  20892890.224    20892895.406
       236.000         196.000
  19673018.460   -13222525.71949 -10271440.88747  19673018.003    19673024.272
       235.000         203.000
  23139535.643     6596006.62849   5131690.79546  23139534.655    23139543.722
       213.000         164.000
  21165058.907   -14741646.37749 -11459419.70947  21165058.968    21165064.518
       234.000         192.000
  20964783.654    -3929014.56749  -3047904.30747  20964783.185    20964788.785
       244.000         206.000
  23525172.591    -4458457.62549  -3443826.95745  23525171.820    23525177.473
       220.000         157.000
 98  6 12 16 46 14.9980000  0  8G16G 4G 5G24G 7G 8G 9G30
  24029535.154    -5871417.19649  -4557614.55646  24029533.788    24029542.995
       215.000         165.000
  20368509.547    -2910671.54749  -2088359.97747  20368509.662    20368514.634
       239.000         208.000
  20884489.602   -15904145.34649 -12374712.83247  20884488.750    20884494.640
       236.000         196.000
  19668899.217   -13244173.93949 -10288309.62347  19668898.945    19668905.011
       236.000         203.000
  23143994.331     6619439.64549   5149950.26246  23143993.846    23144002.237
       216.000         163.000
  21160048.273   -14767978.83849 -11479938.50947  21160048.120    21160053.862
       233.000         192.000
  20966659.327    -3919155.01449  -3040221.55547  20966659.269    20966664.889
       243.000         206.000
  23513896.198    -4517706.20649  -3489994.65145  23513896.526    23513904.034
       217.000         155.000
 98  6 12 16 46 29.9980000  0  8G16G 4G 5G24G 7G 8G 9G30
  24029297.458    -5872671.36049  -4558591.82246  24029296.512    24029305.648
       217.000         165.000
  20371168.239    -2896699.98649  -2077473.05347  20371168.442    20371173.373
       240.000         208.000
  20876100.412   -15948232.04849 -12409066.09447  20876100.353    20876104.903
       237.000         196.000
  19664805.650   -13265681.89549 -10305069.05947  19664805.946    19664811.991
       235.000         203.000
  23148456.164     6642880.01149   5168215.45646  23148454.550    23148462.524
       218.000         164.000
  21155066.445   -14794156.60449 -11500336.75647  21155066.398    21155072.811
       234.000         192.000
  20968559.747    -3909169.43149  -3032440.59747  20968559.608    20968565.183
       243.000         206.000
  23502622.599    -4576947.53249  -3536156.64345  23502622.484    23502631.697
       217.000         158.000
 98  6 12 16 46 44.9980000  0  8G16G 4G 5G24G 7G 8G 9G30
  24029079.596    -5873803.78549  -4559474.23246  24029079.815    24029088.781
       214.000         163.000
  20373849.607    -2882609.01549  -2066493.07847  20373849.998    20373854.993
       239.000         209.000
  20867722.369   -15992256.74849 -12443371.04447  20867722.411    20867727.385
       237.000         196.000
  19660739.150   -13287052.65949 -10321721.59347  19660738.875    19660745.615
       234.000         202.000
  23152916.491     6666321.62049   5186481.62146  23152915.833    23152923.594
       217.000         163.000
  21150114.093   -14820181.69649 -11520616.03947  21150113.358    21150119.827
       233.000         192.000
  20970482.898    -3899062.51349  -3024565.08947  20970482.879    20970488.605
       243.000         206.000
  23491349.550    -4636184.44149  -3582315.21445  23491350.224    23491357.827
       216.000         159.000
 98  6 12 16 46 59.9980000  0  8G16G 4G 5G24G 7G 8G 9G30
  24028886.930    -5874822.73549  -4560268.20346  24028886.265    24028894.860
       215.000         164.000
  20376552.188    -2868409.14349  -2055428.24947  20376552.299    20376557.190
       240.000         209.000
  20859355.966   -16036226.32349 -12477633.03447  20859355.110    20859360.389
       237.000         197.000
  19656696.980   -13308294.76649 -10338273.87047  19656696.779    19656703.640
       234.000         202.000
  23157376.336     6689752.87149   5204739.69346  23157375.358    23157382.922
       217.000         165.000
  21145189.744   -14846062.07449 -11540782.56447  21145188.982    21145195.237
       234.000         192.000
  20972427.407    -3888843.08549  -3016601.91747  20972427.379    20972433.320
       242.000         206.000
  23480076.974    -4695425.88649  -3628477.33445  23480077.218    23480084.709
       216.000         156.000
 98  6 12 16 47 14.9980000  0  8G16G 4G 5G24G 7G 8G 9G30
  24028716.542    -5875716.44849  -4560964.60446  24028716.963    24028725.492
       215.000         163.000
  20379276.990    -2854089.13049  -2044269.80047  20379277.173    20379281.977
       240.000         209.000
  20851000.392   -16080131.83749 -12511845.10647  20850999.719    20851005.325
       237.000         197.000
  19652681.434   -13329398.46149 -10354718.30047  19652680.959    19652687.475
       234.000         203.000
  23161834.000     6713185.92149   5222999.19045  23161834.103    23161840.225
       217.000         158.000
  21140294.965   -14871786.83449 -11560827.82247  21140293.930    21140299.283
       235.000         192.000
  20974395.765    -3878500.18349  -3008542.52947  20974395.847    20974401.574
       243.000         206.000
  23468803.057    -4754663.46549  -3674636.44845  23468804.605    23468812.166
       216.000         156.000
 98  6 12 16 47 29.9980000  0  8G16G 4G 5G24G 7G 8G 9G30
  24028569.568    -5876485.29149  -4561563.67945  24028569.465    24028577.381
       215.000         162.000
  20382023.481    -2839653.14149  -2033020.98747  20382023.764    20382028.964
       239.000         208.000
  20842656.640   -16123976.59349 -12546009.83147  20842656.234    20842662.048
       236.000         197.000
  19648690.847   -13350368.45849 -10371058.54947  19648690.743    19648696.803
       235.000         202.000
  23166293.293     6736619.79149   5241259.33146  23166292.869    23166300.727
       217.000         163.000
  21135428.089   -14897358.12749 -11580753.49747  21135427.330    21135433.539
       235.000         192.000
  20976386.914    -3868038.15649  -3000390.32247  20976387.063    20976392.381
       243.000         206.000
  23457530.645    -4813901.89349  -3720796.20045  23457532.054    23457539.132
       217.000         156.000
 98  6 12 16 47 44.9980000  0  8G16G 4G 5G24G 7G 8G 9G30
  24028448.323    -5877122.10949  -4562059.87345  24028447.631    24028457.183
       214.000         161.000
  20384794.018    -2825096.96249  -2021678.51647  20384794.272    20384798.851
       240.000         209.000
  20834326.586   -16167752.94949 -12580121.26547  20834326.337    20834331.946
       237.000         198.000
  19644726.707   -13371200.88049 -10387291.59947  19644726.571    19644732.342
       234.000         202.000
  23170755.527     6760060.30049   5259524.64145  23170753.295    23170760.774
       218.000         160.000
  21130593.016   -14922768.96149 -11600554.14347  21130592.509    21130597.747
       233.000         191.000
  20978400.767    -3857453.30849  -2992142.39847  20978400.608    20978406.473
       243.000         206.000
  23446262.555    -4873134.95449  -3766951.82345  23446261.639    23446265.843
       220.000         156.000
 98  6 12 16 47 59.9980000  0  8G16G 4G 5G24G 7G 8G 9G30
  24028350.755    -5877637.07849  -4562461.15445  24028350.446    24028360.469
       214.000         162.000
  20387585.553    -2810426.86149  -2010247.27147  20387585.617    20387590.764
       240.000         209.000
  20826008.632   -16211466.74949 -12614183.95347  20826007.838    20826013.291
       237.000         198.000
  19640786.164   -13391906.55849 -10403425.87847  19640786.218    19640792.067
       234.000         201.000
  23175214.142     6783496.50249   5277786.60045  23175213.442    23175221.415
       217.000         160.000
  21125786.258   -14948024.73949 -11620233.95947  21125786.365    21125792.112
       234.000         192.000
  20980437.007    -3846752.41449  -2983804.05547  20980436.930    20980442.809
       243.000         205.000
  23434986.765    -4932372.03949  -3813110.56645  23434987.778    23434995.491
       215.000         158.000
 98  6 12 16 48 14.9980000  0  8G16G 4G 5G24G 7G 8G 9G30
  24028276.717    -5878019.58749  -4562759.20745  24028276.921    24028286.479
       213.000         158.000
  20390401.321    -2795628.94249  -1998716.43447  20390401.775    20390406.406
       240.000         209.000
  20817704.117   -16255103.28049 -12648186.42447  20817703.849    20817709.359
       237.000         197.000
  19636872.379   -13412476.68749 -10419454.54747  19636872.022    19636877.879
       234.000         202.000
  23179674.761     6806938.98949   5296053.46645  23179673.802    23179683.102
       216.000         162.000
  21121012.419   -14973112.66449 -11639782.97347  21121012.399    21121018.441
       234.000         193.000
  20982498.570    -3835920.88649  -2975363.92647  20982498.462    20982504.546
       243.000         206.000
  23423715.721    -4991600.07649  -3859262.19145  23423717.545    23423725.532
       216.000         162.000
 98  6 12 16 48 29.9980000  0  8G16G 4G 5G24G 7G 8G 9G30
  24028229.306    -5878271.89249  -4562955.79445  24028229.245    24028238.497
       212.000         157.000
  20393241.196    -2780706.11549  -1987088.25847  20393241.076    20393245.991
       241.000         209.000
  20809415.176   -16298667.10649 -12682132.25247  20809414.418    20809419.605
       237.000         198.000
  19632982.806   -13432914.27449 -10435379.92547  19632982.570    19632988.656
       234.000         201.000
  23184136.534     6830385.30349   5314323.29145  23184136.166    23184144.006
       218.000         162.000
  21116270.515   -14998036.89649 -11659204.44547  21116269.287    21116275.353
       235.000         192.000
  20984583.911    -3824960.97949  -2966823.75447  20984583.744    20984590.114
       243.000         205.000
  23412446.327    -5050820.97949  -3905408.28745  23412446.453    23412454.688
       212.000         157.000
 98  6 12 16 48 44.9980000  0  8G16G 4G 5G24G 7G 8G 9G30
  24028206.721    -5878392.08949  -4563049.44245  24028206.671    24028215.995
       212.000         158.000
  20396104.853    -2765656.54949  -1975361.33047  20396105.110    20396110.006
       241.000         209.000
  20801137.993   -16342159.86649 -12716022.69547  20801137.621    20801142.996
       237.000         198.000
  19629119.368   -13453216.43349 -10451199.78047  19629119.213    19629125.376
       233.000         201.000
  23188600.043     6853839.42349   5332599.19345  23188598.881    23188606.791
       218.000         162.000
  21111558.705   -15022796.34049 -11678497.51447  21111557.613    21111563.632
       235.000         193.000
  20986694.297    -3813871.07749  -2958182.29247  20986694.008    20986700.113
       243.000         205.000
  23401180.403    -5110032.68649  -3951547.23345  23401181.713    23401187.959
       219.000         160.000
 98  6 12 16 48 59.9980000  0  8G16G 4G 5G24G 7G 8G 9G30
  24028207.781    -5878388.96149  -4563047.01245  24028207.666    24028215.472
       213.000         158.000
  20398990.482    -2750493.27849  -1963545.79847  20398990.705    20398995.610
       241.000         208.000
  20792872.834   -16385595.30349 -12749868.46947  20792871.834    20792877.787
       237.000         198.000
  19625280.544   -13473391.99949 -10466920.98847  19625279.896    19625285.940
       234.000         202.000
  23193062.437     6877295.42049   5350876.55746  23193061.599    23193070.610
       215.000         163.000
  21106874.685   -15047404.83849 -11697672.95947  21106874.722    21106880.496
       234.000         194.000
  20988827.072    -3802660.21949  -2949446.57347  20988827.052    20988832.916
       241.000         205.000
  23389913.849    -5169243.40449  -3997685.42745  23389913.581    23389919.706
       222.000         158.000
 98  6 12 16 49 14.9980000  0  8G16G 4G 5G24G 7G 8G 9G30
  24028233.269    -5878257.28449  -4562944.37745  24028233.026    24028241.885
       213.000         157.000
  20401898.918    -2735208.98049  -1951635.96047  20401899.202    20401904.366
       241.000         209.000
  20784618.112   -16428972.18749 -12783668.62547  20784618.014    20784623.299
       237.000         198.000
  19621465.731   -13493435.98549 -10482539.66847  19621465.240    19621472.068
       234.000         202.000
  23197529.556     6900761.58349   5369161.86746  23197527.887    23197536.455
       216.000         165.000
  21102221.951   -15071859.78749 -11716728.75547  21102221.149    21102227.386
       236.000         193.000
  20990985.093    -3791322.00449  -2940611.61247  20990984.868    20990990.387
       242.000         205.000
  23378647.750    -5228445.08949  -4043816.61945  23378648.415    23378653.641
       221.000         158.000
 98  6 12 16 49 29.9980000  0  8G16G 4G 5G24G 7G 8G 9G30
  24028281.572    -5877993.44749  -4562738.79845  24028281.962    24028292.046
       209.000         155.000
  20404831.978    -2719796.79049  -1939626.46547  20404832.191    20404837.053
       242.000         209.000
  20776375.598   -16472287.66949 -12817420.93147  20776375.356    20776380.723
       238.000         198.000
  19617676.616   -13513345.03049 -10498053.20547  19617677.061    19617683.536
       234.000         201.000
  23201997.002     6924242.40149   5387458.56446  23201996.466    23202004.203
       213.000         163.000
  21097597.895   -15096156.98149 -11735661.62947  21097597.341    21097603.407
       234.000         193.000
  20993167.629    -3779853.89649  -2931675.44447  20993167.478    20993173.157
       242.000         205.000
  23367382.773    -5287633.82449  -4089937.68045  23367384.334    23367390.082
       217.000         157.000
 98  6 12 16 49 44.9980000  0  8G16G 4G 5G24G 7G 8G 9G30
  24028358.495    -5877596.75449  -4562429.66645  24028358.097    24028367.508
       213.000         154.000
  20407789.407    -2704257.04949  -1927517.58747  20407789.482    20407793.791
       242.000         209.000
  20768145.627   -16515539.62449 -12851123.73747  20768145.078    20768150.211
       238.000         198.000
  19613914.618   -13533116.17049 -10513459.28247  19613914.614    19613920.844
       233.000         200.000
  23206466.623     6947734.79249   5405764.30446  23206466.701    23206474.982
       212.000         163.000
  21093003.997   -15120294.22149 -11754469.86247  21093004.182    21093010.390
       234.000         193.000
  20995374.327    -3768256.32049  -2922638.39047  20995374.102    20995380.139
       241.000         205.000
  23356122.029    -5346808.30549  -4136047.58345  23356121.638    23356130.114
       215.000         155.000
 98  6 12 16 49 59.9980000  0  8G16G 4G 5G24G 7G 8G 9G30
  24028459.501    -5877066.16949  -4562016.21545  24028458.634    24028467.922
       211.000         156.000
  20410770.681    -2688589.52149  -1915309.12347  20410771.004    20410775.077
       241.000         208.000
  20759927.050   -16558727.09549 -12884776.29647  20759926.363    20759931.533
       238.000         198.000
  19610179.477   -13552746.48249 -10528755.62647  19610179.239    19610185.364
       233.000         201.000
  23210940.407     6971237.75049   5424078.25346  23210939.756    23210947.171
       214.000         163.000
  21088442.683   -15144270.21349 -11773152.45247  21088441.836    21088448.325
       234.000         193.000
  20997606.463    -3756527.66149  -2913499.20347  20997606.259    20997611.920
       241.000         204.000
  23344866.123    -5405967.34149  -4182145.49145  23344866.753    23344873.086
       219.000         160.000
 98  6 12 16 50 14.9980000  0  8G16G 4G 5G24G 7G 8G 9G30
  24028584.586    -5876404.97149  -4561500.99645  24028584.553    24028592.273
       211.000         155.000
  20413775.181    -2672799.42149  -1903005.14847  20413775.712    20413779.968
       242.000         209.000
  20751719.592   -16601853.83949 -12918381.52847  20751719.656    20751724.860
       237.000         198.000
  19606470.306   -13572236.39949 -10543942.56647  19606470.071    19606476.544
       233.000         201.000
  23215413.663     6994748.69249   5442398.43946  23215412.880    23215421.662
       214.000         164.000
  21083909.532   -15168090.13649 -11791713.42447  21083908.847    21083915.421
       234.000         193.000
  20999862.716    -3744672.95349  -2904261.78247  20999862.427    20999867.561
       242.000         204.000
  23333610.287    -5465115.32449  -4228234.78846  23333611.432    23333617.085
       221.000         163.000
 98  6 12 16 50 29.9980000  0  8G16G 4G 5G24G 7G 8G 9G30
  24028736.293    -5875613.51349  -4560884.23445  24028736.188    24028744.392
       215.000         156.000
  20416802.176    -2656892.87249  -1890610.43747  20416802.577    20416806.945
       242.000         209.000
  20743523.794   -16644923.58249 -12951942.34847  20743523.357    20743529.003
       237.000         198.000
  19602788.874   -13591583.80449 -10559018.45347  19602788.909    19602794.880
       233.000         201.000
  23219888.554     7018267.59649   5460724.83345  23219888.242    23219897.358
       212.000         162.000
  21079406.081   -15191759.06649 -11810156.74047  21079405.216    21079411.559
       235.000         194.000
  21002142.220    -3732696.99849  -2894929.89047  21002141.659    21002146.980
       242.000         205.000
  23322357.658    -5524252.70949  -4274315.82446  23322357.542    23322363.989
       220.000         163.000
 98  6 12 16 50 44.9980000  0  8G16G 4G 5G24G 7G 8G 9G30
  24028912.603    -5874686.75249  -4560162.07445  24028912.240    24028921.847
       214.000         157.000
  20419851.591    -2640868.72249  -1878124.08847  20419851.659    20419856.081
       243.000         208.000
  20735339.538   -16687936.45849 -12985458.86347  20735338.457    20735344.046
       237.000         198.000
  19599134.692   -13610786.36949 -10573981.48247  19599134.511    19599140.845
       233.000         200.000
  23224367.258     7041795.20049   5479057.99445  23224365.996    23224374.370
       213.000         161.000
  21074929.851   -15215275.90849 -11828481.54647  21074929.768    21074936.730
       233.000         194.000
  21004444.687    -3720598.99649  -2885502.89747  21004443.791    21004449.131
       242.000         205.000
  23311105.634    -5583380.55749  -4320389.41446  23311105.291    23311112.456
       221.000         163.000
